<?xml version="1.0" encoding="UTF-8" standalone="no" ?>
<gpx xmlns="http://www.topografix.com/GPX/1/1" xmlns:xsi="http://www.w3.org/2001/XMLSchema-instance" xsi:schemaLocation="http://www.topografix.com/GPX/1/1 http://www.topografix.com/GPX/1/1/gpx.xsd" version="1.1" creator="VisuGPX - https://www.visugpx.com">
  <metadata>
    <name>Cretes de genibres </name>
    <desc><![CDATA[WE Janvier 2018
Plateau de Beille - Cabane de Poussierges
Couchage 6 personnes avec poel bois 
Col des fenestre pour faire cretes de Genibres]]></desc>
  </metadata>
  <trk>
    <name><![CDATA[20180114175933-hbEQW]]></name>
    <trkseg>
      <trkpt lat="42.72542" lon="1.69068">
        <ele>1784</ele>
        <time>2018-01-13T07:59:41Z</time>
      </trkpt>
      <trkpt lat="42.72544" lon="1.6907">
        <ele>1784</ele>
        <time>2018-01-13T08:00:06Z</time>
      </trkpt>
      <trkpt lat="42.72541" lon="1.69071">
        <ele>1784</ele>
        <time>2018-01-13T08:00:29Z</time>
      </trkpt>
      <trkpt lat="42.72544" lon="1.69071">
        <ele>1784</ele>
        <time>2018-01-13T08:00:54Z</time>
      </trkpt>
      <trkpt lat="42.72545" lon="1.69071">
        <ele>1784</ele>
        <time>2018-01-13T08:00:58Z</time>
      </trkpt>
      <trkpt lat="42.72544" lon="1.69071">
        <ele>1784</ele>
        <time>2018-01-13T08:01:15Z</time>
      </trkpt>
      <trkpt lat="42.72545" lon="1.6907">
        <ele>1784</ele>
        <time>2018-01-13T08:01:34Z</time>
      </trkpt>
      <trkpt lat="42.72543" lon="1.6907">
        <ele>1784</ele>
        <time>2018-01-13T08:01:47Z</time>
      </trkpt>
      <trkpt lat="42.72543" lon="1.69072">
        <ele>1784</ele>
        <time>2018-01-13T08:01:54Z</time>
      </trkpt>
      <trkpt lat="42.72543" lon="1.69071">
        <ele>1784</ele>
        <time>2018-01-13T08:02:06Z</time>
      </trkpt>
      <trkpt lat="42.72545" lon="1.69071">
        <ele>1784</ele>
        <time>2018-01-13T08:02:21Z</time>
      </trkpt>
      <trkpt lat="42.72545" lon="1.69068">
        <ele>1784</ele>
        <time>2018-01-13T08:02:43Z</time>
      </trkpt>
      <trkpt lat="42.72541" lon="1.69072">
        <ele>1784</ele>
        <time>2018-01-13T08:02:58Z</time>
      </trkpt>
      <trkpt lat="42.7254" lon="1.69074">
        <ele>1784</ele>
        <time>2018-01-13T08:03:01Z</time>
      </trkpt>
      <trkpt lat="42.7253" lon="1.69082">
        <ele>1785</ele>
        <time>2018-01-13T08:03:17Z</time>
      </trkpt>
      <trkpt lat="42.72515" lon="1.6909">
        <ele>1786</ele>
        <time>2018-01-13T08:03:34Z</time>
      </trkpt>
      <trkpt lat="42.72495" lon="1.69077">
        <ele>1787</ele>
        <time>2018-01-13T08:03:52Z</time>
      </trkpt>
      <trkpt lat="42.72489" lon="1.69074">
        <ele>1786</ele>
        <time>2018-01-13T08:03:59Z</time>
      </trkpt>
      <trkpt lat="42.72487" lon="1.69073">
        <ele>1786</ele>
        <time>2018-01-13T08:04:01Z</time>
      </trkpt>
      <trkpt lat="42.72484" lon="1.69072">
        <ele>1786</ele>
        <time>2018-01-13T08:04:04Z</time>
      </trkpt>
      <trkpt lat="42.72481" lon="1.69073">
        <ele>1786</ele>
        <time>2018-01-13T08:04:06Z</time>
      </trkpt>
      <trkpt lat="42.72479" lon="1.69072">
        <ele>1786</ele>
        <time>2018-01-13T08:04:08Z</time>
      </trkpt>
      <trkpt lat="42.72469" lon="1.69081">
        <ele>1786</ele>
        <time>2018-01-13T08:04:20Z</time>
      </trkpt>
      <trkpt lat="42.72467" lon="1.69084">
        <ele>1789</ele>
        <time>2018-01-13T08:04:22Z</time>
      </trkpt>
      <trkpt lat="42.72463" lon="1.69091">
        <ele>1790</ele>
        <time>2018-01-13T08:04:27Z</time>
      </trkpt>
      <trkpt lat="42.72461" lon="1.69094">
        <ele>1790</ele>
        <time>2018-01-13T08:04:29Z</time>
      </trkpt>
      <trkpt lat="42.7246" lon="1.69096">
        <ele>1790</ele>
        <time>2018-01-13T08:04:31Z</time>
      </trkpt>
      <trkpt lat="42.72453" lon="1.69109">
        <ele>1790</ele>
        <time>2018-01-13T08:04:42Z</time>
      </trkpt>
      <trkpt lat="42.7245" lon="1.69114">
        <ele>1791</ele>
        <time>2018-01-13T08:04:46Z</time>
      </trkpt>
      <trkpt lat="42.72448" lon="1.69119">
        <ele>1791</ele>
        <time>2018-01-13T08:04:50Z</time>
      </trkpt>
      <trkpt lat="42.72444" lon="1.69124">
        <ele>1791</ele>
        <time>2018-01-13T08:04:54Z</time>
      </trkpt>
      <trkpt lat="42.72431" lon="1.69134">
        <ele>1792</ele>
        <time>2018-01-13T08:05:08Z</time>
      </trkpt>
      <trkpt lat="42.72415" lon="1.69142">
        <ele>1794</ele>
        <time>2018-01-13T08:05:24Z</time>
      </trkpt>
      <trkpt lat="42.72403" lon="1.69156">
        <ele>1795</ele>
        <time>2018-01-13T08:05:40Z</time>
      </trkpt>
      <trkpt lat="42.72396" lon="1.6917">
        <ele>1799</ele>
        <time>2018-01-13T08:05:52Z</time>
      </trkpt>
      <trkpt lat="42.72381" lon="1.6918">
        <ele>1801</ele>
        <time>2018-01-13T08:06:09Z</time>
      </trkpt>
      <trkpt lat="42.72366" lon="1.69184">
        <ele>1802</ele>
        <time>2018-01-13T08:06:24Z</time>
      </trkpt>
      <trkpt lat="42.72361" lon="1.69186">
        <ele>1802</ele>
        <time>2018-01-13T08:06:29Z</time>
      </trkpt>
      <trkpt lat="42.7235" lon="1.69186">
        <ele>1802</ele>
        <time>2018-01-13T08:06:39Z</time>
      </trkpt>
      <trkpt lat="42.72335" lon="1.69183">
        <ele>1802</ele>
        <time>2018-01-13T08:06:54Z</time>
      </trkpt>
      <trkpt lat="42.72327" lon="1.69185">
        <ele>1804</ele>
        <time>2018-01-13T08:07:01Z</time>
      </trkpt>
      <trkpt lat="42.72325" lon="1.69186">
        <ele>1804</ele>
        <time>2018-01-13T08:07:03Z</time>
      </trkpt>
      <trkpt lat="42.72309" lon="1.69192">
        <ele>1806</ele>
        <time>2018-01-13T08:07:19Z</time>
      </trkpt>
      <trkpt lat="42.72307" lon="1.69193">
        <ele>1806</ele>
        <time>2018-01-13T08:07:21Z</time>
      </trkpt>
      <trkpt lat="42.72297" lon="1.69196">
        <ele>1806</ele>
        <time>2018-01-13T08:07:31Z</time>
      </trkpt>
      <trkpt lat="42.72295" lon="1.69197">
        <ele>1806</ele>
        <time>2018-01-13T08:07:33Z</time>
      </trkpt>
      <trkpt lat="42.72278" lon="1.69204">
        <ele>1807</ele>
        <time>2018-01-13T08:07:49Z</time>
      </trkpt>
      <trkpt lat="42.72276" lon="1.69204">
        <ele>1807</ele>
        <time>2018-01-13T08:07:51Z</time>
      </trkpt>
      <trkpt lat="42.72269" lon="1.69207">
        <ele>1807</ele>
        <time>2018-01-13T08:08:05Z</time>
      </trkpt>
      <trkpt lat="42.72266" lon="1.69205">
        <ele>1807</ele>
        <time>2018-01-13T08:08:30Z</time>
      </trkpt>
      <trkpt lat="42.72267" lon="1.69204">
        <ele>1807</ele>
        <time>2018-01-13T08:08:58Z</time>
      </trkpt>
      <trkpt lat="42.72268" lon="1.692">
        <ele>1806</ele>
        <time>2018-01-13T08:09:33Z</time>
      </trkpt>
      <trkpt lat="42.72265" lon="1.69201">
        <ele>1806</ele>
        <time>2018-01-13T08:09:37Z</time>
      </trkpt>
      <trkpt lat="42.72261" lon="1.69204">
        <ele>1807</ele>
        <time>2018-01-13T08:09:41Z</time>
      </trkpt>
      <trkpt lat="42.72253" lon="1.69212">
        <ele>1808</ele>
        <time>2018-01-13T08:09:50Z</time>
      </trkpt>
      <trkpt lat="42.72251" lon="1.69213">
        <ele>1808</ele>
        <time>2018-01-13T08:09:52Z</time>
      </trkpt>
      <trkpt lat="42.72249" lon="1.69214">
        <ele>1811</ele>
        <time>2018-01-13T08:09:54Z</time>
      </trkpt>
      <trkpt lat="42.72242" lon="1.69216">
        <ele>1811</ele>
        <time>2018-01-13T08:10:02Z</time>
      </trkpt>
      <trkpt lat="42.72238" lon="1.69217">
        <ele>1811</ele>
        <time>2018-01-13T08:10:07Z</time>
      </trkpt>
      <trkpt lat="42.72224" lon="1.6922">
        <ele>1812</ele>
        <time>2018-01-13T08:10:21Z</time>
      </trkpt>
      <trkpt lat="42.72212" lon="1.69223">
        <ele>1812</ele>
        <time>2018-01-13T08:10:35Z</time>
      </trkpt>
      <trkpt lat="42.722" lon="1.69228">
        <ele>1813</ele>
        <time>2018-01-13T08:10:48Z</time>
      </trkpt>
      <trkpt lat="42.72189" lon="1.69232">
        <ele>1814</ele>
        <time>2018-01-13T08:11:00Z</time>
      </trkpt>
      <trkpt lat="42.7218" lon="1.69233">
        <ele>1815</ele>
        <time>2018-01-13T08:11:11Z</time>
      </trkpt>
      <trkpt lat="42.72178" lon="1.69232">
        <ele>1815</ele>
        <time>2018-01-13T08:11:13Z</time>
      </trkpt>
      <trkpt lat="42.72169" lon="1.69232">
        <ele>1816</ele>
        <time>2018-01-13T08:11:23Z</time>
      </trkpt>
      <trkpt lat="42.72165" lon="1.69233">
        <ele>1821</ele>
        <time>2018-01-13T08:11:28Z</time>
      </trkpt>
      <trkpt lat="42.72158" lon="1.69231">
        <ele>1821</ele>
        <time>2018-01-13T08:11:38Z</time>
      </trkpt>
      <trkpt lat="42.72155" lon="1.6923">
        <ele>1821</ele>
        <time>2018-01-13T08:11:41Z</time>
      </trkpt>
      <trkpt lat="42.72153" lon="1.69229">
        <ele>1821</ele>
        <time>2018-01-13T08:11:43Z</time>
      </trkpt>
      <trkpt lat="42.72138" lon="1.69222">
        <ele>1821</ele>
        <time>2018-01-13T08:11:59Z</time>
      </trkpt>
      <trkpt lat="42.72128" lon="1.69214">
        <ele>1821</ele>
        <time>2018-01-13T08:12:09Z</time>
      </trkpt>
      <trkpt lat="42.72124" lon="1.69212">
        <ele>1821</ele>
        <time>2018-01-13T08:12:13Z</time>
      </trkpt>
      <trkpt lat="42.72121" lon="1.69212">
        <ele>1822</ele>
        <time>2018-01-13T08:12:16Z</time>
      </trkpt>
      <trkpt lat="42.72109" lon="1.69208">
        <ele>1822</ele>
        <time>2018-01-13T08:12:26Z</time>
      </trkpt>
      <trkpt lat="42.72104" lon="1.69206">
        <ele>1822</ele>
        <time>2018-01-13T08:12:31Z</time>
      </trkpt>
      <trkpt lat="42.72088" lon="1.69196">
        <ele>1822</ele>
        <time>2018-01-13T08:12:46Z</time>
      </trkpt>
      <trkpt lat="42.72074" lon="1.69189">
        <ele>1828</ele>
        <time>2018-01-13T08:12:59Z</time>
      </trkpt>
      <trkpt lat="42.72072" lon="1.69188">
        <ele>1828</ele>
        <time>2018-01-13T08:13:01Z</time>
      </trkpt>
      <trkpt lat="42.72067" lon="1.69184">
        <ele>1828</ele>
        <time>2018-01-13T08:13:06Z</time>
      </trkpt>
      <trkpt lat="42.72065" lon="1.69184">
        <ele>1828</ele>
        <time>2018-01-13T08:13:08Z</time>
      </trkpt>
      <trkpt lat="42.72061" lon="1.69181">
        <ele>1829</ele>
        <time>2018-01-13T08:13:12Z</time>
      </trkpt>
      <trkpt lat="42.72047" lon="1.69178">
        <ele>1830</ele>
        <time>2018-01-13T08:13:26Z</time>
      </trkpt>
      <trkpt lat="42.72041" lon="1.6918">
        <ele>1830</ele>
        <time>2018-01-13T08:13:33Z</time>
      </trkpt>
      <trkpt lat="42.72035" lon="1.69182">
        <ele>1831</ele>
        <time>2018-01-13T08:13:39Z</time>
      </trkpt>
      <trkpt lat="42.72021" lon="1.69187">
        <ele>1832</ele>
        <time>2018-01-13T08:13:53Z</time>
      </trkpt>
      <trkpt lat="42.7201" lon="1.69185">
        <ele>1832</ele>
        <time>2018-01-13T08:14:07Z</time>
      </trkpt>
      <trkpt lat="42.71995" lon="1.6918">
        <ele>1834</ele>
        <time>2018-01-13T08:14:24Z</time>
      </trkpt>
      <trkpt lat="42.7198" lon="1.6918">
        <ele>1836</ele>
        <time>2018-01-13T08:14:40Z</time>
      </trkpt>
      <trkpt lat="42.71963" lon="1.69176">
        <ele>1838</ele>
        <time>2018-01-13T08:14:57Z</time>
      </trkpt>
      <trkpt lat="42.71947" lon="1.69175">
        <ele>1838</ele>
        <time>2018-01-13T08:15:13Z</time>
      </trkpt>
      <trkpt lat="42.71931" lon="1.69179">
        <ele>1838</ele>
        <time>2018-01-13T08:15:28Z</time>
      </trkpt>
      <trkpt lat="42.71915" lon="1.69183">
        <ele>1839</ele>
        <time>2018-01-13T08:15:43Z</time>
      </trkpt>
      <trkpt lat="42.7191" lon="1.69181">
        <ele>1839</ele>
        <time>2018-01-13T08:15:48Z</time>
      </trkpt>
      <trkpt lat="42.71893" lon="1.69186">
        <ele>1841</ele>
        <time>2018-01-13T08:16:04Z</time>
      </trkpt>
      <trkpt lat="42.71885" lon="1.69188">
        <ele>1842</ele>
        <time>2018-01-13T08:16:11Z</time>
      </trkpt>
      <trkpt lat="42.71881" lon="1.6919">
        <ele>1842</ele>
        <time>2018-01-13T08:16:15Z</time>
      </trkpt>
      <trkpt lat="42.71876" lon="1.69193">
        <ele>1842</ele>
        <time>2018-01-13T08:16:20Z</time>
      </trkpt>
      <trkpt lat="42.71865" lon="1.69211">
        <ele>1844</ele>
        <time>2018-01-13T08:16:36Z</time>
      </trkpt>
      <trkpt lat="42.71862" lon="1.69216">
        <ele>1845</ele>
        <time>2018-01-13T08:16:41Z</time>
      </trkpt>
      <trkpt lat="42.7185" lon="1.69229">
        <ele>1846</ele>
        <time>2018-01-13T08:16:58Z</time>
      </trkpt>
      <trkpt lat="42.7184" lon="1.69241">
        <ele>1849</ele>
        <time>2018-01-13T08:17:12Z</time>
      </trkpt>
      <trkpt lat="42.71834" lon="1.69246">
        <ele>1851</ele>
        <time>2018-01-13T08:17:19Z</time>
      </trkpt>
      <trkpt lat="42.71821" lon="1.69247">
        <ele>1849</ele>
        <time>2018-01-13T08:17:32Z</time>
      </trkpt>
      <trkpt lat="42.71809" lon="1.69248">
        <ele>1847</ele>
        <time>2018-01-13T08:17:47Z</time>
      </trkpt>
      <trkpt lat="42.71796" lon="1.69256">
        <ele>1856</ele>
        <time>2018-01-13T08:18:03Z</time>
      </trkpt>
      <trkpt lat="42.71792" lon="1.69268">
        <ele>1856</ele>
        <time>2018-01-13T08:18:16Z</time>
      </trkpt>
      <trkpt lat="42.71794" lon="1.69284">
        <ele>1857</ele>
        <time>2018-01-13T08:18:31Z</time>
      </trkpt>
      <trkpt lat="42.71795" lon="1.69297">
        <ele>1858</ele>
        <time>2018-01-13T08:18:42Z</time>
      </trkpt>
      <trkpt lat="42.71797" lon="1.69314">
        <ele>1859</ele>
        <time>2018-01-13T08:18:57Z</time>
      </trkpt>
      <trkpt lat="42.71798" lon="1.69319">
        <ele>1860</ele>
        <time>2018-01-13T08:19:01Z</time>
      </trkpt>
      <trkpt lat="42.71802" lon="1.69335">
        <ele>1865</ele>
        <time>2018-01-13T08:19:15Z</time>
      </trkpt>
      <trkpt lat="42.71803" lon="1.6934">
        <ele>1865</ele>
        <time>2018-01-13T08:19:20Z</time>
      </trkpt>
      <trkpt lat="42.71804" lon="1.69354">
        <ele>1866</ele>
        <time>2018-01-13T08:19:32Z</time>
      </trkpt>
      <trkpt lat="42.71804" lon="1.69358">
        <ele>1866</ele>
        <time>2018-01-13T08:19:35Z</time>
      </trkpt>
      <trkpt lat="42.71804" lon="1.6938">
        <ele>1866</ele>
        <time>2018-01-13T08:19:52Z</time>
      </trkpt>
      <trkpt lat="42.71807" lon="1.69401">
        <ele>1867</ele>
        <time>2018-01-13T08:20:09Z</time>
      </trkpt>
      <trkpt lat="42.71812" lon="1.6942">
        <ele>1870</ele>
        <time>2018-01-13T08:20:25Z</time>
      </trkpt>
      <trkpt lat="42.71818" lon="1.69432">
        <ele>1870</ele>
        <time>2018-01-13T08:20:38Z</time>
      </trkpt>
      <trkpt lat="42.71821" lon="1.69437">
        <ele>1870</ele>
        <time>2018-01-13T08:20:42Z</time>
      </trkpt>
      <trkpt lat="42.7183" lon="1.69452">
        <ele>1870</ele>
        <time>2018-01-13T08:20:57Z</time>
      </trkpt>
      <trkpt lat="42.71833" lon="1.69458">
        <ele>1870</ele>
        <time>2018-01-13T08:21:02Z</time>
      </trkpt>
      <trkpt lat="42.71835" lon="1.69466">
        <ele>1874</ele>
        <time>2018-01-13T08:21:08Z</time>
      </trkpt>
      <trkpt lat="42.71836" lon="1.69473">
        <ele>1873</ele>
        <time>2018-01-13T08:21:13Z</time>
      </trkpt>
      <trkpt lat="42.71838" lon="1.6948">
        <ele>1873</ele>
        <time>2018-01-13T08:21:18Z</time>
      </trkpt>
      <trkpt lat="42.7184" lon="1.69495">
        <ele>1873</ele>
        <time>2018-01-13T08:21:29Z</time>
      </trkpt>
      <trkpt lat="42.71841" lon="1.69507">
        <ele>1874</ele>
        <time>2018-01-13T08:21:38Z</time>
      </trkpt>
      <trkpt lat="42.71842" lon="1.69517">
        <ele>1875</ele>
        <time>2018-01-13T08:21:45Z</time>
      </trkpt>
      <trkpt lat="42.71845" lon="1.69529">
        <ele>1877</ele>
        <time>2018-01-13T08:21:54Z</time>
      </trkpt>
      <trkpt lat="42.71845" lon="1.69536">
        <ele>1877</ele>
        <time>2018-01-13T08:21:59Z</time>
      </trkpt>
      <trkpt lat="42.71846" lon="1.69538">
        <ele>1877</ele>
        <time>2018-01-13T08:22:01Z</time>
      </trkpt>
      <trkpt lat="42.71847" lon="1.6955">
        <ele>1878</ele>
        <time>2018-01-13T08:22:10Z</time>
      </trkpt>
      <trkpt lat="42.71849" lon="1.69572">
        <ele>1878</ele>
        <time>2018-01-13T08:22:27Z</time>
      </trkpt>
      <trkpt lat="42.71849" lon="1.69591">
        <ele>1880</ele>
        <time>2018-01-13T08:22:41Z</time>
      </trkpt>
      <trkpt lat="42.71849" lon="1.69611">
        <ele>1880</ele>
        <time>2018-01-13T08:22:57Z</time>
      </trkpt>
      <trkpt lat="42.71849" lon="1.6962">
        <ele>1880</ele>
        <time>2018-01-13T08:23:05Z</time>
      </trkpt>
      <trkpt lat="42.71848" lon="1.69629">
        <ele>1880</ele>
        <time>2018-01-13T08:23:12Z</time>
      </trkpt>
      <trkpt lat="42.71847" lon="1.69639">
        <ele>1880</ele>
        <time>2018-01-13T08:23:19Z</time>
      </trkpt>
      <trkpt lat="42.71846" lon="1.69641">
        <ele>1880</ele>
        <time>2018-01-13T08:23:21Z</time>
      </trkpt>
      <trkpt lat="42.71844" lon="1.69663">
        <ele>1880</ele>
        <time>2018-01-13T08:23:37Z</time>
      </trkpt>
      <trkpt lat="42.71844" lon="1.69666">
        <ele>1880</ele>
        <time>2018-01-13T08:23:39Z</time>
      </trkpt>
      <trkpt lat="42.71843" lon="1.69669">
        <ele>1879</ele>
        <time>2018-01-13T08:23:41Z</time>
      </trkpt>
      <trkpt lat="42.7184" lon="1.69692">
        <ele>1878</ele>
        <time>2018-01-13T08:23:59Z</time>
      </trkpt>
      <trkpt lat="42.71839" lon="1.6971">
        <ele>1878</ele>
        <time>2018-01-13T08:24:14Z</time>
      </trkpt>
      <trkpt lat="42.71838" lon="1.69713">
        <ele>1878</ele>
        <time>2018-01-13T08:24:16Z</time>
      </trkpt>
      <trkpt lat="42.71838" lon="1.69715">
        <ele>1878</ele>
        <time>2018-01-13T08:24:18Z</time>
      </trkpt>
      <trkpt lat="42.71827" lon="1.6973">
        <ele>1877</ele>
        <time>2018-01-13T08:24:34Z</time>
      </trkpt>
      <trkpt lat="42.71816" lon="1.69743">
        <ele>1877</ele>
        <time>2018-01-13T08:24:50Z</time>
      </trkpt>
      <trkpt lat="42.71811" lon="1.6975">
        <ele>1877</ele>
        <time>2018-01-13T08:24:58Z</time>
      </trkpt>
      <trkpt lat="42.71807" lon="1.69755">
        <ele>1879</ele>
        <time>2018-01-13T08:25:14Z</time>
      </trkpt>
      <trkpt lat="42.71803" lon="1.69757">
        <ele>1879</ele>
        <time>2018-01-13T08:25:31Z</time>
      </trkpt>
      <trkpt lat="42.71807" lon="1.69759">
        <ele>1879</ele>
        <time>2018-01-13T08:25:47Z</time>
      </trkpt>
      <trkpt lat="42.71801" lon="1.69764">
        <ele>1879</ele>
        <time>2018-01-13T08:26:04Z</time>
      </trkpt>
      <trkpt lat="42.71794" lon="1.69776">
        <ele>1880</ele>
        <time>2018-01-13T08:26:17Z</time>
      </trkpt>
      <trkpt lat="42.71789" lon="1.69786">
        <ele>1880</ele>
        <time>2018-01-13T08:26:27Z</time>
      </trkpt>
      <trkpt lat="42.71784" lon="1.69806">
        <ele>1881</ele>
        <time>2018-01-13T08:26:44Z</time>
      </trkpt>
      <trkpt lat="42.71781" lon="1.69825">
        <ele>1882</ele>
        <time>2018-01-13T08:27:00Z</time>
      </trkpt>
      <trkpt lat="42.71776" lon="1.69845">
        <ele>1886</ele>
        <time>2018-01-13T08:27:20Z</time>
      </trkpt>
      <trkpt lat="42.71773" lon="1.69862">
        <ele>1887</ele>
        <time>2018-01-13T08:27:37Z</time>
      </trkpt>
      <trkpt lat="42.71768" lon="1.69882">
        <ele>1889</ele>
        <time>2018-01-13T08:27:56Z</time>
      </trkpt>
      <trkpt lat="42.71765" lon="1.69902">
        <ele>1893</ele>
        <time>2018-01-13T08:28:14Z</time>
      </trkpt>
      <trkpt lat="42.71764" lon="1.69921">
        <ele>1898</ele>
        <time>2018-01-13T08:28:31Z</time>
      </trkpt>
      <trkpt lat="42.71763" lon="1.69939">
        <ele>1897</ele>
        <time>2018-01-13T08:28:47Z</time>
      </trkpt>
      <trkpt lat="42.7176" lon="1.69959">
        <ele>1898</ele>
        <time>2018-01-13T08:29:06Z</time>
      </trkpt>
      <trkpt lat="42.71759" lon="1.69976">
        <ele>1899</ele>
        <time>2018-01-13T08:29:22Z</time>
      </trkpt>
      <trkpt lat="42.71757" lon="1.69993">
        <ele>1903</ele>
        <time>2018-01-13T08:29:38Z</time>
      </trkpt>
      <trkpt lat="42.71754" lon="1.70009">
        <ele>1904</ele>
        <time>2018-01-13T08:29:55Z</time>
      </trkpt>
      <trkpt lat="42.71749" lon="1.70027">
        <ele>1912</ele>
        <time>2018-01-13T08:30:13Z</time>
      </trkpt>
      <trkpt lat="42.71744" lon="1.70044">
        <ele>1913</ele>
        <time>2018-01-13T08:30:33Z</time>
      </trkpt>
      <trkpt lat="42.71736" lon="1.70062">
        <ele>1914</ele>
        <time>2018-01-13T08:30:52Z</time>
      </trkpt>
      <trkpt lat="42.71729" lon="1.70072">
        <ele>1914</ele>
        <time>2018-01-13T08:31:05Z</time>
      </trkpt>
      <trkpt lat="42.71721" lon="1.70082">
        <ele>1915</ele>
        <time>2018-01-13T08:31:18Z</time>
      </trkpt>
      <trkpt lat="42.7172" lon="1.70084">
        <ele>1915</ele>
        <time>2018-01-13T08:31:20Z</time>
      </trkpt>
      <trkpt lat="42.71709" lon="1.70093">
        <ele>1917</ele>
        <time>2018-01-13T08:31:37Z</time>
      </trkpt>
      <trkpt lat="42.71703" lon="1.70099">
        <ele>1917</ele>
        <time>2018-01-13T08:31:51Z</time>
      </trkpt>
      <trkpt lat="42.71694" lon="1.70107">
        <ele>1918</ele>
        <time>2018-01-13T08:32:07Z</time>
      </trkpt>
      <trkpt lat="42.71686" lon="1.70114">
        <ele>1918</ele>
        <time>2018-01-13T08:32:24Z</time>
      </trkpt>
      <trkpt lat="42.71672" lon="1.70125">
        <ele>1919</ele>
        <time>2018-01-13T08:32:42Z</time>
      </trkpt>
      <trkpt lat="42.7166" lon="1.70134">
        <ele>1925</ele>
        <time>2018-01-13T08:32:57Z</time>
      </trkpt>
      <trkpt lat="42.71652" lon="1.7014">
        <ele>1925</ele>
        <time>2018-01-13T08:33:06Z</time>
      </trkpt>
      <trkpt lat="42.7165" lon="1.70142">
        <ele>1925</ele>
        <time>2018-01-13T08:33:08Z</time>
      </trkpt>
      <trkpt lat="42.71648" lon="1.70143">
        <ele>1925</ele>
        <time>2018-01-13T08:33:10Z</time>
      </trkpt>
      <trkpt lat="42.71644" lon="1.70146">
        <ele>1925</ele>
        <time>2018-01-13T08:33:14Z</time>
      </trkpt>
      <trkpt lat="42.71631" lon="1.70155">
        <ele>1925</ele>
        <time>2018-01-13T08:33:29Z</time>
      </trkpt>
      <trkpt lat="42.71626" lon="1.70157">
        <ele>1925</ele>
        <time>2018-01-13T08:33:34Z</time>
      </trkpt>
      <trkpt lat="42.71612" lon="1.70166">
        <ele>1926</ele>
        <time>2018-01-13T08:33:50Z</time>
      </trkpt>
      <trkpt lat="42.71604" lon="1.70172">
        <ele>1924</ele>
        <time>2018-01-13T08:34:05Z</time>
      </trkpt>
      <trkpt lat="42.71602" lon="1.70183">
        <ele>1924</ele>
        <time>2018-01-13T08:34:18Z</time>
      </trkpt>
      <trkpt lat="42.71599" lon="1.70199">
        <ele>1924</ele>
        <time>2018-01-13T08:34:33Z</time>
      </trkpt>
      <trkpt lat="42.71597" lon="1.70208">
        <ele>1924</ele>
        <time>2018-01-13T08:34:41Z</time>
      </trkpt>
      <trkpt lat="42.71595" lon="1.70231">
        <ele>1924</ele>
        <time>2018-01-13T08:34:59Z</time>
      </trkpt>
      <trkpt lat="42.71596" lon="1.70236">
        <ele>1924</ele>
        <time>2018-01-13T08:35:03Z</time>
      </trkpt>
      <trkpt lat="42.71592" lon="1.70248">
        <ele>1924</ele>
        <time>2018-01-13T08:35:13Z</time>
      </trkpt>
      <trkpt lat="42.71591" lon="1.70249">
        <ele>1924</ele>
        <time>2018-01-13T08:35:15Z</time>
      </trkpt>
      <trkpt lat="42.71586" lon="1.70266">
        <ele>1925</ele>
        <time>2018-01-13T08:35:32Z</time>
      </trkpt>
      <trkpt lat="42.71583" lon="1.70279">
        <ele>1925</ele>
        <time>2018-01-13T08:35:45Z</time>
      </trkpt>
      <trkpt lat="42.7158" lon="1.70296">
        <ele>1927</ele>
        <time>2018-01-13T08:36:04Z</time>
      </trkpt>
      <trkpt lat="42.71574" lon="1.70314">
        <ele>1928</ele>
        <time>2018-01-13T08:36:24Z</time>
      </trkpt>
      <trkpt lat="42.71569" lon="1.70331">
        <ele>1929</ele>
        <time>2018-01-13T08:36:44Z</time>
      </trkpt>
      <trkpt lat="42.71564" lon="1.70346">
        <ele>1932</ele>
        <time>2018-01-13T08:37:02Z</time>
      </trkpt>
      <trkpt lat="42.7156" lon="1.70366">
        <ele>1932</ele>
        <time>2018-01-13T08:37:24Z</time>
      </trkpt>
      <trkpt lat="42.71558" lon="1.70382">
        <ele>1933</ele>
        <time>2018-01-13T08:37:40Z</time>
      </trkpt>
      <trkpt lat="42.71556" lon="1.70401">
        <ele>1934</ele>
        <time>2018-01-13T08:37:58Z</time>
      </trkpt>
      <trkpt lat="42.71552" lon="1.7042">
        <ele>1936</ele>
        <time>2018-01-13T08:38:18Z</time>
      </trkpt>
      <trkpt lat="42.71549" lon="1.70442">
        <ele>1936</ele>
        <time>2018-01-13T08:38:38Z</time>
      </trkpt>
      <trkpt lat="42.71547" lon="1.70451">
        <ele>1936</ele>
        <time>2018-01-13T08:38:48Z</time>
      </trkpt>
      <trkpt lat="42.71544" lon="1.7047">
        <ele>1936</ele>
        <time>2018-01-13T08:39:06Z</time>
      </trkpt>
      <trkpt lat="42.71543" lon="1.70472">
        <ele>1936</ele>
        <time>2018-01-13T08:39:07Z</time>
      </trkpt>
      <trkpt lat="42.71542" lon="1.70485">
        <ele>1936</ele>
        <time>2018-01-13T08:39:19Z</time>
      </trkpt>
      <trkpt lat="42.71543" lon="1.70508">
        <ele>1934</ele>
        <time>2018-01-13T08:39:39Z</time>
      </trkpt>
      <trkpt lat="42.71546" lon="1.70526">
        <ele>1933</ele>
        <time>2018-01-13T08:39:54Z</time>
      </trkpt>
      <trkpt lat="42.71546" lon="1.70531">
        <ele>1933</ele>
        <time>2018-01-13T08:39:58Z</time>
      </trkpt>
      <trkpt lat="42.71549" lon="1.70547">
        <ele>1932</ele>
        <time>2018-01-13T08:40:15Z</time>
      </trkpt>
      <trkpt lat="42.71546" lon="1.70549">
        <ele>1933</ele>
        <time>2018-01-13T08:40:32Z</time>
      </trkpt>
      <trkpt lat="42.71544" lon="1.70548">
        <ele>1933</ele>
        <time>2018-01-13T08:40:49Z</time>
      </trkpt>
      <trkpt lat="42.71539" lon="1.70545">
        <ele>1933</ele>
        <time>2018-01-13T08:41:09Z</time>
      </trkpt>
      <trkpt lat="42.71538" lon="1.70544">
        <ele>1933</ele>
        <time>2018-01-13T08:41:31Z</time>
      </trkpt>
      <trkpt lat="42.71538" lon="1.70543">
        <ele>1933</ele>
        <time>2018-01-13T08:41:53Z</time>
      </trkpt>
      <trkpt lat="42.71539" lon="1.70544">
        <ele>1933</ele>
        <time>2018-01-13T08:42:12Z</time>
      </trkpt>
      <trkpt lat="42.7154" lon="1.70546">
        <ele>1933</ele>
        <time>2018-01-13T08:42:37Z</time>
      </trkpt>
      <trkpt lat="42.7154" lon="1.70544">
        <ele>1933</ele>
        <time>2018-01-13T08:43:00Z</time>
      </trkpt>
      <trkpt lat="42.7154" lon="1.70543">
        <ele>1933</ele>
        <time>2018-01-13T08:43:28Z</time>
      </trkpt>
      <trkpt lat="42.71541" lon="1.70543">
        <ele>1933</ele>
        <time>2018-01-13T08:43:54Z</time>
      </trkpt>
      <trkpt lat="42.71542" lon="1.70544">
        <ele>1933</ele>
        <time>2018-01-13T08:44:23Z</time>
      </trkpt>
      <trkpt lat="42.71542" lon="1.70543">
        <ele>1933</ele>
        <time>2018-01-13T08:44:42Z</time>
      </trkpt>
      <trkpt lat="42.71541" lon="1.70541">
        <ele>1933</ele>
        <time>2018-01-13T08:45:05Z</time>
      </trkpt>
      <trkpt lat="42.71538" lon="1.70541">
        <ele>1933</ele>
        <time>2018-01-13T08:45:32Z</time>
      </trkpt>
      <trkpt lat="42.71534" lon="1.70542">
        <ele>1933</ele>
        <time>2018-01-13T08:46:17Z</time>
      </trkpt>
      <trkpt lat="42.71535" lon="1.70541">
        <ele>1933</ele>
        <time>2018-01-13T08:46:55Z</time>
      </trkpt>
      <trkpt lat="42.71534" lon="1.70546">
        <ele>1933</ele>
        <time>2018-01-13T08:47:18Z</time>
      </trkpt>
      <trkpt lat="42.71538" lon="1.70546">
        <ele>1933</ele>
        <time>2018-01-13T08:47:46Z</time>
      </trkpt>
      <trkpt lat="42.71538" lon="1.70549">
        <ele>1933</ele>
        <time>2018-01-13T08:48:03Z</time>
      </trkpt>
      <trkpt lat="42.71537" lon="1.7055">
        <ele>1933</ele>
        <time>2018-01-13T08:48:29Z</time>
      </trkpt>
      <trkpt lat="42.71538" lon="1.70548">
        <ele>1933</ele>
        <time>2018-01-13T08:49:02Z</time>
      </trkpt>
      <trkpt lat="42.71535" lon="1.70547">
        <ele>1933</ele>
        <time>2018-01-13T08:49:18Z</time>
      </trkpt>
      <trkpt lat="42.71537" lon="1.70548">
        <ele>1933</ele>
        <time>2018-01-13T08:49:47Z</time>
      </trkpt>
      <trkpt lat="42.71536" lon="1.70547">
        <ele>1933</ele>
        <time>2018-01-13T08:50:14Z</time>
      </trkpt>
      <trkpt lat="42.71536" lon="1.70548">
        <ele>1933</ele>
        <time>2018-01-13T08:50:38Z</time>
      </trkpt>
      <trkpt lat="42.71535" lon="1.70548">
        <ele>1933</ele>
        <time>2018-01-13T08:51:00Z</time>
      </trkpt>
      <trkpt lat="42.71534" lon="1.70548">
        <ele>1933</ele>
        <time>2018-01-13T08:51:36Z</time>
      </trkpt>
      <trkpt lat="42.7153" lon="1.7055">
        <ele>1933</ele>
        <time>2018-01-13T08:51:46Z</time>
      </trkpt>
      <trkpt lat="42.71519" lon="1.7055">
        <ele>1934</ele>
        <time>2018-01-13T08:52:01Z</time>
      </trkpt>
      <trkpt lat="42.71507" lon="1.70549">
        <ele>1934</ele>
        <time>2018-01-13T08:52:15Z</time>
      </trkpt>
      <trkpt lat="42.71499" lon="1.70553">
        <ele>1936</ele>
        <time>2018-01-13T08:52:23Z</time>
      </trkpt>
      <trkpt lat="42.71489" lon="1.70555">
        <ele>1936</ele>
        <time>2018-01-13T08:52:37Z</time>
      </trkpt>
      <trkpt lat="42.71486" lon="1.70555">
        <ele>1936</ele>
        <time>2018-01-13T08:52:41Z</time>
      </trkpt>
      <trkpt lat="42.71475" lon="1.70566">
        <ele>1936</ele>
        <time>2018-01-13T08:52:55Z</time>
      </trkpt>
      <trkpt lat="42.71464" lon="1.70578">
        <ele>1936</ele>
        <time>2018-01-13T08:53:11Z</time>
      </trkpt>
      <trkpt lat="42.71457" lon="1.70584">
        <ele>1936</ele>
        <time>2018-01-13T08:53:22Z</time>
      </trkpt>
      <trkpt lat="42.71454" lon="1.70585">
        <ele>1936</ele>
        <time>2018-01-13T08:53:25Z</time>
      </trkpt>
      <trkpt lat="42.71443" lon="1.70587">
        <ele>1937</ele>
        <time>2018-01-13T08:53:37Z</time>
      </trkpt>
      <trkpt lat="42.71425" lon="1.70593">
        <ele>1938</ele>
        <time>2018-01-13T08:53:57Z</time>
      </trkpt>
      <trkpt lat="42.71408" lon="1.70598">
        <ele>1941</ele>
        <time>2018-01-13T08:54:14Z</time>
      </trkpt>
      <trkpt lat="42.71393" lon="1.70606">
        <ele>1942</ele>
        <time>2018-01-13T08:54:31Z</time>
      </trkpt>
      <trkpt lat="42.71379" lon="1.70613">
        <ele>1942</ele>
        <time>2018-01-13T08:54:47Z</time>
      </trkpt>
      <trkpt lat="42.71375" lon="1.70615">
        <ele>1943</ele>
        <time>2018-01-13T08:54:52Z</time>
      </trkpt>
      <trkpt lat="42.71363" lon="1.70621">
        <ele>1943</ele>
        <time>2018-01-13T08:55:07Z</time>
      </trkpt>
      <trkpt lat="42.7135" lon="1.70626">
        <ele>1944</ele>
        <time>2018-01-13T08:55:22Z</time>
      </trkpt>
      <trkpt lat="42.71334" lon="1.70637">
        <ele>1944</ele>
        <time>2018-01-13T08:55:40Z</time>
      </trkpt>
      <trkpt lat="42.71319" lon="1.70644">
        <ele>1948</ele>
        <time>2018-01-13T08:55:56Z</time>
      </trkpt>
      <trkpt lat="42.71302" lon="1.70651">
        <ele>1948</ele>
        <time>2018-01-13T08:56:13Z</time>
      </trkpt>
      <trkpt lat="42.71284" lon="1.70656">
        <ele>1949</ele>
        <time>2018-01-13T08:56:30Z</time>
      </trkpt>
      <trkpt lat="42.71267" lon="1.70658">
        <ele>1950</ele>
        <time>2018-01-13T08:56:47Z</time>
      </trkpt>
      <trkpt lat="42.71249" lon="1.70662">
        <ele>1952</ele>
        <time>2018-01-13T08:57:04Z</time>
      </trkpt>
      <trkpt lat="42.71239" lon="1.70663">
        <ele>1952</ele>
        <time>2018-01-13T08:57:14Z</time>
      </trkpt>
      <trkpt lat="42.71226" lon="1.70664">
        <ele>1951</ele>
        <time>2018-01-13T08:57:27Z</time>
      </trkpt>
      <trkpt lat="42.71222" lon="1.70665">
        <ele>1951</ele>
        <time>2018-01-13T08:57:31Z</time>
      </trkpt>
      <trkpt lat="42.71207" lon="1.70665">
        <ele>1952</ele>
        <time>2018-01-13T08:57:45Z</time>
      </trkpt>
      <trkpt lat="42.71203" lon="1.70666">
        <ele>1952</ele>
        <time>2018-01-13T08:57:50Z</time>
      </trkpt>
      <trkpt lat="42.71192" lon="1.70667">
        <ele>1953</ele>
        <time>2018-01-13T08:58:01Z</time>
      </trkpt>
      <trkpt lat="42.71189" lon="1.70667">
        <ele>1952</ele>
        <time>2018-01-13T08:58:03Z</time>
      </trkpt>
      <trkpt lat="42.71187" lon="1.70667">
        <ele>1953</ele>
        <time>2018-01-13T08:58:05Z</time>
      </trkpt>
      <trkpt lat="42.71169" lon="1.70667">
        <ele>1954</ele>
        <time>2018-01-13T08:58:23Z</time>
      </trkpt>
      <trkpt lat="42.71167" lon="1.70666">
        <ele>1954</ele>
        <time>2018-01-13T08:58:25Z</time>
      </trkpt>
      <trkpt lat="42.71164" lon="1.70667">
        <ele>1954</ele>
        <time>2018-01-13T08:58:27Z</time>
      </trkpt>
      <trkpt lat="42.71149" lon="1.70667">
        <ele>1954</ele>
        <time>2018-01-13T08:58:42Z</time>
      </trkpt>
      <trkpt lat="42.71135" lon="1.70667">
        <ele>1954</ele>
        <time>2018-01-13T08:58:57Z</time>
      </trkpt>
      <trkpt lat="42.7112" lon="1.70669">
        <ele>1955</ele>
        <time>2018-01-13T08:59:14Z</time>
      </trkpt>
      <trkpt lat="42.71102" lon="1.70669">
        <ele>1955</ele>
        <time>2018-01-13T08:59:32Z</time>
      </trkpt>
      <trkpt lat="42.71086" lon="1.70666">
        <ele>1955</ele>
        <time>2018-01-13T08:59:51Z</time>
      </trkpt>
      <trkpt lat="42.71079" lon="1.70665">
        <ele>1955</ele>
        <time>2018-01-13T09:00:06Z</time>
      </trkpt>
      <trkpt lat="42.71071" lon="1.70663">
        <ele>1955</ele>
        <time>2018-01-13T09:00:21Z</time>
      </trkpt>
      <trkpt lat="42.71071" lon="1.70661">
        <ele>1954</ele>
        <time>2018-01-13T09:00:49Z</time>
      </trkpt>
      <trkpt lat="42.7107" lon="1.70661">
        <ele>1954</ele>
        <time>2018-01-13T09:01:19Z</time>
      </trkpt>
      <trkpt lat="42.71073" lon="1.70664">
        <ele>1955</ele>
        <time>2018-01-13T09:01:42Z</time>
      </trkpt>
      <trkpt lat="42.71073" lon="1.70664">
        <ele>1955</ele>
        <time>2018-01-13T09:02:11Z</time>
      </trkpt>
      <trkpt lat="42.71067" lon="1.70661">
        <ele>1954</ele>
        <time>2018-01-13T09:02:31Z</time>
      </trkpt>
      <trkpt lat="42.71069" lon="1.70662">
        <ele>1954</ele>
        <time>2018-01-13T09:02:44Z</time>
      </trkpt>
      <trkpt lat="42.7107" lon="1.70662">
        <ele>1954</ele>
        <time>2018-01-13T09:03:02Z</time>
      </trkpt>
      <trkpt lat="42.71069" lon="1.70661">
        <ele>1954</ele>
        <time>2018-01-13T09:03:29Z</time>
      </trkpt>
      <trkpt lat="42.71067" lon="1.70662">
        <ele>1954</ele>
        <time>2018-01-13T09:03:46Z</time>
      </trkpt>
      <trkpt lat="42.71061" lon="1.70659">
        <ele>1954</ele>
        <time>2018-01-13T09:04:02Z</time>
      </trkpt>
      <trkpt lat="42.71062" lon="1.70659">
        <ele>1954</ele>
        <time>2018-01-13T09:04:24Z</time>
      </trkpt>
      <trkpt lat="42.71061" lon="1.7066">
        <ele>1954</ele>
        <time>2018-01-13T09:04:40Z</time>
      </trkpt>
      <trkpt lat="42.71061" lon="1.70658">
        <ele>1954</ele>
        <time>2018-01-13T09:05:07Z</time>
      </trkpt>
      <trkpt lat="42.71061" lon="1.70659">
        <ele>1954</ele>
        <time>2018-01-13T09:05:33Z</time>
      </trkpt>
      <trkpt lat="42.7106" lon="1.70659">
        <ele>1954</ele>
        <time>2018-01-13T09:06:03Z</time>
      </trkpt>
      <trkpt lat="42.7106" lon="1.70658">
        <ele>1954</ele>
        <time>2018-01-13T09:06:28Z</time>
      </trkpt>
      <trkpt lat="42.71061" lon="1.70661">
        <ele>1954</ele>
        <time>2018-01-13T09:06:57Z</time>
      </trkpt>
      <trkpt lat="42.71059" lon="1.70659">
        <ele>1954</ele>
        <time>2018-01-13T09:07:25Z</time>
      </trkpt>
      <trkpt lat="42.71057" lon="1.70659">
        <ele>1954</ele>
        <time>2018-01-13T09:07:40Z</time>
      </trkpt>
      <trkpt lat="42.71053" lon="1.70661">
        <ele>1954</ele>
        <time>2018-01-13T09:07:46Z</time>
      </trkpt>
      <trkpt lat="42.71046" lon="1.70669">
        <ele>1951</ele>
        <time>2018-01-13T09:08:03Z</time>
      </trkpt>
      <trkpt lat="42.71042" lon="1.70676">
        <ele>1951</ele>
        <time>2018-01-13T09:08:21Z</time>
      </trkpt>
      <trkpt lat="42.71042" lon="1.70677">
        <ele>1951</ele>
        <time>2018-01-13T09:08:22Z</time>
      </trkpt>
      <trkpt lat="42.71037" lon="1.70686">
        <ele>1951</ele>
        <time>2018-01-13T09:08:32Z</time>
      </trkpt>
      <trkpt lat="42.7103" lon="1.70705">
        <ele>1950</ele>
        <time>2018-01-13T09:08:48Z</time>
      </trkpt>
      <trkpt lat="42.71026" lon="1.70716">
        <ele>1950</ele>
        <time>2018-01-13T09:09:03Z</time>
      </trkpt>
      <trkpt lat="42.71025" lon="1.70718">
        <ele>1950</ele>
        <time>2018-01-13T09:09:05Z</time>
      </trkpt>
      <trkpt lat="42.71015" lon="1.70742">
        <ele>1948</ele>
        <time>2018-01-13T09:09:23Z</time>
      </trkpt>
      <trkpt lat="42.71014" lon="1.70744">
        <ele>1948</ele>
        <time>2018-01-13T09:09:25Z</time>
      </trkpt>
      <trkpt lat="42.71014" lon="1.70749">
        <ele>1948</ele>
        <time>2018-01-13T09:09:42Z</time>
      </trkpt>
      <trkpt lat="42.71009" lon="1.70755">
        <ele>1947</ele>
        <time>2018-01-13T09:10:04Z</time>
      </trkpt>
      <trkpt lat="42.71001" lon="1.70769">
        <ele>1947</ele>
        <time>2018-01-13T09:10:19Z</time>
      </trkpt>
      <trkpt lat="42.70995" lon="1.70781">
        <ele>1944</ele>
        <time>2018-01-13T09:10:29Z</time>
      </trkpt>
      <trkpt lat="42.70983" lon="1.70802">
        <ele>1943</ele>
        <time>2018-01-13T09:10:48Z</time>
      </trkpt>
      <trkpt lat="42.7098" lon="1.70808">
        <ele>1943</ele>
        <time>2018-01-13T09:10:53Z</time>
      </trkpt>
      <trkpt lat="42.70968" lon="1.70827">
        <ele>1943</ele>
        <time>2018-01-13T09:11:10Z</time>
      </trkpt>
      <trkpt lat="42.70967" lon="1.7083">
        <ele>1943</ele>
        <time>2018-01-13T09:11:12Z</time>
      </trkpt>
      <trkpt lat="42.70954" lon="1.70848">
        <ele>1941</ele>
        <time>2018-01-13T09:11:29Z</time>
      </trkpt>
      <trkpt lat="42.70946" lon="1.70858">
        <ele>1941</ele>
        <time>2018-01-13T09:11:39Z</time>
      </trkpt>
      <trkpt lat="42.70937" lon="1.70867">
        <ele>1941</ele>
        <time>2018-01-13T09:11:49Z</time>
      </trkpt>
      <trkpt lat="42.70933" lon="1.7087">
        <ele>1941</ele>
        <time>2018-01-13T09:11:53Z</time>
      </trkpt>
      <trkpt lat="42.70918" lon="1.70885">
        <ele>1940</ele>
        <time>2018-01-13T09:12:10Z</time>
      </trkpt>
      <trkpt lat="42.70909" lon="1.70889">
        <ele>1937</ele>
        <time>2018-01-13T09:12:25Z</time>
      </trkpt>
      <trkpt lat="42.70901" lon="1.70894">
        <ele>1936</ele>
        <time>2018-01-13T09:12:33Z</time>
      </trkpt>
      <trkpt lat="42.70889" lon="1.70895">
        <ele>1936</ele>
        <time>2018-01-13T09:12:44Z</time>
      </trkpt>
      <trkpt lat="42.70884" lon="1.70895">
        <ele>1936</ele>
        <time>2018-01-13T09:12:49Z</time>
      </trkpt>
      <trkpt lat="42.70864" lon="1.70891">
        <ele>1935</ele>
        <time>2018-01-13T09:13:08Z</time>
      </trkpt>
      <trkpt lat="42.70848" lon="1.70887">
        <ele>1935</ele>
        <time>2018-01-13T09:13:23Z</time>
      </trkpt>
      <trkpt lat="42.70832" lon="1.70885">
        <ele>1933</ele>
        <time>2018-01-13T09:13:38Z</time>
      </trkpt>
      <trkpt lat="42.70818" lon="1.70883">
        <ele>1933</ele>
        <time>2018-01-13T09:13:50Z</time>
      </trkpt>
      <trkpt lat="42.70807" lon="1.70879">
        <ele>1933</ele>
        <time>2018-01-13T09:14:00Z</time>
      </trkpt>
      <trkpt lat="42.70787" lon="1.70875">
        <ele>1933</ele>
        <time>2018-01-13T09:14:18Z</time>
      </trkpt>
      <trkpt lat="42.70777" lon="1.70873">
        <ele>1933</ele>
        <time>2018-01-13T09:14:26Z</time>
      </trkpt>
      <trkpt lat="42.70775" lon="1.70873">
        <ele>1933</ele>
        <time>2018-01-13T09:14:28Z</time>
      </trkpt>
      <trkpt lat="42.70771" lon="1.70872">
        <ele>1933</ele>
        <time>2018-01-13T09:14:32Z</time>
      </trkpt>
      <trkpt lat="42.70757" lon="1.7087">
        <ele>1933</ele>
        <time>2018-01-13T09:14:44Z</time>
      </trkpt>
      <trkpt lat="42.70751" lon="1.7087">
        <ele>1933</ele>
        <time>2018-01-13T09:14:49Z</time>
      </trkpt>
      <trkpt lat="42.70747" lon="1.7087">
        <ele>1932</ele>
        <time>2018-01-13T09:14:54Z</time>
      </trkpt>
      <trkpt lat="42.70731" lon="1.70874">
        <ele>1931</ele>
        <time>2018-01-13T09:15:10Z</time>
      </trkpt>
      <trkpt lat="42.70729" lon="1.70874">
        <ele>1931</ele>
        <time>2018-01-13T09:15:12Z</time>
      </trkpt>
      <trkpt lat="42.70724" lon="1.70877">
        <ele>1931</ele>
        <time>2018-01-13T09:15:17Z</time>
      </trkpt>
      <trkpt lat="42.70723" lon="1.70877">
        <ele>1931</ele>
        <time>2018-01-13T09:15:19Z</time>
      </trkpt>
      <trkpt lat="42.70721" lon="1.70878">
        <ele>1931</ele>
        <time>2018-01-13T09:15:21Z</time>
      </trkpt>
      <trkpt lat="42.70707" lon="1.7089">
        <ele>1931</ele>
        <time>2018-01-13T09:15:36Z</time>
      </trkpt>
      <trkpt lat="42.70694" lon="1.709">
        <ele>1932</ele>
        <time>2018-01-13T09:15:49Z</time>
      </trkpt>
      <trkpt lat="42.70679" lon="1.70912">
        <ele>1932</ele>
        <time>2018-01-13T09:16:05Z</time>
      </trkpt>
      <trkpt lat="42.70662" lon="1.70924">
        <ele>1932</ele>
        <time>2018-01-13T09:16:21Z</time>
      </trkpt>
      <trkpt lat="42.70643" lon="1.70939">
        <ele>1930</ele>
        <time>2018-01-13T09:16:39Z</time>
      </trkpt>
      <trkpt lat="42.70628" lon="1.70952">
        <ele>1930</ele>
        <time>2018-01-13T09:16:55Z</time>
      </trkpt>
      <trkpt lat="42.7061" lon="1.70966">
        <ele>1930</ele>
        <time>2018-01-13T09:17:13Z</time>
      </trkpt>
      <trkpt lat="42.70593" lon="1.70974">
        <ele>1930</ele>
        <time>2018-01-13T09:17:30Z</time>
      </trkpt>
      <trkpt lat="42.70585" lon="1.70975">
        <ele>1931</ele>
        <time>2018-01-13T09:17:38Z</time>
      </trkpt>
      <trkpt lat="42.70577" lon="1.70975">
        <ele>1933</ele>
        <time>2018-01-13T09:17:46Z</time>
      </trkpt>
      <trkpt lat="42.70562" lon="1.70972">
        <ele>1934</ele>
        <time>2018-01-13T09:18:02Z</time>
      </trkpt>
      <trkpt lat="42.7055" lon="1.70969">
        <ele>1934</ele>
        <time>2018-01-13T09:18:15Z</time>
      </trkpt>
      <trkpt lat="42.70536" lon="1.70965">
        <ele>1935</ele>
        <time>2018-01-13T09:18:31Z</time>
      </trkpt>
      <trkpt lat="42.70521" lon="1.70962">
        <ele>1935</ele>
        <time>2018-01-13T09:18:48Z</time>
      </trkpt>
      <trkpt lat="42.70506" lon="1.70961">
        <ele>1936</ele>
        <time>2018-01-13T09:19:07Z</time>
      </trkpt>
      <trkpt lat="42.70495" lon="1.7096">
        <ele>1943</ele>
        <time>2018-01-13T09:19:23Z</time>
      </trkpt>
      <trkpt lat="42.70484" lon="1.70962">
        <ele>1944</ele>
        <time>2018-01-13T09:19:40Z</time>
      </trkpt>
      <trkpt lat="42.7047" lon="1.7096">
        <ele>1944</ele>
        <time>2018-01-13T09:19:59Z</time>
      </trkpt>
      <trkpt lat="42.70458" lon="1.70961">
        <ele>1945</ele>
        <time>2018-01-13T09:20:14Z</time>
      </trkpt>
      <trkpt lat="42.70447" lon="1.70961">
        <ele>1946</ele>
        <time>2018-01-13T09:20:29Z</time>
      </trkpt>
      <trkpt lat="42.70433" lon="1.7096">
        <ele>1947</ele>
        <time>2018-01-13T09:20:48Z</time>
      </trkpt>
      <trkpt lat="42.70423" lon="1.70962">
        <ele>1948</ele>
        <time>2018-01-13T09:21:00Z</time>
      </trkpt>
      <trkpt lat="42.7041" lon="1.70964">
        <ele>1953</ele>
        <time>2018-01-13T09:21:15Z</time>
      </trkpt>
      <trkpt lat="42.704" lon="1.70965">
        <ele>1953</ele>
        <time>2018-01-13T09:21:30Z</time>
      </trkpt>
      <trkpt lat="42.70387" lon="1.70968">
        <ele>1954</ele>
        <time>2018-01-13T09:21:45Z</time>
      </trkpt>
      <trkpt lat="42.70373" lon="1.70973">
        <ele>1954</ele>
        <time>2018-01-13T09:22:02Z</time>
      </trkpt>
      <trkpt lat="42.70361" lon="1.70979">
        <ele>1955</ele>
        <time>2018-01-13T09:22:17Z</time>
      </trkpt>
      <trkpt lat="42.70361" lon="1.7098">
        <ele>1955</ele>
        <time>2018-01-13T09:22:18Z</time>
      </trkpt>
      <trkpt lat="42.70357" lon="1.70981">
        <ele>1955</ele>
        <time>2018-01-13T09:22:22Z</time>
      </trkpt>
      <trkpt lat="42.70351" lon="1.70986">
        <ele>1956</ele>
        <time>2018-01-13T09:22:29Z</time>
      </trkpt>
      <trkpt lat="42.70344" lon="1.70993">
        <ele>1957</ele>
        <time>2018-01-13T09:22:39Z</time>
      </trkpt>
      <trkpt lat="42.70332" lon="1.71005">
        <ele>1959</ele>
        <time>2018-01-13T09:22:56Z</time>
      </trkpt>
      <trkpt lat="42.70321" lon="1.71019">
        <ele>1958</ele>
        <time>2018-01-13T09:23:13Z</time>
      </trkpt>
      <trkpt lat="42.70311" lon="1.71035">
        <ele>1958</ele>
        <time>2018-01-13T09:23:28Z</time>
      </trkpt>
      <trkpt lat="42.70304" lon="1.7105">
        <ele>1958</ele>
        <time>2018-01-13T09:23:42Z</time>
      </trkpt>
      <trkpt lat="42.70295" lon="1.71064">
        <ele>1958</ele>
        <time>2018-01-13T09:23:57Z</time>
      </trkpt>
      <trkpt lat="42.70285" lon="1.71081">
        <ele>1958</ele>
        <time>2018-01-13T09:24:12Z</time>
      </trkpt>
      <trkpt lat="42.70274" lon="1.71097">
        <ele>1959</ele>
        <time>2018-01-13T09:24:27Z</time>
      </trkpt>
      <trkpt lat="42.70273" lon="1.711">
        <ele>1959</ele>
        <time>2018-01-13T09:24:29Z</time>
      </trkpt>
      <trkpt lat="42.70264" lon="1.71114">
        <ele>1959</ele>
        <time>2018-01-13T09:24:43Z</time>
      </trkpt>
      <trkpt lat="42.7025" lon="1.71136">
        <ele>1953</ele>
        <time>2018-01-13T09:25:00Z</time>
      </trkpt>
      <trkpt lat="42.70241" lon="1.71157">
        <ele>1955</ele>
        <time>2018-01-13T09:25:16Z</time>
      </trkpt>
      <trkpt lat="42.70237" lon="1.71167">
        <ele>1956</ele>
        <time>2018-01-13T09:25:23Z</time>
      </trkpt>
      <trkpt lat="42.70235" lon="1.71192">
        <ele>1956</ele>
        <time>2018-01-13T09:25:41Z</time>
      </trkpt>
      <trkpt lat="42.70236" lon="1.712">
        <ele>1956</ele>
        <time>2018-01-13T09:25:47Z</time>
      </trkpt>
      <trkpt lat="42.7024" lon="1.71229">
        <ele>1956</ele>
        <time>2018-01-13T09:26:07Z</time>
      </trkpt>
      <trkpt lat="42.7024" lon="1.71233">
        <ele>1956</ele>
        <time>2018-01-13T09:26:10Z</time>
      </trkpt>
      <trkpt lat="42.7024" lon="1.71242">
        <ele>1957</ele>
        <time>2018-01-13T09:26:16Z</time>
      </trkpt>
      <trkpt lat="42.7024" lon="1.71252">
        <ele>1957</ele>
        <time>2018-01-13T09:26:23Z</time>
      </trkpt>
      <trkpt lat="42.7024" lon="1.71258">
        <ele>1957</ele>
        <time>2018-01-13T09:26:27Z</time>
      </trkpt>
      <trkpt lat="42.70238" lon="1.71278">
        <ele>1958</ele>
        <time>2018-01-13T09:26:42Z</time>
      </trkpt>
      <trkpt lat="42.70238" lon="1.7128">
        <ele>1958</ele>
        <time>2018-01-13T09:26:44Z</time>
      </trkpt>
      <trkpt lat="42.70237" lon="1.71283">
        <ele>1958</ele>
        <time>2018-01-13T09:26:46Z</time>
      </trkpt>
      <trkpt lat="42.70237" lon="1.7129">
        <ele>1957</ele>
        <time>2018-01-13T09:26:52Z</time>
      </trkpt>
      <trkpt lat="42.70233" lon="1.71308">
        <ele>1957</ele>
        <time>2018-01-13T09:27:05Z</time>
      </trkpt>
      <trkpt lat="42.70228" lon="1.71326">
        <ele>1957</ele>
        <time>2018-01-13T09:27:21Z</time>
      </trkpt>
      <trkpt lat="42.70223" lon="1.71339">
        <ele>1959</ele>
        <time>2018-01-13T09:27:38Z</time>
      </trkpt>
      <trkpt lat="42.70216" lon="1.71355">
        <ele>1961</ele>
        <time>2018-01-13T09:27:55Z</time>
      </trkpt>
      <trkpt lat="42.70207" lon="1.71367">
        <ele>1962</ele>
        <time>2018-01-13T09:28:13Z</time>
      </trkpt>
      <trkpt lat="42.70199" lon="1.71378">
        <ele>1963</ele>
        <time>2018-01-13T09:28:32Z</time>
      </trkpt>
      <trkpt lat="42.7019" lon="1.71386">
        <ele>1964</ele>
        <time>2018-01-13T09:28:50Z</time>
      </trkpt>
      <trkpt lat="42.70182" lon="1.71396">
        <ele>1966</ele>
        <time>2018-01-13T09:29:11Z</time>
      </trkpt>
      <trkpt lat="42.70173" lon="1.71402">
        <ele>1968</ele>
        <time>2018-01-13T09:29:29Z</time>
      </trkpt>
      <trkpt lat="42.70164" lon="1.71409">
        <ele>1972</ele>
        <time>2018-01-13T09:29:46Z</time>
      </trkpt>
      <trkpt lat="42.70155" lon="1.71415">
        <ele>1972</ele>
        <time>2018-01-13T09:30:02Z</time>
      </trkpt>
      <trkpt lat="42.70146" lon="1.7142">
        <ele>1975</ele>
        <time>2018-01-13T09:30:19Z</time>
      </trkpt>
      <trkpt lat="42.70138" lon="1.71426">
        <ele>1976</ele>
        <time>2018-01-13T09:30:37Z</time>
      </trkpt>
      <trkpt lat="42.7013" lon="1.71434">
        <ele>1977</ele>
        <time>2018-01-13T09:30:57Z</time>
      </trkpt>
      <trkpt lat="42.70118" lon="1.71443">
        <ele>1977</ele>
        <time>2018-01-13T09:31:18Z</time>
      </trkpt>
      <trkpt lat="42.70107" lon="1.71452">
        <ele>1978</ele>
        <time>2018-01-13T09:31:36Z</time>
      </trkpt>
      <trkpt lat="42.70098" lon="1.71456">
        <ele>1978</ele>
        <time>2018-01-13T09:31:52Z</time>
      </trkpt>
      <trkpt lat="42.70091" lon="1.71465">
        <ele>1979</ele>
        <time>2018-01-13T09:32:08Z</time>
      </trkpt>
      <trkpt lat="42.70087" lon="1.71475">
        <ele>1980</ele>
        <time>2018-01-13T09:32:24Z</time>
      </trkpt>
      <trkpt lat="42.70085" lon="1.71478">
        <ele>1980</ele>
        <time>2018-01-13T09:32:29Z</time>
      </trkpt>
      <trkpt lat="42.70075" lon="1.7149">
        <ele>1982</ele>
        <time>2018-01-13T09:32:46Z</time>
      </trkpt>
      <trkpt lat="42.70063" lon="1.71501">
        <ele>1980</ele>
        <time>2018-01-13T09:33:03Z</time>
      </trkpt>
      <trkpt lat="42.70058" lon="1.71506">
        <ele>1980</ele>
        <time>2018-01-13T09:33:23Z</time>
      </trkpt>
      <trkpt lat="42.70058" lon="1.71506">
        <ele>1980</ele>
        <time>2018-01-13T09:33:43Z</time>
      </trkpt>
      <trkpt lat="42.70056" lon="1.71509">
        <ele>1979</ele>
        <time>2018-01-13T09:34:02Z</time>
      </trkpt>
      <trkpt lat="42.70052" lon="1.71516">
        <ele>1979</ele>
        <time>2018-01-13T09:34:16Z</time>
      </trkpt>
      <trkpt lat="42.70048" lon="1.71522">
        <ele>1979</ele>
        <time>2018-01-13T09:34:32Z</time>
      </trkpt>
      <trkpt lat="42.70033" lon="1.71528">
        <ele>1978</ele>
        <time>2018-01-13T09:34:49Z</time>
      </trkpt>
      <trkpt lat="42.7002" lon="1.71539">
        <ele>1977</ele>
        <time>2018-01-13T09:35:05Z</time>
      </trkpt>
      <trkpt lat="42.70008" lon="1.71547">
        <ele>1977</ele>
        <time>2018-01-13T09:35:23Z</time>
      </trkpt>
      <trkpt lat="42.70001" lon="1.71556">
        <ele>1976</ele>
        <time>2018-01-13T09:35:35Z</time>
      </trkpt>
      <trkpt lat="42.6999" lon="1.71561">
        <ele>1973</ele>
        <time>2018-01-13T09:35:52Z</time>
      </trkpt>
      <trkpt lat="42.6998" lon="1.71563">
        <ele>1972</ele>
        <time>2018-01-13T09:36:10Z</time>
      </trkpt>
      <trkpt lat="42.69981" lon="1.71565">
        <ele>1972</ele>
        <time>2018-01-13T09:36:35Z</time>
      </trkpt>
      <trkpt lat="42.69983" lon="1.71565">
        <ele>1972</ele>
        <time>2018-01-13T09:37:04Z</time>
      </trkpt>
      <trkpt lat="42.69981" lon="1.71563">
        <ele>1972</ele>
        <time>2018-01-13T09:37:26Z</time>
      </trkpt>
      <trkpt lat="42.69981" lon="1.71563">
        <ele>1972</ele>
        <time>2018-01-13T09:38:00Z</time>
      </trkpt>
      <trkpt lat="42.6998" lon="1.71565">
        <ele>1972</ele>
        <time>2018-01-13T09:38:26Z</time>
      </trkpt>
      <trkpt lat="42.69982" lon="1.71564">
        <ele>1972</ele>
        <time>2018-01-13T09:38:51Z</time>
      </trkpt>
      <trkpt lat="42.69982" lon="1.71564">
        <ele>1972</ele>
        <time>2018-01-13T09:39:28Z</time>
      </trkpt>
      <trkpt lat="42.6998" lon="1.71565">
        <ele>1972</ele>
        <time>2018-01-13T09:39:48Z</time>
      </trkpt>
      <trkpt lat="42.69981" lon="1.71565">
        <ele>1972</ele>
        <time>2018-01-13T09:40:10Z</time>
      </trkpt>
      <trkpt lat="42.69982" lon="1.71567">
        <ele>1972</ele>
        <time>2018-01-13T09:40:42Z</time>
      </trkpt>
      <trkpt lat="42.69984" lon="1.71564">
        <ele>1973</ele>
        <time>2018-01-13T09:41:17Z</time>
      </trkpt>
      <trkpt lat="42.69984" lon="1.71564">
        <ele>1973</ele>
        <time>2018-01-13T09:41:47Z</time>
      </trkpt>
      <trkpt lat="42.69982" lon="1.71565">
        <ele>1972</ele>
        <time>2018-01-13T09:42:17Z</time>
      </trkpt>
      <trkpt lat="42.69983" lon="1.71567">
        <ele>1972</ele>
        <time>2018-01-13T09:42:43Z</time>
      </trkpt>
      <trkpt lat="42.69985" lon="1.71567">
        <ele>1973</ele>
        <time>2018-01-13T09:43:11Z</time>
      </trkpt>
      <trkpt lat="42.69981" lon="1.71565">
        <ele>1972</ele>
        <time>2018-01-13T09:43:34Z</time>
      </trkpt>
      <trkpt lat="42.69982" lon="1.71566">
        <ele>1972</ele>
        <time>2018-01-13T09:44:14Z</time>
      </trkpt>
      <trkpt lat="42.69984" lon="1.71566">
        <ele>1972</ele>
        <time>2018-01-13T09:44:49Z</time>
      </trkpt>
      <trkpt lat="42.69984" lon="1.71565">
        <ele>1973</ele>
        <time>2018-01-13T09:45:22Z</time>
      </trkpt>
      <trkpt lat="42.69985" lon="1.71565">
        <ele>1973</ele>
        <time>2018-01-13T09:46:05Z</time>
      </trkpt>
      <trkpt lat="42.69984" lon="1.71568">
        <ele>1972</ele>
        <time>2018-01-13T09:46:17Z</time>
      </trkpt>
      <trkpt lat="42.69986" lon="1.71587">
        <ele>1967</ele>
        <time>2018-01-13T09:46:37Z</time>
      </trkpt>
      <trkpt lat="42.69986" lon="1.71606">
        <ele>1963</ele>
        <time>2018-01-13T09:46:54Z</time>
      </trkpt>
      <trkpt lat="42.69984" lon="1.7162">
        <ele>1960</ele>
        <time>2018-01-13T09:47:07Z</time>
      </trkpt>
      <trkpt lat="42.69976" lon="1.7163">
        <ele>1958</ele>
        <time>2018-01-13T09:47:22Z</time>
      </trkpt>
      <trkpt lat="42.6997" lon="1.71639">
        <ele>1957</ele>
        <time>2018-01-13T09:47:35Z</time>
      </trkpt>
      <trkpt lat="42.69967" lon="1.71645">
        <ele>1957</ele>
        <time>2018-01-13T09:47:47Z</time>
      </trkpt>
      <trkpt lat="42.69965" lon="1.71657">
        <ele>1956</ele>
        <time>2018-01-13T09:48:00Z</time>
      </trkpt>
      <trkpt lat="42.69964" lon="1.71659">
        <ele>1955</ele>
        <time>2018-01-13T09:48:02Z</time>
      </trkpt>
      <trkpt lat="42.69961" lon="1.71671">
        <ele>1945</ele>
        <time>2018-01-13T09:48:14Z</time>
      </trkpt>
      <trkpt lat="42.69958" lon="1.71681">
        <ele>1945</ele>
        <time>2018-01-13T09:48:24Z</time>
      </trkpt>
      <trkpt lat="42.69956" lon="1.71694">
        <ele>1944</ele>
        <time>2018-01-13T09:48:38Z</time>
      </trkpt>
      <trkpt lat="42.69953" lon="1.71707">
        <ele>1943</ele>
        <time>2018-01-13T09:48:51Z</time>
      </trkpt>
      <trkpt lat="42.69951" lon="1.71716">
        <ele>1942</ele>
        <time>2018-01-13T09:48:59Z</time>
      </trkpt>
      <trkpt lat="42.69948" lon="1.7173">
        <ele>1942</ele>
        <time>2018-01-13T09:49:08Z</time>
      </trkpt>
      <trkpt lat="42.69946" lon="1.71738">
        <ele>1941</ele>
        <time>2018-01-13T09:49:14Z</time>
      </trkpt>
      <trkpt lat="42.69943" lon="1.71757">
        <ele>1936</ele>
        <time>2018-01-13T09:49:30Z</time>
      </trkpt>
      <trkpt lat="42.69942" lon="1.71771">
        <ele>1936</ele>
        <time>2018-01-13T09:49:41Z</time>
      </trkpt>
      <trkpt lat="42.69941" lon="1.71773">
        <ele>1936</ele>
        <time>2018-01-13T09:49:43Z</time>
      </trkpt>
      <trkpt lat="42.69938" lon="1.71794">
        <ele>1936</ele>
        <time>2018-01-13T09:49:59Z</time>
      </trkpt>
      <trkpt lat="42.6993" lon="1.71807">
        <ele>1936</ele>
        <time>2018-01-13T09:50:14Z</time>
      </trkpt>
      <trkpt lat="42.69927" lon="1.71811">
        <ele>1936</ele>
        <time>2018-01-13T09:50:19Z</time>
      </trkpt>
      <trkpt lat="42.69925" lon="1.71812">
        <ele>1936</ele>
        <time>2018-01-13T09:50:21Z</time>
      </trkpt>
      <trkpt lat="42.69915" lon="1.71827">
        <ele>1938</ele>
        <time>2018-01-13T09:50:38Z</time>
      </trkpt>
      <trkpt lat="42.69908" lon="1.71838">
        <ele>1938</ele>
        <time>2018-01-13T09:50:54Z</time>
      </trkpt>
      <trkpt lat="42.69901" lon="1.7185">
        <ele>1939</ele>
        <time>2018-01-13T09:51:12Z</time>
      </trkpt>
      <trkpt lat="42.69896" lon="1.71859">
        <ele>1940</ele>
        <time>2018-01-13T09:51:26Z</time>
      </trkpt>
      <trkpt lat="42.69888" lon="1.71874">
        <ele>1940</ele>
        <time>2018-01-13T09:51:44Z</time>
      </trkpt>
      <trkpt lat="42.69881" lon="1.71887">
        <ele>1941</ele>
        <time>2018-01-13T09:52:00Z</time>
      </trkpt>
      <trkpt lat="42.69873" lon="1.71904">
        <ele>1941</ele>
        <time>2018-01-13T09:52:18Z</time>
      </trkpt>
      <trkpt lat="42.6987" lon="1.71912">
        <ele>1942</ele>
        <time>2018-01-13T09:52:26Z</time>
      </trkpt>
      <trkpt lat="42.69866" lon="1.71924">
        <ele>1944</ele>
        <time>2018-01-13T09:52:37Z</time>
      </trkpt>
      <trkpt lat="42.69863" lon="1.71933">
        <ele>1944</ele>
        <time>2018-01-13T09:52:46Z</time>
      </trkpt>
      <trkpt lat="42.69862" lon="1.71937">
        <ele>1944</ele>
        <time>2018-01-13T09:52:50Z</time>
      </trkpt>
      <trkpt lat="42.69859" lon="1.71945">
        <ele>1944</ele>
        <time>2018-01-13T09:52:59Z</time>
      </trkpt>
      <trkpt lat="42.69858" lon="1.71948">
        <ele>1944</ele>
        <time>2018-01-13T09:53:01Z</time>
      </trkpt>
      <trkpt lat="42.69851" lon="1.71965">
        <ele>1945</ele>
        <time>2018-01-13T09:53:18Z</time>
      </trkpt>
      <trkpt lat="42.69846" lon="1.7198">
        <ele>1947</ele>
        <time>2018-01-13T09:53:37Z</time>
      </trkpt>
      <trkpt lat="42.69846" lon="1.71979">
        <ele>1947</ele>
        <time>2018-01-13T09:53:59Z</time>
      </trkpt>
      <trkpt lat="42.69846" lon="1.71979">
        <ele>1947</ele>
        <time>2018-01-13T09:54:07Z</time>
      </trkpt>
      <trkpt lat="42.69844" lon="1.7198">
        <ele>1947</ele>
        <time>2018-01-13T09:54:29Z</time>
      </trkpt>
      <trkpt lat="42.69844" lon="1.71981">
        <ele>1948</ele>
        <time>2018-01-13T09:54:45Z</time>
      </trkpt>
      <trkpt lat="42.69837" lon="1.71982">
        <ele>1948</ele>
        <time>2018-01-13T09:54:53Z</time>
      </trkpt>
      <trkpt lat="42.69835" lon="1.71983">
        <ele>1948</ele>
        <time>2018-01-13T09:54:56Z</time>
      </trkpt>
      <trkpt lat="42.69831" lon="1.71985">
        <ele>1952</ele>
        <time>2018-01-13T09:55:01Z</time>
      </trkpt>
      <trkpt lat="42.69814" lon="1.71984">
        <ele>1951</ele>
        <time>2018-01-13T09:55:20Z</time>
      </trkpt>
      <trkpt lat="42.69809" lon="1.71983">
        <ele>1951</ele>
        <time>2018-01-13T09:55:25Z</time>
      </trkpt>
      <trkpt lat="42.69793" lon="1.71976">
        <ele>1951</ele>
        <time>2018-01-13T09:55:41Z</time>
      </trkpt>
      <trkpt lat="42.69782" lon="1.71976">
        <ele>1951</ele>
        <time>2018-01-13T09:55:53Z</time>
      </trkpt>
      <trkpt lat="42.69772" lon="1.71976">
        <ele>1951</ele>
        <time>2018-01-13T09:56:04Z</time>
      </trkpt>
      <trkpt lat="42.69767" lon="1.7198">
        <ele>1951</ele>
        <time>2018-01-13T09:56:09Z</time>
      </trkpt>
      <trkpt lat="42.69759" lon="1.71981">
        <ele>1951</ele>
        <time>2018-01-13T09:56:17Z</time>
      </trkpt>
      <trkpt lat="42.69744" lon="1.7198">
        <ele>1949</ele>
        <time>2018-01-13T09:56:33Z</time>
      </trkpt>
      <trkpt lat="42.69743" lon="1.71981">
        <ele>1949</ele>
        <time>2018-01-13T09:56:34Z</time>
      </trkpt>
      <trkpt lat="42.6973" lon="1.71987">
        <ele>1948</ele>
        <time>2018-01-13T09:56:51Z</time>
      </trkpt>
      <trkpt lat="42.69728" lon="1.71985">
        <ele>1948</ele>
        <time>2018-01-13T09:57:02Z</time>
      </trkpt>
      <trkpt lat="42.69723" lon="1.71982">
        <ele>1947</ele>
        <time>2018-01-13T09:57:08Z</time>
      </trkpt>
      <trkpt lat="42.69718" lon="1.71979">
        <ele>1947</ele>
        <time>2018-01-13T09:57:15Z</time>
      </trkpt>
      <trkpt lat="42.69711" lon="1.71978">
        <ele>1946</ele>
        <time>2018-01-13T09:57:22Z</time>
      </trkpt>
      <trkpt lat="42.69705" lon="1.7198">
        <ele>1946</ele>
        <time>2018-01-13T09:57:29Z</time>
      </trkpt>
      <trkpt lat="42.69688" lon="1.71984">
        <ele>1945</ele>
        <time>2018-01-13T09:57:46Z</time>
      </trkpt>
      <trkpt lat="42.69675" lon="1.71991">
        <ele>1944</ele>
        <time>2018-01-13T09:58:02Z</time>
      </trkpt>
      <trkpt lat="42.69664" lon="1.71997">
        <ele>1943</ele>
        <time>2018-01-13T09:58:16Z</time>
      </trkpt>
      <trkpt lat="42.69662" lon="1.71999">
        <ele>1942</ele>
        <time>2018-01-13T09:58:31Z</time>
      </trkpt>
      <trkpt lat="42.69652" lon="1.72002">
        <ele>1943</ele>
        <time>2018-01-13T09:58:59Z</time>
      </trkpt>
      <trkpt lat="42.6964" lon="1.71997">
        <ele>1937</ele>
        <time>2018-01-13T09:59:12Z</time>
      </trkpt>
      <trkpt lat="42.69626" lon="1.71987">
        <ele>1935</ele>
        <time>2018-01-13T09:59:28Z</time>
      </trkpt>
      <trkpt lat="42.69625" lon="1.71986">
        <ele>1935</ele>
        <time>2018-01-13T09:59:29Z</time>
      </trkpt>
      <trkpt lat="42.69609" lon="1.71984">
        <ele>1933</ele>
        <time>2018-01-13T09:59:44Z</time>
      </trkpt>
      <trkpt lat="42.69595" lon="1.7198">
        <ele>1933</ele>
        <time>2018-01-13T09:59:59Z</time>
      </trkpt>
      <trkpt lat="42.69587" lon="1.71972">
        <ele>1932</ele>
        <time>2018-01-13T10:00:13Z</time>
      </trkpt>
      <trkpt lat="42.69582" lon="1.71964">
        <ele>1920</ele>
        <time>2018-01-13T10:00:29Z</time>
      </trkpt>
      <trkpt lat="42.69568" lon="1.71966">
        <ele>1919</ele>
        <time>2018-01-13T10:00:45Z</time>
      </trkpt>
      <trkpt lat="42.69565" lon="1.71968">
        <ele>1918</ele>
        <time>2018-01-13T10:01:05Z</time>
      </trkpt>
      <trkpt lat="42.69565" lon="1.71974">
        <ele>1919</ele>
        <time>2018-01-13T10:01:51Z</time>
      </trkpt>
      <trkpt lat="42.6956" lon="1.71979">
        <ele>1919</ele>
        <time>2018-01-13T10:02:07Z</time>
      </trkpt>
      <trkpt lat="42.69556" lon="1.7198">
        <ele>1919</ele>
        <time>2018-01-13T10:02:22Z</time>
      </trkpt>
      <trkpt lat="42.69557" lon="1.7198">
        <ele>1919</ele>
        <time>2018-01-13T10:02:27Z</time>
      </trkpt>
      <trkpt lat="42.69557" lon="1.7198">
        <ele>1919</ele>
        <time>2018-01-13T10:02:29Z</time>
      </trkpt>
      <trkpt lat="42.69556" lon="1.71979">
        <ele>1918</ele>
        <time>2018-01-13T10:02:47Z</time>
      </trkpt>
      <trkpt lat="42.69552" lon="1.7198">
        <ele>1918</ele>
        <time>2018-01-13T10:02:51Z</time>
      </trkpt>
      <trkpt lat="42.6955" lon="1.7198">
        <ele>1917</ele>
        <time>2018-01-13T10:03:05Z</time>
      </trkpt>
      <trkpt lat="42.6955" lon="1.71977">
        <ele>1917</ele>
        <time>2018-01-13T10:03:31Z</time>
      </trkpt>
      <trkpt lat="42.69551" lon="1.71959">
        <ele>1916</ele>
        <time>2018-01-13T10:03:50Z</time>
      </trkpt>
      <trkpt lat="42.69551" lon="1.71958">
        <ele>1916</ele>
        <time>2018-01-13T10:03:51Z</time>
      </trkpt>
      <trkpt lat="42.69547" lon="1.71943">
        <ele>1914</ele>
        <time>2018-01-13T10:04:06Z</time>
      </trkpt>
      <trkpt lat="42.69542" lon="1.71929">
        <ele>1912</ele>
        <time>2018-01-13T10:04:22Z</time>
      </trkpt>
      <trkpt lat="42.69535" lon="1.7192">
        <ele>1910</ele>
        <time>2018-01-13T10:04:38Z</time>
      </trkpt>
      <trkpt lat="42.69527" lon="1.71914">
        <ele>1901</ele>
        <time>2018-01-13T10:04:52Z</time>
      </trkpt>
      <trkpt lat="42.6952" lon="1.7191">
        <ele>1899</ele>
        <time>2018-01-13T10:05:01Z</time>
      </trkpt>
      <trkpt lat="42.69513" lon="1.71904">
        <ele>1898</ele>
        <time>2018-01-13T10:05:16Z</time>
      </trkpt>
      <trkpt lat="42.69508" lon="1.71895">
        <ele>1898</ele>
        <time>2018-01-13T10:05:29Z</time>
      </trkpt>
      <trkpt lat="42.69504" lon="1.71883">
        <ele>1897</ele>
        <time>2018-01-13T10:05:42Z</time>
      </trkpt>
      <trkpt lat="42.69504" lon="1.71878">
        <ele>1897</ele>
        <time>2018-01-13T10:05:47Z</time>
      </trkpt>
      <trkpt lat="42.69503" lon="1.71861">
        <ele>1894</ele>
        <time>2018-01-13T10:06:06Z</time>
      </trkpt>
      <trkpt lat="42.69497" lon="1.71853">
        <ele>1877</ele>
        <time>2018-01-13T10:06:20Z</time>
      </trkpt>
      <trkpt lat="42.69488" lon="1.71846">
        <ele>1876</ele>
        <time>2018-01-13T10:06:34Z</time>
      </trkpt>
      <trkpt lat="42.69484" lon="1.71841">
        <ele>1876</ele>
        <time>2018-01-13T10:06:49Z</time>
      </trkpt>
      <trkpt lat="42.69471" lon="1.71833">
        <ele>1866</ele>
        <time>2018-01-13T10:07:05Z</time>
      </trkpt>
      <trkpt lat="42.69468" lon="1.71828">
        <ele>1865</ele>
        <time>2018-01-13T10:07:09Z</time>
      </trkpt>
      <trkpt lat="42.69462" lon="1.71822">
        <ele>1863</ele>
        <time>2018-01-13T10:07:34Z</time>
      </trkpt>
      <trkpt lat="42.69454" lon="1.71815">
        <ele>1860</ele>
        <time>2018-01-13T10:07:45Z</time>
      </trkpt>
      <trkpt lat="42.69447" lon="1.71809">
        <ele>1859</ele>
        <time>2018-01-13T10:07:57Z</time>
      </trkpt>
      <trkpt lat="42.69439" lon="1.71804">
        <ele>1857</ele>
        <time>2018-01-13T10:08:09Z</time>
      </trkpt>
      <trkpt lat="42.69431" lon="1.71804">
        <ele>1856</ele>
        <time>2018-01-13T10:08:21Z</time>
      </trkpt>
      <trkpt lat="42.69422" lon="1.71806">
        <ele>1855</ele>
        <time>2018-01-13T10:08:35Z</time>
      </trkpt>
      <trkpt lat="42.69419" lon="1.71807">
        <ele>1855</ele>
        <time>2018-01-13T10:08:51Z</time>
      </trkpt>
      <trkpt lat="42.6942" lon="1.71805">
        <ele>1855</ele>
        <time>2018-01-13T10:09:29Z</time>
      </trkpt>
      <trkpt lat="42.6942" lon="1.71804">
        <ele>1855</ele>
        <time>2018-01-13T10:09:47Z</time>
      </trkpt>
      <trkpt lat="42.69418" lon="1.71794">
        <ele>1854</ele>
        <time>2018-01-13T10:10:06Z</time>
      </trkpt>
      <trkpt lat="42.69414" lon="1.71783">
        <ele>1831</ele>
        <time>2018-01-13T10:10:22Z</time>
      </trkpt>
      <trkpt lat="42.6941" lon="1.71773">
        <ele>1831</ele>
        <time>2018-01-13T10:10:35Z</time>
      </trkpt>
      <trkpt lat="42.69404" lon="1.71775">
        <ele>1830</ele>
        <time>2018-01-13T10:10:51Z</time>
      </trkpt>
      <trkpt lat="42.69397" lon="1.71774">
        <ele>1829</ele>
        <time>2018-01-13T10:11:06Z</time>
      </trkpt>
      <trkpt lat="42.69394" lon="1.71767">
        <ele>1829</ele>
        <time>2018-01-13T10:11:20Z</time>
      </trkpt>
      <trkpt lat="42.69386" lon="1.71768">
        <ele>1827</ele>
        <time>2018-01-13T10:11:35Z</time>
      </trkpt>
      <trkpt lat="42.69383" lon="1.71769">
        <ele>1826</ele>
        <time>2018-01-13T10:11:47Z</time>
      </trkpt>
      <trkpt lat="42.69377" lon="1.71767">
        <ele>1824</ele>
        <time>2018-01-13T10:12:02Z</time>
      </trkpt>
      <trkpt lat="42.69372" lon="1.71778">
        <ele>1823</ele>
        <time>2018-01-13T10:12:20Z</time>
      </trkpt>
      <trkpt lat="42.69366" lon="1.71783">
        <ele>1822</ele>
        <time>2018-01-13T10:12:41Z</time>
      </trkpt>
      <trkpt lat="42.69361" lon="1.71781">
        <ele>1821</ele>
        <time>2018-01-13T10:12:58Z</time>
      </trkpt>
      <trkpt lat="42.69357" lon="1.71778">
        <ele>1819</ele>
        <time>2018-01-13T10:13:15Z</time>
      </trkpt>
      <trkpt lat="42.69355" lon="1.71775">
        <ele>1818</ele>
        <time>2018-01-13T10:13:31Z</time>
      </trkpt>
      <trkpt lat="42.69352" lon="1.71776">
        <ele>1818</ele>
        <time>2018-01-13T10:13:40Z</time>
      </trkpt>
      <trkpt lat="42.69351" lon="1.71778">
        <ele>1818</ele>
        <time>2018-01-13T10:13:42Z</time>
      </trkpt>
      <trkpt lat="42.69342" lon="1.71786">
        <ele>1818</ele>
        <time>2018-01-13T10:13:58Z</time>
      </trkpt>
      <trkpt lat="42.69337" lon="1.71792">
        <ele>1818</ele>
        <time>2018-01-13T10:14:11Z</time>
      </trkpt>
      <trkpt lat="42.69331" lon="1.71793">
        <ele>1792</ele>
        <time>2018-01-13T10:14:30Z</time>
      </trkpt>
      <trkpt lat="42.69328" lon="1.71794">
        <ele>1792</ele>
        <time>2018-01-13T10:14:46Z</time>
      </trkpt>
      <trkpt lat="42.69324" lon="1.71793">
        <ele>1791</ele>
        <time>2018-01-13T10:15:03Z</time>
      </trkpt>
      <trkpt lat="42.69318" lon="1.71794">
        <ele>1790</ele>
        <time>2018-01-13T10:15:19Z</time>
      </trkpt>
      <trkpt lat="42.69313" lon="1.71799">
        <ele>1790</ele>
        <time>2018-01-13T10:15:36Z</time>
      </trkpt>
      <trkpt lat="42.6931" lon="1.71798">
        <ele>1789</ele>
        <time>2018-01-13T10:15:53Z</time>
      </trkpt>
      <trkpt lat="42.69307" lon="1.71797">
        <ele>1788</ele>
        <time>2018-01-13T10:16:10Z</time>
      </trkpt>
      <trkpt lat="42.69302" lon="1.718">
        <ele>1787</ele>
        <time>2018-01-13T10:16:27Z</time>
      </trkpt>
      <trkpt lat="42.69298" lon="1.71803">
        <ele>1787</ele>
        <time>2018-01-13T10:16:42Z</time>
      </trkpt>
      <trkpt lat="42.69295" lon="1.71804">
        <ele>1786</ele>
        <time>2018-01-13T10:16:59Z</time>
      </trkpt>
      <trkpt lat="42.69289" lon="1.71805">
        <ele>1784</ele>
        <time>2018-01-13T10:17:16Z</time>
      </trkpt>
      <trkpt lat="42.69283" lon="1.71808">
        <ele>1782</ele>
        <time>2018-01-13T10:17:31Z</time>
      </trkpt>
      <trkpt lat="42.69277" lon="1.71815">
        <ele>1780</ele>
        <time>2018-01-13T10:17:48Z</time>
      </trkpt>
      <trkpt lat="42.6927" lon="1.7181">
        <ele>1779</ele>
        <time>2018-01-13T10:18:00Z</time>
      </trkpt>
      <trkpt lat="42.69263" lon="1.71806">
        <ele>1778</ele>
        <time>2018-01-13T10:18:13Z</time>
      </trkpt>
      <trkpt lat="42.69257" lon="1.71802">
        <ele>1777</ele>
        <time>2018-01-13T10:18:26Z</time>
      </trkpt>
      <trkpt lat="42.69255" lon="1.71801">
        <ele>1777</ele>
        <time>2018-01-13T10:18:44Z</time>
      </trkpt>
      <trkpt lat="42.69257" lon="1.71807">
        <ele>1777</ele>
        <time>2018-01-13T10:19:18Z</time>
      </trkpt>
      <trkpt lat="42.69256" lon="1.71806">
        <ele>1776</ele>
        <time>2018-01-13T10:19:44Z</time>
      </trkpt>
      <trkpt lat="42.69248" lon="1.71805">
        <ele>1756</ele>
        <time>2018-01-13T10:19:58Z</time>
      </trkpt>
      <trkpt lat="42.69244" lon="1.71803">
        <ele>1756</ele>
        <time>2018-01-13T10:20:03Z</time>
      </trkpt>
      <trkpt lat="42.69234" lon="1.71797">
        <ele>1754</ele>
        <time>2018-01-13T10:20:17Z</time>
      </trkpt>
      <trkpt lat="42.69228" lon="1.7179">
        <ele>1753</ele>
        <time>2018-01-13T10:20:30Z</time>
      </trkpt>
      <trkpt lat="42.69223" lon="1.7178">
        <ele>1752</ele>
        <time>2018-01-13T10:20:40Z</time>
      </trkpt>
      <trkpt lat="42.69212" lon="1.71765">
        <ele>1750</ele>
        <time>2018-01-13T10:20:56Z</time>
      </trkpt>
      <trkpt lat="42.6921" lon="1.71762">
        <ele>1750</ele>
        <time>2018-01-13T10:21:00Z</time>
      </trkpt>
      <trkpt lat="42.69208" lon="1.7176">
        <ele>1750</ele>
        <time>2018-01-13T10:21:03Z</time>
      </trkpt>
      <trkpt lat="42.69193" lon="1.71746">
        <ele>1743</ele>
        <time>2018-01-13T10:21:22Z</time>
      </trkpt>
      <trkpt lat="42.69191" lon="1.71744">
        <ele>1743</ele>
        <time>2018-01-13T10:21:41Z</time>
      </trkpt>
      <trkpt lat="42.69187" lon="1.71744">
        <ele>1742</ele>
        <time>2018-01-13T10:22:22Z</time>
      </trkpt>
      <trkpt lat="42.69188" lon="1.71747">
        <ele>1742</ele>
        <time>2018-01-13T10:22:37Z</time>
      </trkpt>
      <trkpt lat="42.69188" lon="1.71746">
        <ele>1743</ele>
        <time>2018-01-13T10:23:00Z</time>
      </trkpt>
      <trkpt lat="42.69188" lon="1.71744">
        <ele>1743</ele>
        <time>2018-01-13T10:23:28Z</time>
      </trkpt>
      <trkpt lat="42.69193" lon="1.71739">
        <ele>1744</ele>
        <time>2018-01-13T10:36:24Z</time>
      </trkpt>
      <trkpt lat="42.69192" lon="1.71739">
        <ele>1743</ele>
        <time>2018-01-13T10:37:17Z</time>
      </trkpt>
      <trkpt lat="42.69192" lon="1.71739">
        <ele>1743</ele>
        <time>2018-01-13T10:38:19Z</time>
      </trkpt>
      <trkpt lat="42.69193" lon="1.71739">
        <ele>1743</ele>
        <time>2018-01-13T10:39:09Z</time>
      </trkpt>
      <trkpt lat="42.69194" lon="1.71739">
        <ele>1744</ele>
        <time>2018-01-13T10:40:00Z</time>
      </trkpt>
      <trkpt lat="42.69197" lon="1.71741">
        <ele>1744</ele>
        <time>2018-01-13T10:40:45Z</time>
      </trkpt>
      <trkpt lat="42.69192" lon="1.7174">
        <ele>1743</ele>
        <time>2018-01-13T11:14:20Z</time>
      </trkpt>
      <trkpt lat="42.69187" lon="1.71747">
        <ele>1742</ele>
        <time>2018-01-13T11:14:51Z</time>
      </trkpt>
      <trkpt lat="42.69187" lon="1.71747">
        <ele>1742</ele>
        <time>2018-01-13T11:22:17Z</time>
      </trkpt>
      <trkpt lat="42.69183" lon="1.71748">
        <ele>1741</ele>
        <time>2018-01-13T11:22:37Z</time>
      </trkpt>
      <trkpt lat="42.69183" lon="1.71751">
        <ele>1743</ele>
        <time>2018-01-13T11:22:48Z</time>
      </trkpt>
      <trkpt lat="42.69183" lon="1.71761">
        <ele>1744</ele>
        <time>2018-01-13T11:22:59Z</time>
      </trkpt>
      <trkpt lat="42.69184" lon="1.71767">
        <ele>1745</ele>
        <time>2018-01-13T11:23:05Z</time>
      </trkpt>
      <trkpt lat="42.69187" lon="1.7178">
        <ele>1747</ele>
        <time>2018-01-13T11:23:19Z</time>
      </trkpt>
      <trkpt lat="42.69189" lon="1.71798">
        <ele>1748</ele>
        <time>2018-01-13T11:23:35Z</time>
      </trkpt>
      <trkpt lat="42.69191" lon="1.7181">
        <ele>1748</ele>
        <time>2018-01-13T11:23:47Z</time>
      </trkpt>
      <trkpt lat="42.69192" lon="1.71813">
        <ele>1748</ele>
        <time>2018-01-13T11:23:50Z</time>
      </trkpt>
      <trkpt lat="42.69192" lon="1.71828">
        <ele>1747</ele>
        <time>2018-01-13T11:24:06Z</time>
      </trkpt>
      <trkpt lat="42.69192" lon="1.71833">
        <ele>1747</ele>
        <time>2018-01-13T11:24:11Z</time>
      </trkpt>
      <trkpt lat="42.6919" lon="1.71847">
        <ele>1751</ele>
        <time>2018-01-13T11:24:26Z</time>
      </trkpt>
      <trkpt lat="42.69186" lon="1.71861">
        <ele>1752</ele>
        <time>2018-01-13T11:24:41Z</time>
      </trkpt>
      <trkpt lat="42.69178" lon="1.71875">
        <ele>1752</ele>
        <time>2018-01-13T11:24:57Z</time>
      </trkpt>
      <trkpt lat="42.69174" lon="1.71888">
        <ele>1752</ele>
        <time>2018-01-13T11:25:12Z</time>
      </trkpt>
      <trkpt lat="42.69172" lon="1.71894">
        <ele>1752</ele>
        <time>2018-01-13T11:25:32Z</time>
      </trkpt>
      <trkpt lat="42.6917" lon="1.71904">
        <ele>1751</ele>
        <time>2018-01-13T11:25:45Z</time>
      </trkpt>
      <trkpt lat="42.69169" lon="1.71908">
        <ele>1750</ele>
        <time>2018-01-13T11:25:49Z</time>
      </trkpt>
      <trkpt lat="42.69169" lon="1.71919">
        <ele>1750</ele>
        <time>2018-01-13T11:26:06Z</time>
      </trkpt>
      <trkpt lat="42.69168" lon="1.71932">
        <ele>1757</ele>
        <time>2018-01-13T11:26:23Z</time>
      </trkpt>
      <trkpt lat="42.69171" lon="1.71936">
        <ele>1760</ele>
        <time>2018-01-13T11:26:41Z</time>
      </trkpt>
      <trkpt lat="42.6917" lon="1.71937">
        <ele>1760</ele>
        <time>2018-01-13T11:26:57Z</time>
      </trkpt>
      <trkpt lat="42.69169" lon="1.71939">
        <ele>1760</ele>
        <time>2018-01-13T11:27:16Z</time>
      </trkpt>
      <trkpt lat="42.69168" lon="1.7194">
        <ele>1760</ele>
        <time>2018-01-13T11:27:31Z</time>
      </trkpt>
      <trkpt lat="42.69164" lon="1.7194">
        <ele>1749</ele>
        <time>2018-01-13T11:27:47Z</time>
      </trkpt>
      <trkpt lat="42.69155" lon="1.7195">
        <ele>1750</ele>
        <time>2018-01-13T11:28:03Z</time>
      </trkpt>
      <trkpt lat="42.69145" lon="1.71958">
        <ele>1751</ele>
        <time>2018-01-13T11:28:19Z</time>
      </trkpt>
      <trkpt lat="42.69137" lon="1.71968">
        <ele>1751</ele>
        <time>2018-01-13T11:28:35Z</time>
      </trkpt>
      <trkpt lat="42.69132" lon="1.7198">
        <ele>1752</ele>
        <time>2018-01-13T11:28:51Z</time>
      </trkpt>
      <trkpt lat="42.69124" lon="1.71996">
        <ele>1752</ele>
        <time>2018-01-13T11:29:10Z</time>
      </trkpt>
      <trkpt lat="42.69122" lon="1.71999">
        <ele>1752</ele>
        <time>2018-01-13T11:29:16Z</time>
      </trkpt>
      <trkpt lat="42.69115" lon="1.72004">
        <ele>1760</ele>
        <time>2018-01-13T11:29:32Z</time>
      </trkpt>
      <trkpt lat="42.6911" lon="1.72015">
        <ele>1760</ele>
        <time>2018-01-13T11:29:50Z</time>
      </trkpt>
      <trkpt lat="42.69107" lon="1.72024">
        <ele>1761</ele>
        <time>2018-01-13T11:29:59Z</time>
      </trkpt>
      <trkpt lat="42.69111" lon="1.72039">
        <ele>1764</ele>
        <time>2018-01-13T11:30:16Z</time>
      </trkpt>
      <trkpt lat="42.69109" lon="1.72051">
        <ele>1765</ele>
        <time>2018-01-13T11:30:32Z</time>
      </trkpt>
      <trkpt lat="42.69104" lon="1.72054">
        <ele>1765</ele>
        <time>2018-01-13T11:30:47Z</time>
      </trkpt>
      <trkpt lat="42.691" lon="1.72055">
        <ele>1765</ele>
        <time>2018-01-13T11:31:06Z</time>
      </trkpt>
      <trkpt lat="42.69091" lon="1.72055">
        <ele>1765</ele>
        <time>2018-01-13T11:31:22Z</time>
      </trkpt>
      <trkpt lat="42.69082" lon="1.72061">
        <ele>1763</ele>
        <time>2018-01-13T11:31:40Z</time>
      </trkpt>
      <trkpt lat="42.69071" lon="1.72067">
        <ele>1763</ele>
        <time>2018-01-13T11:31:59Z</time>
      </trkpt>
      <trkpt lat="42.69061" lon="1.72073">
        <ele>1763</ele>
        <time>2018-01-13T11:32:15Z</time>
      </trkpt>
      <trkpt lat="42.69055" lon="1.72088">
        <ele>1771</ele>
        <time>2018-01-13T11:32:35Z</time>
      </trkpt>
      <trkpt lat="42.69048" lon="1.72098">
        <ele>1772</ele>
        <time>2018-01-13T11:32:52Z</time>
      </trkpt>
      <trkpt lat="42.69039" lon="1.72103">
        <ele>1773</ele>
        <time>2018-01-13T11:33:12Z</time>
      </trkpt>
      <trkpt lat="42.69037" lon="1.72118">
        <ele>1774</ele>
        <time>2018-01-13T11:33:31Z</time>
      </trkpt>
      <trkpt lat="42.69037" lon="1.72134">
        <ele>1775</ele>
        <time>2018-01-13T11:33:51Z</time>
      </trkpt>
      <trkpt lat="42.69038" lon="1.72151">
        <ele>1776</ele>
        <time>2018-01-13T11:34:10Z</time>
      </trkpt>
      <trkpt lat="42.69033" lon="1.72156">
        <ele>1776</ele>
        <time>2018-01-13T11:34:26Z</time>
      </trkpt>
      <trkpt lat="42.69029" lon="1.7216">
        <ele>1776</ele>
        <time>2018-01-13T11:34:42Z</time>
      </trkpt>
      <trkpt lat="42.69027" lon="1.72174">
        <ele>1784</ele>
        <time>2018-01-13T11:35:00Z</time>
      </trkpt>
      <trkpt lat="42.69023" lon="1.72187">
        <ele>1785</ele>
        <time>2018-01-13T11:35:19Z</time>
      </trkpt>
      <trkpt lat="42.6902" lon="1.72196">
        <ele>1786</ele>
        <time>2018-01-13T11:35:33Z</time>
      </trkpt>
      <trkpt lat="42.69017" lon="1.72205">
        <ele>1787</ele>
        <time>2018-01-13T11:35:50Z</time>
      </trkpt>
      <trkpt lat="42.69015" lon="1.72207">
        <ele>1787</ele>
        <time>2018-01-13T11:36:09Z</time>
      </trkpt>
      <trkpt lat="42.69014" lon="1.72219">
        <ele>1788</ele>
        <time>2018-01-13T11:36:29Z</time>
      </trkpt>
      <trkpt lat="42.69015" lon="1.72232">
        <ele>1789</ele>
        <time>2018-01-13T11:36:45Z</time>
      </trkpt>
      <trkpt lat="42.69015" lon="1.72241">
        <ele>1789</ele>
        <time>2018-01-13T11:37:03Z</time>
      </trkpt>
      <trkpt lat="42.69014" lon="1.72252">
        <ele>1795</ele>
        <time>2018-01-13T11:37:21Z</time>
      </trkpt>
      <trkpt lat="42.69019" lon="1.72265">
        <ele>1797</ele>
        <time>2018-01-13T11:37:39Z</time>
      </trkpt>
      <trkpt lat="42.6902" lon="1.72276">
        <ele>1799</ele>
        <time>2018-01-13T11:37:55Z</time>
      </trkpt>
      <trkpt lat="42.69019" lon="1.7229">
        <ele>1801</ele>
        <time>2018-01-13T11:38:14Z</time>
      </trkpt>
      <trkpt lat="42.69022" lon="1.72299">
        <ele>1802</ele>
        <time>2018-01-13T11:38:31Z</time>
      </trkpt>
      <trkpt lat="42.69025" lon="1.72308">
        <ele>1802</ele>
        <time>2018-01-13T11:38:49Z</time>
      </trkpt>
      <trkpt lat="42.69026" lon="1.72321">
        <ele>1803</ele>
        <time>2018-01-13T11:39:07Z</time>
      </trkpt>
      <trkpt lat="42.6903" lon="1.72333">
        <ele>1804</ele>
        <time>2018-01-13T11:39:28Z</time>
      </trkpt>
      <trkpt lat="42.69034" lon="1.72343">
        <ele>1813</ele>
        <time>2018-01-13T11:39:43Z</time>
      </trkpt>
      <trkpt lat="42.69044" lon="1.72353">
        <ele>1815</ele>
        <time>2018-01-13T11:40:02Z</time>
      </trkpt>
      <trkpt lat="42.69044" lon="1.7236">
        <ele>1815</ele>
        <time>2018-01-13T11:40:17Z</time>
      </trkpt>
      <trkpt lat="42.69042" lon="1.72365">
        <ele>1815</ele>
        <time>2018-01-13T11:40:32Z</time>
      </trkpt>
      <trkpt lat="42.6904" lon="1.72372">
        <ele>1816</ele>
        <time>2018-01-13T11:40:46Z</time>
      </trkpt>
      <trkpt lat="42.69039" lon="1.72384">
        <ele>1816</ele>
        <time>2018-01-13T11:41:01Z</time>
      </trkpt>
      <trkpt lat="42.69035" lon="1.72395">
        <ele>1817</ele>
        <time>2018-01-13T11:41:19Z</time>
      </trkpt>
      <trkpt lat="42.69031" lon="1.72403">
        <ele>1816</ele>
        <time>2018-01-13T11:41:37Z</time>
      </trkpt>
      <trkpt lat="42.6903" lon="1.72413">
        <ele>1817</ele>
        <time>2018-01-13T11:41:53Z</time>
      </trkpt>
      <trkpt lat="42.69027" lon="1.72422">
        <ele>1823</ele>
        <time>2018-01-13T11:42:07Z</time>
      </trkpt>
      <trkpt lat="42.69029" lon="1.72431">
        <ele>1824</ele>
        <time>2018-01-13T11:42:23Z</time>
      </trkpt>
      <trkpt lat="42.6903" lon="1.7244">
        <ele>1825</ele>
        <time>2018-01-13T11:42:40Z</time>
      </trkpt>
      <trkpt lat="42.69028" lon="1.72448">
        <ele>1826</ele>
        <time>2018-01-13T11:42:58Z</time>
      </trkpt>
      <trkpt lat="42.69026" lon="1.72455">
        <ele>1826</ele>
        <time>2018-01-13T11:43:16Z</time>
      </trkpt>
      <trkpt lat="42.69029" lon="1.72459">
        <ele>1827</ele>
        <time>2018-01-13T11:43:36Z</time>
      </trkpt>
      <trkpt lat="42.69028" lon="1.72459">
        <ele>1827</ele>
        <time>2018-01-13T11:44:10Z</time>
      </trkpt>
      <trkpt lat="42.69029" lon="1.72471">
        <ele>1828</ele>
        <time>2018-01-13T11:44:33Z</time>
      </trkpt>
      <trkpt lat="42.69029" lon="1.7248">
        <ele>1828</ele>
        <time>2018-01-13T11:44:49Z</time>
      </trkpt>
      <trkpt lat="42.69028" lon="1.72489">
        <ele>1828</ele>
        <time>2018-01-13T11:45:08Z</time>
      </trkpt>
      <trkpt lat="42.69027" lon="1.7249">
        <ele>1828</ele>
        <time>2018-01-13T11:45:18Z</time>
      </trkpt>
      <trkpt lat="42.69022" lon="1.72502">
        <ele>1835</ele>
        <time>2018-01-13T11:45:35Z</time>
      </trkpt>
      <trkpt lat="42.6902" lon="1.72508">
        <ele>1835</ele>
        <time>2018-01-13T11:45:49Z</time>
      </trkpt>
      <trkpt lat="42.6902" lon="1.72517">
        <ele>1837</ele>
        <time>2018-01-13T11:46:05Z</time>
      </trkpt>
      <trkpt lat="42.69018" lon="1.72519">
        <ele>1837</ele>
        <time>2018-01-13T11:46:11Z</time>
      </trkpt>
      <trkpt lat="42.69015" lon="1.72529">
        <ele>1838</ele>
        <time>2018-01-13T11:46:27Z</time>
      </trkpt>
      <trkpt lat="42.69013" lon="1.72536">
        <ele>1840</ele>
        <time>2018-01-13T11:46:46Z</time>
      </trkpt>
      <trkpt lat="42.69007" lon="1.72542">
        <ele>1840</ele>
        <time>2018-01-13T11:47:01Z</time>
      </trkpt>
      <trkpt lat="42.68999" lon="1.72544">
        <ele>1829</ele>
        <time>2018-01-13T11:47:15Z</time>
      </trkpt>
      <trkpt lat="42.68993" lon="1.72547">
        <ele>1830</ele>
        <time>2018-01-13T11:47:33Z</time>
      </trkpt>
      <trkpt lat="42.68983" lon="1.72553">
        <ele>1830</ele>
        <time>2018-01-13T11:47:48Z</time>
      </trkpt>
      <trkpt lat="42.68977" lon="1.72557">
        <ele>1830</ele>
        <time>2018-01-13T11:48:03Z</time>
      </trkpt>
      <trkpt lat="42.68973" lon="1.72564">
        <ele>1831</ele>
        <time>2018-01-13T11:48:17Z</time>
      </trkpt>
      <trkpt lat="42.68967" lon="1.72572">
        <ele>1831</ele>
        <time>2018-01-13T11:48:36Z</time>
      </trkpt>
      <trkpt lat="42.68963" lon="1.72584">
        <ele>1840</ele>
        <time>2018-01-13T11:48:51Z</time>
      </trkpt>
      <trkpt lat="42.68959" lon="1.72594">
        <ele>1841</ele>
        <time>2018-01-13T11:49:06Z</time>
      </trkpt>
      <trkpt lat="42.68955" lon="1.72601">
        <ele>1841</ele>
        <time>2018-01-13T11:49:21Z</time>
      </trkpt>
      <trkpt lat="42.68951" lon="1.72612">
        <ele>1842</ele>
        <time>2018-01-13T11:49:38Z</time>
      </trkpt>
      <trkpt lat="42.6895" lon="1.72624">
        <ele>1843</ele>
        <time>2018-01-13T11:49:54Z</time>
      </trkpt>
      <trkpt lat="42.68945" lon="1.7263">
        <ele>1844</ele>
        <time>2018-01-13T11:50:11Z</time>
      </trkpt>
      <trkpt lat="42.68941" lon="1.72633">
        <ele>1844</ele>
        <time>2018-01-13T11:50:29Z</time>
      </trkpt>
      <trkpt lat="42.68934" lon="1.72636">
        <ele>1844</ele>
        <time>2018-01-13T11:50:46Z</time>
      </trkpt>
      <trkpt lat="42.68927" lon="1.72645">
        <ele>1844</ele>
        <time>2018-01-13T11:51:05Z</time>
      </trkpt>
      <trkpt lat="42.68922" lon="1.7265">
        <ele>1845</ele>
        <time>2018-01-13T11:51:21Z</time>
      </trkpt>
      <trkpt lat="42.68919" lon="1.72652">
        <ele>1845</ele>
        <time>2018-01-13T11:51:37Z</time>
      </trkpt>
      <trkpt lat="42.68915" lon="1.72648">
        <ele>1845</ele>
        <time>2018-01-13T11:51:53Z</time>
      </trkpt>
      <trkpt lat="42.68914" lon="1.72646">
        <ele>1845</ele>
        <time>2018-01-13T11:52:09Z</time>
      </trkpt>
      <trkpt lat="42.68913" lon="1.72646">
        <ele>1845</ele>
        <time>2018-01-13T11:52:35Z</time>
      </trkpt>
      <trkpt lat="42.68911" lon="1.7265">
        <ele>1846</ele>
        <time>2018-01-13T11:52:56Z</time>
      </trkpt>
      <trkpt lat="42.68908" lon="1.72659">
        <ele>1846</ele>
        <time>2018-01-13T11:53:13Z</time>
      </trkpt>
      <trkpt lat="42.68905" lon="1.7266">
        <ele>1846</ele>
        <time>2018-01-13T11:53:33Z</time>
      </trkpt>
      <trkpt lat="42.68903" lon="1.72661">
        <ele>1846</ele>
        <time>2018-01-13T11:53:52Z</time>
      </trkpt>
      <trkpt lat="42.68901" lon="1.72666">
        <ele>1847</ele>
        <time>2018-01-13T11:54:43Z</time>
      </trkpt>
      <trkpt lat="42.68899" lon="1.7267">
        <ele>1854</ele>
        <time>2018-01-13T11:59:48Z</time>
      </trkpt>
      <trkpt lat="42.68896" lon="1.72679">
        <ele>1856</ele>
        <time>2018-01-13T12:00:06Z</time>
      </trkpt>
      <trkpt lat="42.68892" lon="1.72686">
        <ele>1857</ele>
        <time>2018-01-13T12:00:24Z</time>
      </trkpt>
      <trkpt lat="42.68888" lon="1.72694">
        <ele>1859</ele>
        <time>2018-01-13T12:00:43Z</time>
      </trkpt>
      <trkpt lat="42.68884" lon="1.72701">
        <ele>1860</ele>
        <time>2018-01-13T12:01:00Z</time>
      </trkpt>
      <trkpt lat="42.68881" lon="1.72705">
        <ele>1860</ele>
        <time>2018-01-13T12:01:20Z</time>
      </trkpt>
      <trkpt lat="42.68877" lon="1.72711">
        <ele>1861</ele>
        <time>2018-01-13T12:01:38Z</time>
      </trkpt>
      <trkpt lat="42.68874" lon="1.72715">
        <ele>1862</ele>
        <time>2018-01-13T12:01:53Z</time>
      </trkpt>
      <trkpt lat="42.6887" lon="1.72716">
        <ele>1862</ele>
        <time>2018-01-13T12:02:09Z</time>
      </trkpt>
      <trkpt lat="42.68865" lon="1.72723">
        <ele>1863</ele>
        <time>2018-01-13T12:02:25Z</time>
      </trkpt>
      <trkpt lat="42.68865" lon="1.72733">
        <ele>1864</ele>
        <time>2018-01-13T12:02:40Z</time>
      </trkpt>
      <trkpt lat="42.68866" lon="1.72744">
        <ele>1865</ele>
        <time>2018-01-13T12:02:56Z</time>
      </trkpt>
      <trkpt lat="42.68865" lon="1.72749">
        <ele>1865</ele>
        <time>2018-01-13T12:03:12Z</time>
      </trkpt>
      <trkpt lat="42.68862" lon="1.72753">
        <ele>1876</ele>
        <time>2018-01-13T12:03:29Z</time>
      </trkpt>
      <trkpt lat="42.68859" lon="1.72758">
        <ele>1877</ele>
        <time>2018-01-13T12:03:47Z</time>
      </trkpt>
      <trkpt lat="42.68855" lon="1.72761">
        <ele>1877</ele>
        <time>2018-01-13T12:04:05Z</time>
      </trkpt>
      <trkpt lat="42.68853" lon="1.72764">
        <ele>1877</ele>
        <time>2018-01-13T12:04:21Z</time>
      </trkpt>
      <trkpt lat="42.68849" lon="1.72765">
        <ele>1877</ele>
        <time>2018-01-13T12:04:37Z</time>
      </trkpt>
      <trkpt lat="42.68845" lon="1.72768">
        <ele>1877</ele>
        <time>2018-01-13T12:04:59Z</time>
      </trkpt>
      <trkpt lat="42.68842" lon="1.7277">
        <ele>1877</ele>
        <time>2018-01-13T12:05:14Z</time>
      </trkpt>
      <trkpt lat="42.68838" lon="1.72774">
        <ele>1878</ele>
        <time>2018-01-13T12:05:30Z</time>
      </trkpt>
      <trkpt lat="42.68834" lon="1.72773">
        <ele>1877</ele>
        <time>2018-01-13T12:05:48Z</time>
      </trkpt>
      <trkpt lat="42.68831" lon="1.72779">
        <ele>1889</ele>
        <time>2018-01-13T12:06:04Z</time>
      </trkpt>
      <trkpt lat="42.68828" lon="1.7278">
        <ele>1889</ele>
        <time>2018-01-13T12:06:23Z</time>
      </trkpt>
      <trkpt lat="42.68825" lon="1.72779">
        <ele>1889</ele>
        <time>2018-01-13T12:06:40Z</time>
      </trkpt>
      <trkpt lat="42.68822" lon="1.72782">
        <ele>1890</ele>
        <time>2018-01-13T12:06:57Z</time>
      </trkpt>
      <trkpt lat="42.68819" lon="1.72791">
        <ele>1892</ele>
        <time>2018-01-13T12:07:15Z</time>
      </trkpt>
      <trkpt lat="42.68818" lon="1.728">
        <ele>1894</ele>
        <time>2018-01-13T12:07:34Z</time>
      </trkpt>
      <trkpt lat="42.68817" lon="1.72808">
        <ele>1894</ele>
        <time>2018-01-13T12:07:49Z</time>
      </trkpt>
      <trkpt lat="42.68816" lon="1.72816">
        <ele>1894</ele>
        <time>2018-01-13T12:08:06Z</time>
      </trkpt>
      <trkpt lat="42.68814" lon="1.7282">
        <ele>1894</ele>
        <time>2018-01-13T12:08:21Z</time>
      </trkpt>
      <trkpt lat="42.68811" lon="1.72822">
        <ele>1895</ele>
        <time>2018-01-13T12:08:37Z</time>
      </trkpt>
      <trkpt lat="42.68808" lon="1.72828">
        <ele>1896</ele>
        <time>2018-01-13T12:08:58Z</time>
      </trkpt>
      <trkpt lat="42.68805" lon="1.72833">
        <ele>1897</ele>
        <time>2018-01-13T12:09:16Z</time>
      </trkpt>
      <trkpt lat="42.68801" lon="1.7284">
        <ele>1906</ele>
        <time>2018-01-13T12:09:33Z</time>
      </trkpt>
      <trkpt lat="42.68798" lon="1.72847">
        <ele>1908</ele>
        <time>2018-01-13T12:09:50Z</time>
      </trkpt>
      <trkpt lat="42.68795" lon="1.72853">
        <ele>1909</ele>
        <time>2018-01-13T12:10:07Z</time>
      </trkpt>
      <trkpt lat="42.68793" lon="1.72856">
        <ele>1910</ele>
        <time>2018-01-13T12:10:25Z</time>
      </trkpt>
      <trkpt lat="42.68791" lon="1.72854">
        <ele>1910</ele>
        <time>2018-01-13T12:10:59Z</time>
      </trkpt>
      <trkpt lat="42.68789" lon="1.72859">
        <ele>1911</ele>
        <time>2018-01-13T12:16:39Z</time>
      </trkpt>
      <trkpt lat="42.68791" lon="1.7286">
        <ele>1910</ele>
        <time>2018-01-13T12:17:11Z</time>
      </trkpt>
      <trkpt lat="42.6879" lon="1.72865">
        <ele>1911</ele>
        <time>2018-01-13T12:17:35Z</time>
      </trkpt>
      <trkpt lat="42.68787" lon="1.7287">
        <ele>1912</ele>
        <time>2018-01-13T12:17:53Z</time>
      </trkpt>
      <trkpt lat="42.68784" lon="1.72878">
        <ele>1913</ele>
        <time>2018-01-13T12:18:13Z</time>
      </trkpt>
      <trkpt lat="42.68781" lon="1.72884">
        <ele>1914</ele>
        <time>2018-01-13T12:18:30Z</time>
      </trkpt>
      <trkpt lat="42.68778" lon="1.72891">
        <ele>1915</ele>
        <time>2018-01-13T12:18:47Z</time>
      </trkpt>
      <trkpt lat="42.68775" lon="1.72896">
        <ele>1916</ele>
        <time>2018-01-13T12:19:03Z</time>
      </trkpt>
      <trkpt lat="42.68775" lon="1.72901">
        <ele>1917</ele>
        <time>2018-01-13T12:19:21Z</time>
      </trkpt>
      <trkpt lat="42.68773" lon="1.72907">
        <ele>1918</ele>
        <time>2018-01-13T12:19:36Z</time>
      </trkpt>
      <trkpt lat="42.68771" lon="1.72911">
        <ele>1919</ele>
        <time>2018-01-13T12:19:51Z</time>
      </trkpt>
      <trkpt lat="42.68771" lon="1.72912">
        <ele>1919</ele>
        <time>2018-01-13T12:20:10Z</time>
      </trkpt>
      <trkpt lat="42.68768" lon="1.72919">
        <ele>1925</ele>
        <time>2018-01-13T12:20:28Z</time>
      </trkpt>
      <trkpt lat="42.68765" lon="1.72926">
        <ele>1926</ele>
        <time>2018-01-13T12:20:43Z</time>
      </trkpt>
      <trkpt lat="42.68762" lon="1.72935">
        <ele>1926</ele>
        <time>2018-01-13T12:20:59Z</time>
      </trkpt>
      <trkpt lat="42.68761" lon="1.72946">
        <ele>1926</ele>
        <time>2018-01-13T12:21:19Z</time>
      </trkpt>
      <trkpt lat="42.68759" lon="1.72955">
        <ele>1926</ele>
        <time>2018-01-13T12:21:40Z</time>
      </trkpt>
      <trkpt lat="42.68757" lon="1.72964">
        <ele>1927</ele>
        <time>2018-01-13T12:21:58Z</time>
      </trkpt>
      <trkpt lat="42.68756" lon="1.72975">
        <ele>1928</ele>
        <time>2018-01-13T12:22:16Z</time>
      </trkpt>
      <trkpt lat="42.68756" lon="1.72984">
        <ele>1930</ele>
        <time>2018-01-13T12:22:31Z</time>
      </trkpt>
      <trkpt lat="42.68755" lon="1.72993">
        <ele>1932</ele>
        <time>2018-01-13T12:22:46Z</time>
      </trkpt>
      <trkpt lat="42.68755" lon="1.73001">
        <ele>1935</ele>
        <time>2018-01-13T12:23:02Z</time>
      </trkpt>
      <trkpt lat="42.68752" lon="1.73011">
        <ele>1936</ele>
        <time>2018-01-13T12:23:17Z</time>
      </trkpt>
      <trkpt lat="42.68752" lon="1.73018">
        <ele>1937</ele>
        <time>2018-01-13T12:23:30Z</time>
      </trkpt>
      <trkpt lat="42.68751" lon="1.73028">
        <ele>1938</ele>
        <time>2018-01-13T12:23:48Z</time>
      </trkpt>
      <trkpt lat="42.68748" lon="1.73039">
        <ele>1948</ele>
        <time>2018-01-13T12:24:07Z</time>
      </trkpt>
      <trkpt lat="42.68746" lon="1.73049">
        <ele>1949</ele>
        <time>2018-01-13T12:24:23Z</time>
      </trkpt>
      <trkpt lat="42.68742" lon="1.7306">
        <ele>1950</ele>
        <time>2018-01-13T12:24:41Z</time>
      </trkpt>
      <trkpt lat="42.68738" lon="1.73068">
        <ele>1950</ele>
        <time>2018-01-13T12:24:59Z</time>
      </trkpt>
      <trkpt lat="42.68733" lon="1.73077">
        <ele>1951</ele>
        <time>2018-01-13T12:25:17Z</time>
      </trkpt>
      <trkpt lat="42.6873" lon="1.73085">
        <ele>1955</ele>
        <time>2018-01-13T12:25:36Z</time>
      </trkpt>
      <trkpt lat="42.68728" lon="1.73092">
        <ele>1956</ele>
        <time>2018-01-13T12:25:53Z</time>
      </trkpt>
      <trkpt lat="42.68726" lon="1.73101">
        <ele>1957</ele>
        <time>2018-01-13T12:26:11Z</time>
      </trkpt>
      <trkpt lat="42.68723" lon="1.7311">
        <ele>1958</ele>
        <time>2018-01-13T12:26:29Z</time>
      </trkpt>
      <trkpt lat="42.68718" lon="1.7312">
        <ele>1959</ele>
        <time>2018-01-13T12:26:47Z</time>
      </trkpt>
      <trkpt lat="42.68715" lon="1.73131">
        <ele>1959</ele>
        <time>2018-01-13T12:27:06Z</time>
      </trkpt>
      <trkpt lat="42.68712" lon="1.73143">
        <ele>1960</ele>
        <time>2018-01-13T12:27:21Z</time>
      </trkpt>
      <trkpt lat="42.68709" lon="1.73156">
        <ele>1961</ele>
        <time>2018-01-13T12:27:38Z</time>
      </trkpt>
      <trkpt lat="42.68706" lon="1.7317">
        <ele>1964</ele>
        <time>2018-01-13T12:27:57Z</time>
      </trkpt>
      <trkpt lat="42.68703" lon="1.73182">
        <ele>1964</ele>
        <time>2018-01-13T12:28:14Z</time>
      </trkpt>
      <trkpt lat="42.68698" lon="1.73192">
        <ele>1965</ele>
        <time>2018-01-13T12:28:30Z</time>
      </trkpt>
      <trkpt lat="42.68694" lon="1.73201">
        <ele>1965</ele>
        <time>2018-01-13T12:28:46Z</time>
      </trkpt>
      <trkpt lat="42.68691" lon="1.73208">
        <ele>1965</ele>
        <time>2018-01-13T12:29:00Z</time>
      </trkpt>
      <trkpt lat="42.68684" lon="1.73214">
        <ele>1966</ele>
        <time>2018-01-13T12:29:16Z</time>
      </trkpt>
      <trkpt lat="42.68677" lon="1.73226">
        <ele>1967</ele>
        <time>2018-01-13T12:32:31Z</time>
      </trkpt>
      <trkpt lat="42.68673" lon="1.73226">
        <ele>1967</ele>
        <time>2018-01-13T12:35:27Z</time>
      </trkpt>
      <trkpt lat="42.68665" lon="1.73222">
        <ele>1974</ele>
        <time>2018-01-13T12:35:45Z</time>
      </trkpt>
      <trkpt lat="42.68654" lon="1.73216">
        <ele>1974</ele>
        <time>2018-01-13T12:36:07Z</time>
      </trkpt>
      <trkpt lat="42.68649" lon="1.73213">
        <ele>1975</ele>
        <time>2018-01-13T12:36:25Z</time>
      </trkpt>
      <trkpt lat="42.68648" lon="1.73213">
        <ele>1975</ele>
        <time>2018-01-13T12:36:41Z</time>
      </trkpt>
      <trkpt lat="42.68647" lon="1.73212">
        <ele>1975</ele>
        <time>2018-01-13T12:36:56Z</time>
      </trkpt>
      <trkpt lat="42.68647" lon="1.73212">
        <ele>1975</ele>
        <time>2018-01-13T12:37:24Z</time>
      </trkpt>
      <trkpt lat="42.68647" lon="1.73213">
        <ele>1975</ele>
        <time>2018-01-13T12:37:42Z</time>
      </trkpt>
      <trkpt lat="42.68647" lon="1.73212">
        <ele>1975</ele>
        <time>2018-01-13T12:37:48Z</time>
      </trkpt>
      <trkpt lat="42.68647" lon="1.73212">
        <ele>1975</ele>
        <time>2018-01-13T12:37:54Z</time>
      </trkpt>
      <trkpt lat="42.68647" lon="1.73212">
        <ele>1975</ele>
        <time>2018-01-13T12:38:14Z</time>
      </trkpt>
      <trkpt lat="42.68648" lon="1.73214">
        <ele>1975</ele>
        <time>2018-01-13T12:38:38Z</time>
      </trkpt>
      <trkpt lat="42.68648" lon="1.73214">
        <ele>1975</ele>
        <time>2018-01-13T12:38:46Z</time>
      </trkpt>
      <trkpt lat="42.68647" lon="1.73214">
        <ele>1975</ele>
        <time>2018-01-13T12:38:55Z</time>
      </trkpt>
      <trkpt lat="42.68646" lon="1.73212">
        <ele>1975</ele>
        <time>2018-01-13T12:39:17Z</time>
      </trkpt>
      <trkpt lat="42.6864" lon="1.73208">
        <ele>1975</ele>
        <time>2018-01-13T12:39:36Z</time>
      </trkpt>
      <trkpt lat="42.68639" lon="1.73208">
        <ele>1975</ele>
        <time>2018-01-13T12:40:02Z</time>
      </trkpt>
      <trkpt lat="42.68634" lon="1.73203">
        <ele>1976</ele>
        <time>2018-01-13T12:40:20Z</time>
      </trkpt>
      <trkpt lat="42.68626" lon="1.73196">
        <ele>1976</ele>
        <time>2018-01-13T12:40:38Z</time>
      </trkpt>
      <trkpt lat="42.68619" lon="1.73191">
        <ele>1977</ele>
        <time>2018-01-13T12:40:58Z</time>
      </trkpt>
      <trkpt lat="42.68614" lon="1.73185">
        <ele>1978</ele>
        <time>2018-01-13T12:41:13Z</time>
      </trkpt>
      <trkpt lat="42.68609" lon="1.73179">
        <ele>1979</ele>
        <time>2018-01-13T12:41:27Z</time>
      </trkpt>
      <trkpt lat="42.68603" lon="1.73171">
        <ele>1980</ele>
        <time>2018-01-13T12:41:46Z</time>
      </trkpt>
      <trkpt lat="42.68596" lon="1.73168">
        <ele>1982</ele>
        <time>2018-01-13T12:42:05Z</time>
      </trkpt>
      <trkpt lat="42.68589" lon="1.73164">
        <ele>1984</ele>
        <time>2018-01-13T12:42:24Z</time>
      </trkpt>
      <trkpt lat="42.68583" lon="1.7316">
        <ele>1989</ele>
        <time>2018-01-13T12:42:40Z</time>
      </trkpt>
      <trkpt lat="42.68578" lon="1.73155">
        <ele>1992</ele>
        <time>2018-01-13T12:42:55Z</time>
      </trkpt>
      <trkpt lat="42.68572" lon="1.73151">
        <ele>1994</ele>
        <time>2018-01-13T12:43:13Z</time>
      </trkpt>
      <trkpt lat="42.68568" lon="1.73146">
        <ele>1995</ele>
        <time>2018-01-13T12:43:27Z</time>
      </trkpt>
      <trkpt lat="42.68564" lon="1.73142">
        <ele>1996</ele>
        <time>2018-01-13T12:43:42Z</time>
      </trkpt>
      <trkpt lat="42.6856" lon="1.7314">
        <ele>1997</ele>
        <time>2018-01-13T12:43:58Z</time>
      </trkpt>
      <trkpt lat="42.68555" lon="1.73133">
        <ele>1998</ele>
        <time>2018-01-13T12:44:16Z</time>
      </trkpt>
      <trkpt lat="42.68549" lon="1.73131">
        <ele>1999</ele>
        <time>2018-01-13T12:44:33Z</time>
      </trkpt>
      <trkpt lat="42.68543" lon="1.73127">
        <ele>2000</ele>
        <time>2018-01-13T12:44:51Z</time>
      </trkpt>
      <trkpt lat="42.68538" lon="1.73121">
        <ele>2001</ele>
        <time>2018-01-13T12:45:09Z</time>
      </trkpt>
      <trkpt lat="42.68532" lon="1.73113">
        <ele>2003</ele>
        <time>2018-01-13T12:45:26Z</time>
      </trkpt>
      <trkpt lat="42.68524" lon="1.73107">
        <ele>2005</ele>
        <time>2018-01-13T12:45:45Z</time>
      </trkpt>
      <trkpt lat="42.6852" lon="1.731">
        <ele>2007</ele>
        <time>2018-01-13T12:46:02Z</time>
      </trkpt>
      <trkpt lat="42.68519" lon="1.73098">
        <ele>2007</ele>
        <time>2018-01-13T12:46:06Z</time>
      </trkpt>
      <trkpt lat="42.68514" lon="1.73093">
        <ele>2009</ele>
        <time>2018-01-13T12:46:25Z</time>
      </trkpt>
      <trkpt lat="42.68512" lon="1.7309">
        <ele>2011</ele>
        <time>2018-01-13T12:46:36Z</time>
      </trkpt>
      <trkpt lat="42.68507" lon="1.73084">
        <ele>2014</ele>
        <time>2018-01-13T12:46:52Z</time>
      </trkpt>
      <trkpt lat="42.68502" lon="1.73078">
        <ele>2016</ele>
        <time>2018-01-13T12:47:08Z</time>
      </trkpt>
      <trkpt lat="42.68497" lon="1.73074">
        <ele>2023</ele>
        <time>2018-01-13T12:47:27Z</time>
      </trkpt>
      <trkpt lat="42.68492" lon="1.73068">
        <ele>2025</ele>
        <time>2018-01-13T12:47:46Z</time>
      </trkpt>
      <trkpt lat="42.68488" lon="1.73064">
        <ele>2027</ele>
        <time>2018-01-13T12:48:03Z</time>
      </trkpt>
      <trkpt lat="42.68484" lon="1.73058">
        <ele>2028</ele>
        <time>2018-01-13T12:48:21Z</time>
      </trkpt>
      <trkpt lat="42.6848" lon="1.73053">
        <ele>2029</ele>
        <time>2018-01-13T12:48:38Z</time>
      </trkpt>
      <trkpt lat="42.6848" lon="1.73052">
        <ele>2029</ele>
        <time>2018-01-13T12:48:42Z</time>
      </trkpt>
      <trkpt lat="42.68476" lon="1.73045">
        <ele>2030</ele>
        <time>2018-01-13T12:48:59Z</time>
      </trkpt>
      <trkpt lat="42.68471" lon="1.73038">
        <ele>2031</ele>
        <time>2018-01-13T12:49:15Z</time>
      </trkpt>
      <trkpt lat="42.68466" lon="1.73032">
        <ele>2032</ele>
        <time>2018-01-13T12:49:31Z</time>
      </trkpt>
      <trkpt lat="42.68462" lon="1.73026">
        <ele>2033</ele>
        <time>2018-01-13T12:49:48Z</time>
      </trkpt>
      <trkpt lat="42.68459" lon="1.73022">
        <ele>2033</ele>
        <time>2018-01-13T12:50:05Z</time>
      </trkpt>
      <trkpt lat="42.68458" lon="1.73021">
        <ele>2033</ele>
        <time>2018-01-13T12:50:24Z</time>
      </trkpt>
      <trkpt lat="42.68456" lon="1.73021">
        <ele>2034</ele>
        <time>2018-01-13T12:51:03Z</time>
      </trkpt>
      <trkpt lat="42.68456" lon="1.73023">
        <ele>2034</ele>
        <time>2018-01-13T12:51:44Z</time>
      </trkpt>
      <trkpt lat="42.68455" lon="1.73024">
        <ele>2034</ele>
        <time>2018-01-13T12:52:13Z</time>
      </trkpt>
      <trkpt lat="42.68455" lon="1.73021">
        <ele>2034</ele>
        <time>2018-01-13T12:52:39Z</time>
      </trkpt>
      <trkpt lat="42.68452" lon="1.73013">
        <ele>2035</ele>
        <time>2018-01-13T12:52:57Z</time>
      </trkpt>
      <trkpt lat="42.68447" lon="1.73006">
        <ele>2036</ele>
        <time>2018-01-13T12:53:15Z</time>
      </trkpt>
      <trkpt lat="42.68442" lon="1.73001">
        <ele>2037</ele>
        <time>2018-01-13T12:53:33Z</time>
      </trkpt>
      <trkpt lat="42.68438" lon="1.72996">
        <ele>2040</ele>
        <time>2018-01-13T12:53:53Z</time>
      </trkpt>
      <trkpt lat="42.68434" lon="1.7299">
        <ele>2040</ele>
        <time>2018-01-13T12:54:10Z</time>
      </trkpt>
      <trkpt lat="42.68429" lon="1.72982">
        <ele>2040</ele>
        <time>2018-01-13T12:54:29Z</time>
      </trkpt>
      <trkpt lat="42.68424" lon="1.72976">
        <ele>2040</ele>
        <time>2018-01-13T12:54:47Z</time>
      </trkpt>
      <trkpt lat="42.6842" lon="1.7297">
        <ele>2040</ele>
        <time>2018-01-13T12:55:04Z</time>
      </trkpt>
      <trkpt lat="42.68416" lon="1.72963">
        <ele>2057</ele>
        <time>2018-01-13T12:55:21Z</time>
      </trkpt>
      <trkpt lat="42.68411" lon="1.72957">
        <ele>2057</ele>
        <time>2018-01-13T12:55:38Z</time>
      </trkpt>
      <trkpt lat="42.68405" lon="1.72951">
        <ele>2058</ele>
        <time>2018-01-13T12:55:56Z</time>
      </trkpt>
      <trkpt lat="42.68401" lon="1.72946">
        <ele>2058</ele>
        <time>2018-01-13T12:56:12Z</time>
      </trkpt>
      <trkpt lat="42.68395" lon="1.72941">
        <ele>2059</ele>
        <time>2018-01-13T12:56:29Z</time>
      </trkpt>
      <trkpt lat="42.68391" lon="1.72935">
        <ele>2059</ele>
        <time>2018-01-13T12:56:47Z</time>
      </trkpt>
      <trkpt lat="42.68385" lon="1.7293">
        <ele>2060</ele>
        <time>2018-01-13T12:57:06Z</time>
      </trkpt>
      <trkpt lat="42.6838" lon="1.72924">
        <ele>2061</ele>
        <time>2018-01-13T12:57:26Z</time>
      </trkpt>
      <trkpt lat="42.68376" lon="1.72918">
        <ele>2062</ele>
        <time>2018-01-13T12:57:42Z</time>
      </trkpt>
      <trkpt lat="42.68373" lon="1.72913">
        <ele>2066</ele>
        <time>2018-01-13T12:57:59Z</time>
      </trkpt>
      <trkpt lat="42.6837" lon="1.72908">
        <ele>2067</ele>
        <time>2018-01-13T12:58:12Z</time>
      </trkpt>
      <trkpt lat="42.6837" lon="1.72908">
        <ele>2067</ele>
        <time>2018-01-13T12:58:14Z</time>
      </trkpt>
      <trkpt lat="42.68366" lon="1.72904">
        <ele>2068</ele>
        <time>2018-01-13T12:58:30Z</time>
      </trkpt>
      <trkpt lat="42.68361" lon="1.72899">
        <ele>2069</ele>
        <time>2018-01-13T12:58:46Z</time>
      </trkpt>
      <trkpt lat="42.68358" lon="1.72894">
        <ele>2069</ele>
        <time>2018-01-13T12:59:04Z</time>
      </trkpt>
      <trkpt lat="42.68355" lon="1.72889">
        <ele>2070</ele>
        <time>2018-01-13T12:59:22Z</time>
      </trkpt>
      <trkpt lat="42.68352" lon="1.72885">
        <ele>2070</ele>
        <time>2018-01-13T12:59:38Z</time>
      </trkpt>
      <trkpt lat="42.68348" lon="1.7288">
        <ele>2071</ele>
        <time>2018-01-13T12:59:55Z</time>
      </trkpt>
      <trkpt lat="42.68347" lon="1.72879">
        <ele>2071</ele>
        <time>2018-01-13T13:00:13Z</time>
      </trkpt>
      <trkpt lat="42.68348" lon="1.7288">
        <ele>2071</ele>
        <time>2018-01-13T13:00:48Z</time>
      </trkpt>
      <trkpt lat="42.68348" lon="1.72881">
        <ele>2071</ele>
        <time>2018-01-13T13:01:23Z</time>
      </trkpt>
      <trkpt lat="42.68347" lon="1.72881">
        <ele>2071</ele>
        <time>2018-01-13T13:02:02Z</time>
      </trkpt>
      <trkpt lat="42.68347" lon="1.72879">
        <ele>2071</ele>
        <time>2018-01-13T13:02:48Z</time>
      </trkpt>
      <trkpt lat="42.68344" lon="1.72872">
        <ele>2072</ele>
        <time>2018-01-13T13:03:04Z</time>
      </trkpt>
      <trkpt lat="42.68343" lon="1.72865">
        <ele>2073</ele>
        <time>2018-01-13T13:03:20Z</time>
      </trkpt>
      <trkpt lat="42.68341" lon="1.72858">
        <ele>2074</ele>
        <time>2018-01-13T13:03:38Z</time>
      </trkpt>
      <trkpt lat="42.68337" lon="1.72856">
        <ele>2075</ele>
        <time>2018-01-13T13:03:54Z</time>
      </trkpt>
      <trkpt lat="42.68333" lon="1.72856">
        <ele>2089</ele>
        <time>2018-01-13T13:04:11Z</time>
      </trkpt>
      <trkpt lat="42.6833" lon="1.72856">
        <ele>2089</ele>
        <time>2018-01-13T13:04:28Z</time>
      </trkpt>
      <trkpt lat="42.68328" lon="1.72854">
        <ele>2089</ele>
        <time>2018-01-13T13:04:43Z</time>
      </trkpt>
      <trkpt lat="42.68327" lon="1.72845">
        <ele>2089</ele>
        <time>2018-01-13T13:05:02Z</time>
      </trkpt>
      <trkpt lat="42.68327" lon="1.72838">
        <ele>2088</ele>
        <time>2018-01-13T13:05:21Z</time>
      </trkpt>
      <trkpt lat="42.68326" lon="1.72832">
        <ele>2092</ele>
        <time>2018-01-13T13:05:39Z</time>
      </trkpt>
      <trkpt lat="42.6832" lon="1.72834">
        <ele>2090</ele>
        <time>2018-01-13T13:05:57Z</time>
      </trkpt>
      <trkpt lat="42.68315" lon="1.72834">
        <ele>2091</ele>
        <time>2018-01-13T13:06:15Z</time>
      </trkpt>
      <trkpt lat="42.6831" lon="1.72833">
        <ele>2099</ele>
        <time>2018-01-13T13:06:31Z</time>
      </trkpt>
      <trkpt lat="42.68307" lon="1.72834">
        <ele>2092</ele>
        <time>2018-01-13T13:06:50Z</time>
      </trkpt>
      <trkpt lat="42.68305" lon="1.72832">
        <ele>2101</ele>
        <time>2018-01-13T13:07:09Z</time>
      </trkpt>
      <trkpt lat="42.68305" lon="1.72825">
        <ele>2101</ele>
        <time>2018-01-13T13:07:25Z</time>
      </trkpt>
      <trkpt lat="42.68305" lon="1.72818">
        <ele>2102</ele>
        <time>2018-01-13T13:07:39Z</time>
      </trkpt>
      <trkpt lat="42.68303" lon="1.7281">
        <ele>2103</ele>
        <time>2018-01-13T13:07:54Z</time>
      </trkpt>
      <trkpt lat="42.68302" lon="1.72805">
        <ele>2104</ele>
        <time>2018-01-13T13:08:11Z</time>
      </trkpt>
      <trkpt lat="42.68297" lon="1.72806">
        <ele>2105</ele>
        <time>2018-01-13T13:08:29Z</time>
      </trkpt>
      <trkpt lat="42.68293" lon="1.72808">
        <ele>2105</ele>
        <time>2018-01-13T13:08:47Z</time>
      </trkpt>
      <trkpt lat="42.68288" lon="1.72809">
        <ele>2106</ele>
        <time>2018-01-13T13:09:05Z</time>
      </trkpt>
      <trkpt lat="42.68282" lon="1.72809">
        <ele>2107</ele>
        <time>2018-01-13T13:09:22Z</time>
      </trkpt>
      <trkpt lat="42.68281" lon="1.72801">
        <ele>2108</ele>
        <time>2018-01-13T13:09:40Z</time>
      </trkpt>
      <trkpt lat="42.68279" lon="1.72792">
        <ele>2109</ele>
        <time>2018-01-13T13:09:57Z</time>
      </trkpt>
      <trkpt lat="42.68277" lon="1.72782">
        <ele>2110</ele>
        <time>2018-01-13T13:10:15Z</time>
      </trkpt>
      <trkpt lat="42.68276" lon="1.72774">
        <ele>2111</ele>
        <time>2018-01-13T13:10:31Z</time>
      </trkpt>
      <trkpt lat="42.68273" lon="1.72768">
        <ele>2113</ele>
        <time>2018-01-13T13:10:49Z</time>
      </trkpt>
      <trkpt lat="42.68271" lon="1.72759">
        <ele>2115</ele>
        <time>2018-01-13T13:11:04Z</time>
      </trkpt>
      <trkpt lat="42.68268" lon="1.72752">
        <ele>2117</ele>
        <time>2018-01-13T13:11:22Z</time>
      </trkpt>
      <trkpt lat="42.68264" lon="1.72751">
        <ele>2119</ele>
        <time>2018-01-13T13:11:39Z</time>
      </trkpt>
      <trkpt lat="42.68259" lon="1.72755">
        <ele>2121</ele>
        <time>2018-01-13T13:11:57Z</time>
      </trkpt>
      <trkpt lat="42.68252" lon="1.7276">
        <ele>2121</ele>
        <time>2018-01-13T13:12:16Z</time>
      </trkpt>
      <trkpt lat="42.68247" lon="1.72762">
        <ele>2129</ele>
        <time>2018-01-13T13:12:34Z</time>
      </trkpt>
      <trkpt lat="42.68242" lon="1.72765">
        <ele>2130</ele>
        <time>2018-01-13T13:12:53Z</time>
      </trkpt>
      <trkpt lat="42.68237" lon="1.72767">
        <ele>2130</ele>
        <time>2018-01-13T13:13:09Z</time>
      </trkpt>
      <trkpt lat="42.68234" lon="1.72759">
        <ele>2130</ele>
        <time>2018-01-13T13:13:27Z</time>
      </trkpt>
      <trkpt lat="42.68231" lon="1.72751">
        <ele>2131</ele>
        <time>2018-01-13T13:13:44Z</time>
      </trkpt>
      <trkpt lat="42.68229" lon="1.72741">
        <ele>2136</ele>
        <time>2018-01-13T13:14:03Z</time>
      </trkpt>
      <trkpt lat="42.68226" lon="1.72731">
        <ele>2137</ele>
        <time>2018-01-13T13:14:20Z</time>
      </trkpt>
      <trkpt lat="42.68223" lon="1.72723">
        <ele>2139</ele>
        <time>2018-01-13T13:14:37Z</time>
      </trkpt>
      <trkpt lat="42.6822" lon="1.72714">
        <ele>2139</ele>
        <time>2018-01-13T13:14:54Z</time>
      </trkpt>
      <trkpt lat="42.68217" lon="1.72711">
        <ele>2140</ele>
        <time>2018-01-13T13:15:11Z</time>
      </trkpt>
      <trkpt lat="42.68211" lon="1.72718">
        <ele>2141</ele>
        <time>2018-01-13T13:15:30Z</time>
      </trkpt>
      <trkpt lat="42.68206" lon="1.72723">
        <ele>2141</ele>
        <time>2018-01-13T13:15:47Z</time>
      </trkpt>
      <trkpt lat="42.68201" lon="1.72723">
        <ele>2142</ele>
        <time>2018-01-13T13:16:04Z</time>
      </trkpt>
      <trkpt lat="42.68198" lon="1.72715">
        <ele>2143</ele>
        <time>2018-01-13T13:16:21Z</time>
      </trkpt>
      <trkpt lat="42.68195" lon="1.72706">
        <ele>2143</ele>
        <time>2018-01-13T13:16:36Z</time>
      </trkpt>
      <trkpt lat="42.6819" lon="1.72699">
        <ele>2144</ele>
        <time>2018-01-13T13:16:53Z</time>
      </trkpt>
      <trkpt lat="42.68189" lon="1.72696">
        <ele>2145</ele>
        <time>2018-01-13T13:17:22Z</time>
      </trkpt>
      <trkpt lat="42.68189" lon="1.72698">
        <ele>2145</ele>
        <time>2018-01-13T13:18:02Z</time>
      </trkpt>
      <trkpt lat="42.68189" lon="1.72697">
        <ele>2145</ele>
        <time>2018-01-13T13:18:47Z</time>
      </trkpt>
      <trkpt lat="42.6819" lon="1.72699">
        <ele>2144</ele>
        <time>2018-01-13T13:19:25Z</time>
      </trkpt>
      <trkpt lat="42.68189" lon="1.72699">
        <ele>2145</ele>
        <time>2018-01-13T13:20:05Z</time>
      </trkpt>
      <trkpt lat="42.68191" lon="1.72698">
        <ele>2144</ele>
        <time>2018-01-13T13:20:44Z</time>
      </trkpt>
      <trkpt lat="42.6819" lon="1.72697">
        <ele>2144</ele>
        <time>2018-01-13T13:20:46Z</time>
      </trkpt>
      <trkpt lat="42.68189" lon="1.72697">
        <ele>2145</ele>
        <time>2018-01-13T13:21:10Z</time>
      </trkpt>
      <trkpt lat="42.68189" lon="1.72697">
        <ele>2145</ele>
        <time>2018-01-13T13:21:19Z</time>
      </trkpt>
      <trkpt lat="42.68189" lon="1.72696">
        <ele>2145</ele>
        <time>2018-01-13T13:21:27Z</time>
      </trkpt>
      <trkpt lat="42.6819" lon="1.72698">
        <ele>2144</ele>
        <time>2018-01-13T13:21:55Z</time>
      </trkpt>
      <trkpt lat="42.68189" lon="1.72698">
        <ele>2145</ele>
        <time>2018-01-13T13:22:25Z</time>
      </trkpt>
      <trkpt lat="42.68189" lon="1.72698">
        <ele>2145</ele>
        <time>2018-01-13T13:23:03Z</time>
      </trkpt>
      <trkpt lat="42.68189" lon="1.72697">
        <ele>2145</ele>
        <time>2018-01-13T13:23:50Z</time>
      </trkpt>
      <trkpt lat="42.68191" lon="1.72699">
        <ele>2144</ele>
        <time>2018-01-13T13:24:25Z</time>
      </trkpt>
      <trkpt lat="42.68192" lon="1.72697">
        <ele>2144</ele>
        <time>2018-01-13T13:24:48Z</time>
      </trkpt>
      <trkpt lat="42.68185" lon="1.72693">
        <ele>2146</ele>
        <time>2018-01-13T13:25:06Z</time>
      </trkpt>
      <trkpt lat="42.68179" lon="1.72689">
        <ele>2147</ele>
        <time>2018-01-13T13:25:23Z</time>
      </trkpt>
      <trkpt lat="42.68175" lon="1.72686">
        <ele>2148</ele>
        <time>2018-01-13T13:25:43Z</time>
      </trkpt>
      <trkpt lat="42.68168" lon="1.72683">
        <ele>2150</ele>
        <time>2018-01-13T13:26:02Z</time>
      </trkpt>
      <trkpt lat="42.68163" lon="1.7268">
        <ele>2160</ele>
        <time>2018-01-13T13:26:22Z</time>
      </trkpt>
      <trkpt lat="42.68157" lon="1.72678">
        <ele>2161</ele>
        <time>2018-01-13T13:26:40Z</time>
      </trkpt>
      <trkpt lat="42.68151" lon="1.72676">
        <ele>2162</ele>
        <time>2018-01-13T13:26:57Z</time>
      </trkpt>
      <trkpt lat="42.68145" lon="1.72674">
        <ele>2163</ele>
        <time>2018-01-13T13:27:17Z</time>
      </trkpt>
      <trkpt lat="42.6814" lon="1.72672">
        <ele>2164</ele>
        <time>2018-01-13T13:27:33Z</time>
      </trkpt>
      <trkpt lat="42.68134" lon="1.72671">
        <ele>2165</ele>
        <time>2018-01-13T13:27:52Z</time>
      </trkpt>
      <trkpt lat="42.6813" lon="1.72671">
        <ele>2166</ele>
        <time>2018-01-13T13:28:09Z</time>
      </trkpt>
      <trkpt lat="42.68125" lon="1.72673">
        <ele>2167</ele>
        <time>2018-01-13T13:28:25Z</time>
      </trkpt>
      <trkpt lat="42.68119" lon="1.72674">
        <ele>2169</ele>
        <time>2018-01-13T13:28:43Z</time>
      </trkpt>
      <trkpt lat="42.68114" lon="1.72675">
        <ele>2170</ele>
        <time>2018-01-13T13:28:59Z</time>
      </trkpt>
      <trkpt lat="42.68108" lon="1.72675">
        <ele>2172</ele>
        <time>2018-01-13T13:29:15Z</time>
      </trkpt>
      <trkpt lat="42.68102" lon="1.72676">
        <ele>2173</ele>
        <time>2018-01-13T13:29:33Z</time>
      </trkpt>
      <trkpt lat="42.68096" lon="1.72679">
        <ele>2175</ele>
        <time>2018-01-13T13:29:52Z</time>
      </trkpt>
      <trkpt lat="42.68088" lon="1.72681">
        <ele>2176</ele>
        <time>2018-01-13T13:30:10Z</time>
      </trkpt>
      <trkpt lat="42.68083" lon="1.72685">
        <ele>2181</ele>
        <time>2018-01-13T13:30:31Z</time>
      </trkpt>
      <trkpt lat="42.68077" lon="1.72686">
        <ele>2181</ele>
        <time>2018-01-13T13:30:47Z</time>
      </trkpt>
      <trkpt lat="42.68069" lon="1.7269">
        <ele>2181</ele>
        <time>2018-01-13T13:31:06Z</time>
      </trkpt>
      <trkpt lat="42.68062" lon="1.72694">
        <ele>2180</ele>
        <time>2018-01-13T13:31:24Z</time>
      </trkpt>
      <trkpt lat="42.68057" lon="1.72698">
        <ele>2180</ele>
        <time>2018-01-13T13:31:38Z</time>
      </trkpt>
      <trkpt lat="42.68051" lon="1.72701">
        <ele>2180</ele>
        <time>2018-01-13T13:31:52Z</time>
      </trkpt>
      <trkpt lat="42.68044" lon="1.72704">
        <ele>2180</ele>
        <time>2018-01-13T13:32:09Z</time>
      </trkpt>
      <trkpt lat="42.68039" lon="1.72704">
        <ele>2180</ele>
        <time>2018-01-13T13:32:25Z</time>
      </trkpt>
      <trkpt lat="42.68033" lon="1.72704">
        <ele>2180</ele>
        <time>2018-01-13T13:32:41Z</time>
      </trkpt>
      <trkpt lat="42.68024" lon="1.72699">
        <ele>2181</ele>
        <time>2018-01-13T13:33:00Z</time>
      </trkpt>
      <trkpt lat="42.68015" lon="1.72694">
        <ele>2182</ele>
        <time>2018-01-13T13:33:20Z</time>
      </trkpt>
      <trkpt lat="42.68009" lon="1.72689">
        <ele>2184</ele>
        <time>2018-01-13T13:33:35Z</time>
      </trkpt>
      <trkpt lat="42.68" lon="1.72682">
        <ele>2188</ele>
        <time>2018-01-13T13:33:52Z</time>
      </trkpt>
      <trkpt lat="42.67991" lon="1.72675">
        <ele>2189</ele>
        <time>2018-01-13T13:34:13Z</time>
      </trkpt>
      <trkpt lat="42.67986" lon="1.72675">
        <ele>2188</ele>
        <time>2018-01-13T13:34:30Z</time>
      </trkpt>
      <trkpt lat="42.67987" lon="1.72673">
        <ele>2189</ele>
        <time>2018-01-13T13:35:11Z</time>
      </trkpt>
      <trkpt lat="42.67987" lon="1.72675">
        <ele>2188</ele>
        <time>2018-01-13T13:35:59Z</time>
      </trkpt>
      <trkpt lat="42.67986" lon="1.72674">
        <ele>2188</ele>
        <time>2018-01-13T13:36:25Z</time>
      </trkpt>
      <trkpt lat="42.67979" lon="1.72669">
        <ele>2187</ele>
        <time>2018-01-13T13:36:42Z</time>
      </trkpt>
      <trkpt lat="42.67978" lon="1.72668">
        <ele>2187</ele>
        <time>2018-01-13T13:36:43Z</time>
      </trkpt>
      <trkpt lat="42.67972" lon="1.72664">
        <ele>2197</ele>
        <time>2018-01-13T13:36:53Z</time>
      </trkpt>
      <trkpt lat="42.67963" lon="1.7266">
        <ele>2198</ele>
        <time>2018-01-13T13:37:09Z</time>
      </trkpt>
      <trkpt lat="42.67955" lon="1.7266">
        <ele>2198</ele>
        <time>2018-01-13T13:37:25Z</time>
      </trkpt>
      <trkpt lat="42.67946" lon="1.72662">
        <ele>2199</ele>
        <time>2018-01-13T13:37:44Z</time>
      </trkpt>
      <trkpt lat="42.67941" lon="1.72665">
        <ele>2199</ele>
        <time>2018-01-13T13:38:02Z</time>
      </trkpt>
      <trkpt lat="42.67933" lon="1.72667">
        <ele>2199</ele>
        <time>2018-01-13T13:38:18Z</time>
      </trkpt>
      <trkpt lat="42.6793" lon="1.72669">
        <ele>2192</ele>
        <time>2018-01-13T13:38:35Z</time>
      </trkpt>
      <trkpt lat="42.6793" lon="1.72669">
        <ele>2191</ele>
        <time>2018-01-13T13:39:01Z</time>
      </trkpt>
      <trkpt lat="42.6793" lon="1.72671">
        <ele>2191</ele>
        <time>2018-01-13T13:39:39Z</time>
      </trkpt>
      <trkpt lat="42.67929" lon="1.72671">
        <ele>2191</ele>
        <time>2018-01-13T13:40:19Z</time>
      </trkpt>
      <trkpt lat="42.67931" lon="1.72667">
        <ele>2191</ele>
        <time>2018-01-13T13:40:45Z</time>
      </trkpt>
      <trkpt lat="42.67931" lon="1.72667">
        <ele>2191</ele>
        <time>2018-01-13T13:41:11Z</time>
      </trkpt>
      <trkpt lat="42.67928" lon="1.72667">
        <ele>2192</ele>
        <time>2018-01-13T13:41:34Z</time>
      </trkpt>
      <trkpt lat="42.67915" lon="1.72663">
        <ele>2200</ele>
        <time>2018-01-13T13:41:53Z</time>
      </trkpt>
      <trkpt lat="42.67904" lon="1.7266">
        <ele>2201</ele>
        <time>2018-01-13T13:42:09Z</time>
      </trkpt>
      <trkpt lat="42.67892" lon="1.72655">
        <ele>2202</ele>
        <time>2018-01-13T13:42:26Z</time>
      </trkpt>
      <trkpt lat="42.67883" lon="1.72654">
        <ele>2202</ele>
        <time>2018-01-13T13:42:41Z</time>
      </trkpt>
      <trkpt lat="42.67871" lon="1.72655">
        <ele>2202</ele>
        <time>2018-01-13T13:42:56Z</time>
      </trkpt>
      <trkpt lat="42.67869" lon="1.72655">
        <ele>2202</ele>
        <time>2018-01-13T13:42:58Z</time>
      </trkpt>
      <trkpt lat="42.67856" lon="1.7266">
        <ele>2202</ele>
        <time>2018-01-13T13:43:15Z</time>
      </trkpt>
      <trkpt lat="42.67839" lon="1.72673">
        <ele>2197</ele>
        <time>2018-01-13T13:51:12Z</time>
      </trkpt>
      <trkpt lat="42.67835" lon="1.7267">
        <ele>2199</ele>
        <time>2018-01-13T13:51:19Z</time>
      </trkpt>
      <trkpt lat="42.67821" lon="1.72665">
        <ele>2196</ele>
        <time>2018-01-13T13:51:38Z</time>
      </trkpt>
      <trkpt lat="42.67815" lon="1.72666">
        <ele>2194</ele>
        <time>2018-01-13T13:51:55Z</time>
      </trkpt>
      <trkpt lat="42.67815" lon="1.72664">
        <ele>2194</ele>
        <time>2018-01-13T13:52:12Z</time>
      </trkpt>
      <trkpt lat="42.67815" lon="1.72664">
        <ele>2194</ele>
        <time>2018-01-13T13:52:49Z</time>
      </trkpt>
      <trkpt lat="42.67816" lon="1.72665">
        <ele>2194</ele>
        <time>2018-01-13T13:53:19Z</time>
      </trkpt>
      <trkpt lat="42.67815" lon="1.72665">
        <ele>2194</ele>
        <time>2018-01-13T13:54:01Z</time>
      </trkpt>
      <trkpt lat="42.67827" lon="1.72665">
        <ele>2199</ele>
        <time>2018-01-13T13:54:19Z</time>
      </trkpt>
      <trkpt lat="42.6784" lon="1.72665">
        <ele>2202</ele>
        <time>2018-01-13T13:54:35Z</time>
      </trkpt>
      <trkpt lat="42.67845" lon="1.72662">
        <ele>2202</ele>
        <time>2018-01-13T13:54:52Z</time>
      </trkpt>
      <trkpt lat="42.67856" lon="1.72652">
        <ele>2203</ele>
        <time>2018-01-13T13:55:08Z</time>
      </trkpt>
      <trkpt lat="42.67866" lon="1.72651">
        <ele>2203</ele>
        <time>2018-01-13T13:55:25Z</time>
      </trkpt>
      <trkpt lat="42.67879" lon="1.72654">
        <ele>2202</ele>
        <time>2018-01-13T13:55:41Z</time>
      </trkpt>
      <trkpt lat="42.67889" lon="1.72658">
        <ele>2202</ele>
        <time>2018-01-13T13:56:04Z</time>
      </trkpt>
      <trkpt lat="42.67896" lon="1.72659">
        <ele>2202</ele>
        <time>2018-01-13T13:56:12Z</time>
      </trkpt>
      <trkpt lat="42.67912" lon="1.72664">
        <ele>2200</ele>
        <time>2018-01-13T13:56:29Z</time>
      </trkpt>
      <trkpt lat="42.67926" lon="1.72668">
        <ele>2193</ele>
        <time>2018-01-13T13:56:46Z</time>
      </trkpt>
      <trkpt lat="42.67937" lon="1.72669">
        <ele>2189</ele>
        <time>2018-01-13T13:57:04Z</time>
      </trkpt>
      <trkpt lat="42.67946" lon="1.72667">
        <ele>2188</ele>
        <time>2018-01-13T13:57:29Z</time>
      </trkpt>
      <trkpt lat="42.67943" lon="1.72669">
        <ele>2188</ele>
        <time>2018-01-13T13:58:11Z</time>
      </trkpt>
      <trkpt lat="42.67946" lon="1.72665">
        <ele>2199</ele>
        <time>2018-01-13T13:58:47Z</time>
      </trkpt>
      <trkpt lat="42.67956" lon="1.72664">
        <ele>2198</ele>
        <time>2018-01-13T13:59:03Z</time>
      </trkpt>
      <trkpt lat="42.67958" lon="1.72663">
        <ele>2198</ele>
        <time>2018-01-13T13:59:26Z</time>
      </trkpt>
      <trkpt lat="42.67968" lon="1.72666">
        <ele>2198</ele>
        <time>2018-01-13T13:59:51Z</time>
      </trkpt>
      <trkpt lat="42.67982" lon="1.72675">
        <ele>2187</ele>
        <time>2018-01-13T14:00:09Z</time>
      </trkpt>
      <trkpt lat="42.67997" lon="1.72683">
        <ele>2187</ele>
        <time>2018-01-13T14:00:26Z</time>
      </trkpt>
      <trkpt lat="42.6801" lon="1.72695">
        <ele>2183</ele>
        <time>2018-01-13T14:00:42Z</time>
      </trkpt>
      <trkpt lat="42.68026" lon="1.72704">
        <ele>2180</ele>
        <time>2018-01-13T14:01:00Z</time>
      </trkpt>
      <trkpt lat="42.68042" lon="1.72706">
        <ele>2179</ele>
        <time>2018-01-13T14:01:16Z</time>
      </trkpt>
      <trkpt lat="42.68051" lon="1.72701">
        <ele>2180</ele>
        <time>2018-01-13T14:01:26Z</time>
      </trkpt>
      <trkpt lat="42.68052" lon="1.72701">
        <ele>2180</ele>
        <time>2018-01-13T14:01:28Z</time>
      </trkpt>
      <trkpt lat="42.68064" lon="1.72693">
        <ele>2180</ele>
        <time>2018-01-13T14:01:44Z</time>
      </trkpt>
      <trkpt lat="42.68065" lon="1.72692">
        <ele>2180</ele>
        <time>2018-01-13T14:01:46Z</time>
      </trkpt>
      <trkpt lat="42.68073" lon="1.72687">
        <ele>2181</ele>
        <time>2018-01-13T14:01:57Z</time>
      </trkpt>
      <trkpt lat="42.68078" lon="1.72686">
        <ele>2181</ele>
        <time>2018-01-13T14:02:14Z</time>
      </trkpt>
      <trkpt lat="42.68084" lon="1.72684">
        <ele>2175</ele>
        <time>2018-01-13T14:02:23Z</time>
      </trkpt>
      <trkpt lat="42.68094" lon="1.72681">
        <ele>2174</ele>
        <time>2018-01-13T14:02:34Z</time>
      </trkpt>
      <trkpt lat="42.68104" lon="1.7268">
        <ele>2172</ele>
        <time>2018-01-13T14:02:45Z</time>
      </trkpt>
      <trkpt lat="42.68113" lon="1.72686">
        <ele>2169</ele>
        <time>2018-01-13T14:02:56Z</time>
      </trkpt>
      <trkpt lat="42.68124" lon="1.72692">
        <ele>2167</ele>
        <time>2018-01-13T14:03:09Z</time>
      </trkpt>
      <trkpt lat="42.6813" lon="1.72695">
        <ele>2166</ele>
        <time>2018-01-13T14:03:15Z</time>
      </trkpt>
      <trkpt lat="42.68133" lon="1.72696">
        <ele>2165</ele>
        <time>2018-01-13T14:03:18Z</time>
      </trkpt>
      <trkpt lat="42.68136" lon="1.72697">
        <ele>2164</ele>
        <time>2018-01-13T14:03:22Z</time>
      </trkpt>
      <trkpt lat="42.68146" lon="1.72704">
        <ele>2163</ele>
        <time>2018-01-13T14:03:36Z</time>
      </trkpt>
      <trkpt lat="42.68155" lon="1.72713">
        <ele>2162</ele>
        <time>2018-01-13T14:03:48Z</time>
      </trkpt>
      <trkpt lat="42.68161" lon="1.7272">
        <ele>2160</ele>
        <time>2018-01-13T14:03:58Z</time>
      </trkpt>
      <trkpt lat="42.68168" lon="1.72729">
        <ele>2146</ele>
        <time>2018-01-13T14:04:12Z</time>
      </trkpt>
      <trkpt lat="42.68171" lon="1.72733">
        <ele>2147</ele>
        <time>2018-01-13T14:04:17Z</time>
      </trkpt>
      <trkpt lat="42.68179" lon="1.72745">
        <ele>2147</ele>
        <time>2018-01-13T14:04:34Z</time>
      </trkpt>
      <trkpt lat="42.68184" lon="1.72749">
        <ele>2146</ele>
        <time>2018-01-13T14:04:51Z</time>
      </trkpt>
      <trkpt lat="42.6819" lon="1.72758">
        <ele>2139</ele>
        <time>2018-01-13T14:05:10Z</time>
      </trkpt>
      <trkpt lat="42.68192" lon="1.72761">
        <ele>2138</ele>
        <time>2018-01-13T14:05:14Z</time>
      </trkpt>
      <trkpt lat="42.682" lon="1.72771">
        <ele>2135</ele>
        <time>2018-01-13T14:05:30Z</time>
      </trkpt>
      <trkpt lat="42.68207" lon="1.72781">
        <ele>2133</ele>
        <time>2018-01-13T14:05:44Z</time>
      </trkpt>
      <trkpt lat="42.68213" lon="1.72792">
        <ele>2131</ele>
        <time>2018-01-13T14:05:57Z</time>
      </trkpt>
      <trkpt lat="42.68218" lon="1.72799">
        <ele>2130</ele>
        <time>2018-01-13T14:06:07Z</time>
      </trkpt>
      <trkpt lat="42.68225" lon="1.72808">
        <ele>2128</ele>
        <time>2018-01-13T14:06:19Z</time>
      </trkpt>
      <trkpt lat="42.6823" lon="1.72816">
        <ele>2126</ele>
        <time>2018-01-13T14:06:30Z</time>
      </trkpt>
      <trkpt lat="42.68236" lon="1.72823">
        <ele>2124</ele>
        <time>2018-01-13T14:06:41Z</time>
      </trkpt>
      <trkpt lat="42.68242" lon="1.72828">
        <ele>2121</ele>
        <time>2018-01-13T14:06:50Z</time>
      </trkpt>
      <trkpt lat="42.68249" lon="1.72835">
        <ele>2115</ele>
        <time>2018-01-13T14:07:01Z</time>
      </trkpt>
      <trkpt lat="42.68256" lon="1.72842">
        <ele>2107</ele>
        <time>2018-01-13T14:07:13Z</time>
      </trkpt>
      <trkpt lat="42.68263" lon="1.7285">
        <ele>2102</ele>
        <time>2018-01-13T14:07:24Z</time>
      </trkpt>
      <trkpt lat="42.6827" lon="1.72857">
        <ele>2099</ele>
        <time>2018-01-13T14:07:35Z</time>
      </trkpt>
      <trkpt lat="42.68276" lon="1.72863">
        <ele>2097</ele>
        <time>2018-01-13T14:07:48Z</time>
      </trkpt>
      <trkpt lat="42.68282" lon="1.72869">
        <ele>2095</ele>
        <time>2018-01-13T14:08:00Z</time>
      </trkpt>
      <trkpt lat="42.68288" lon="1.72875">
        <ele>2093</ele>
        <time>2018-01-13T14:08:12Z</time>
      </trkpt>
      <trkpt lat="42.68292" lon="1.72879">
        <ele>2092</ele>
        <time>2018-01-13T14:08:20Z</time>
      </trkpt>
      <trkpt lat="42.68294" lon="1.72881">
        <ele>2092</ele>
        <time>2018-01-13T14:08:23Z</time>
      </trkpt>
      <trkpt lat="42.68299" lon="1.72888">
        <ele>2090</ele>
        <time>2018-01-13T14:08:34Z</time>
      </trkpt>
      <trkpt lat="42.68306" lon="1.72895">
        <ele>2089</ele>
        <time>2018-01-13T14:08:45Z</time>
      </trkpt>
      <trkpt lat="42.68307" lon="1.72897">
        <ele>2088</ele>
        <time>2018-01-13T14:08:47Z</time>
      </trkpt>
      <trkpt lat="42.68314" lon="1.729">
        <ele>2087</ele>
        <time>2018-01-13T14:09:01Z</time>
      </trkpt>
      <trkpt lat="42.68319" lon="1.72903">
        <ele>2085</ele>
        <time>2018-01-13T14:09:21Z</time>
      </trkpt>
      <trkpt lat="42.68326" lon="1.7291">
        <ele>2082</ele>
        <time>2018-01-13T14:09:31Z</time>
      </trkpt>
      <trkpt lat="42.68334" lon="1.72918">
        <ele>2076</ele>
        <time>2018-01-13T14:09:40Z</time>
      </trkpt>
      <trkpt lat="42.68334" lon="1.72919">
        <ele>2076</ele>
        <time>2018-01-13T14:09:41Z</time>
      </trkpt>
      <trkpt lat="42.68341" lon="1.72926">
        <ele>2071</ele>
        <time>2018-01-13T14:09:52Z</time>
      </trkpt>
      <trkpt lat="42.68344" lon="1.72928">
        <ele>2070</ele>
        <time>2018-01-13T14:09:56Z</time>
      </trkpt>
      <trkpt lat="42.68352" lon="1.72935">
        <ele>2067</ele>
        <time>2018-01-13T14:10:07Z</time>
      </trkpt>
      <trkpt lat="42.68356" lon="1.7294">
        <ele>2066</ele>
        <time>2018-01-13T14:10:15Z</time>
      </trkpt>
      <trkpt lat="42.68358" lon="1.72941">
        <ele>2065</ele>
        <time>2018-01-13T14:10:17Z</time>
      </trkpt>
      <trkpt lat="42.68368" lon="1.7295">
        <ele>2063</ele>
        <time>2018-01-13T14:10:27Z</time>
      </trkpt>
      <trkpt lat="42.68377" lon="1.72957">
        <ele>2061</ele>
        <time>2018-01-13T14:10:37Z</time>
      </trkpt>
      <trkpt lat="42.68386" lon="1.72965">
        <ele>2060</ele>
        <time>2018-01-13T14:10:52Z</time>
      </trkpt>
      <trkpt lat="42.68396" lon="1.72973">
        <ele>2058</ele>
        <time>2018-01-13T14:11:04Z</time>
      </trkpt>
      <trkpt lat="42.68405" lon="1.72982">
        <ele>2055</ele>
        <time>2018-01-13T14:11:20Z</time>
      </trkpt>
      <trkpt lat="42.68417" lon="1.72992">
        <ele>2044</ele>
        <time>2018-01-13T14:11:35Z</time>
      </trkpt>
      <trkpt lat="42.68427" lon="1.73002">
        <ele>2042</ele>
        <time>2018-01-13T14:11:48Z</time>
      </trkpt>
      <trkpt lat="42.68436" lon="1.73011">
        <ele>2039</ele>
        <time>2018-01-13T14:12:01Z</time>
      </trkpt>
      <trkpt lat="42.68443" lon="1.73019">
        <ele>2036</ele>
        <time>2018-01-13T14:12:12Z</time>
      </trkpt>
      <trkpt lat="42.68451" lon="1.73027">
        <ele>2035</ele>
        <time>2018-01-13T14:12:22Z</time>
      </trkpt>
      <trkpt lat="42.68458" lon="1.73036">
        <ele>2033</ele>
        <time>2018-01-13T14:12:33Z</time>
      </trkpt>
      <trkpt lat="42.68468" lon="1.73047">
        <ele>2031</ele>
        <time>2018-01-13T14:12:48Z</time>
      </trkpt>
      <trkpt lat="42.68474" lon="1.73056">
        <ele>2030</ele>
        <time>2018-01-13T14:12:59Z</time>
      </trkpt>
      <trkpt lat="42.68483" lon="1.73068">
        <ele>2027</ele>
        <time>2018-01-13T14:13:12Z</time>
      </trkpt>
      <trkpt lat="42.68491" lon="1.73078">
        <ele>2023</ele>
        <time>2018-01-13T14:13:26Z</time>
      </trkpt>
      <trkpt lat="42.68493" lon="1.7308">
        <ele>2022</ele>
        <time>2018-01-13T14:13:32Z</time>
      </trkpt>
      <trkpt lat="42.68495" lon="1.73082">
        <ele>2021</ele>
        <time>2018-01-13T14:13:35Z</time>
      </trkpt>
      <trkpt lat="42.68497" lon="1.73086">
        <ele>2019</ele>
        <time>2018-01-13T14:13:40Z</time>
      </trkpt>
      <trkpt lat="42.68508" lon="1.73099">
        <ele>2009</ele>
        <time>2018-01-13T14:13:55Z</time>
      </trkpt>
      <trkpt lat="42.68518" lon="1.7311">
        <ele>2005</ele>
        <time>2018-01-13T14:14:06Z</time>
      </trkpt>
      <trkpt lat="42.68529" lon="1.73121">
        <ele>2002</ele>
        <time>2018-01-13T14:14:17Z</time>
      </trkpt>
      <trkpt lat="42.68531" lon="1.73124">
        <ele>2002</ele>
        <time>2018-01-13T14:14:19Z</time>
      </trkpt>
      <trkpt lat="42.6854" lon="1.73132">
        <ele>2000</ele>
        <time>2018-01-13T14:14:30Z</time>
      </trkpt>
      <trkpt lat="42.68549" lon="1.73141">
        <ele>1999</ele>
        <time>2018-01-13T14:14:43Z</time>
      </trkpt>
      <trkpt lat="42.68557" lon="1.73149">
        <ele>1997</ele>
        <time>2018-01-13T14:14:57Z</time>
      </trkpt>
      <trkpt lat="42.68562" lon="1.73154">
        <ele>1995</ele>
        <time>2018-01-13T14:15:04Z</time>
      </trkpt>
      <trkpt lat="42.68576" lon="1.73163">
        <ele>1990</ele>
        <time>2018-01-13T14:15:19Z</time>
      </trkpt>
      <trkpt lat="42.68588" lon="1.73174">
        <ele>1983</ele>
        <time>2018-01-13T14:15:35Z</time>
      </trkpt>
      <trkpt lat="42.68599" lon="1.73182">
        <ele>1980</ele>
        <time>2018-01-13T14:15:49Z</time>
      </trkpt>
      <trkpt lat="42.68609" lon="1.7319">
        <ele>1978</ele>
        <time>2018-01-13T14:16:02Z</time>
      </trkpt>
      <trkpt lat="42.68622" lon="1.73201">
        <ele>1977</ele>
        <time>2018-01-13T14:16:18Z</time>
      </trkpt>
      <trkpt lat="42.68626" lon="1.73204">
        <ele>1976</ele>
        <time>2018-01-13T14:16:23Z</time>
      </trkpt>
      <trkpt lat="42.68642" lon="1.73214">
        <ele>1975</ele>
        <time>2018-01-13T14:16:40Z</time>
      </trkpt>
      <trkpt lat="42.68657" lon="1.73224">
        <ele>1974</ele>
        <time>2018-01-13T14:16:57Z</time>
      </trkpt>
      <trkpt lat="42.68671" lon="1.73228">
        <ele>1967</ele>
        <time>2018-01-13T14:17:16Z</time>
      </trkpt>
      <trkpt lat="42.68677" lon="1.73229">
        <ele>1967</ele>
        <time>2018-01-13T14:17:34Z</time>
      </trkpt>
      <trkpt lat="42.68678" lon="1.73229">
        <ele>1967</ele>
        <time>2018-01-13T14:18:08Z</time>
      </trkpt>
      <trkpt lat="42.68679" lon="1.73229">
        <ele>1967</ele>
        <time>2018-01-13T14:18:54Z</time>
      </trkpt>
      <trkpt lat="42.6868" lon="1.73229">
        <ele>1967</ele>
        <time>2018-01-13T14:19:06Z</time>
      </trkpt>
      <trkpt lat="42.6868" lon="1.73229">
        <ele>1967</ele>
        <time>2018-01-13T14:19:08Z</time>
      </trkpt>
      <trkpt lat="42.6868" lon="1.73227">
        <ele>1967</ele>
        <time>2018-01-13T14:19:11Z</time>
      </trkpt>
      <trkpt lat="42.68684" lon="1.73216">
        <ele>1966</ele>
        <time>2018-01-13T14:19:29Z</time>
      </trkpt>
      <trkpt lat="42.68687" lon="1.7321">
        <ele>1966</ele>
        <time>2018-01-13T14:19:37Z</time>
      </trkpt>
      <trkpt lat="42.68687" lon="1.73208">
        <ele>1965</ele>
        <time>2018-01-13T14:19:39Z</time>
      </trkpt>
      <trkpt lat="42.68696" lon="1.73189">
        <ele>1965</ele>
        <time>2018-01-13T14:19:55Z</time>
      </trkpt>
      <trkpt lat="42.68705" lon="1.73171">
        <ele>1964</ele>
        <time>2018-01-13T14:20:13Z</time>
      </trkpt>
      <trkpt lat="42.68708" lon="1.73164">
        <ele>1961</ele>
        <time>2018-01-13T14:20:35Z</time>
      </trkpt>
      <trkpt lat="42.68713" lon="1.73147">
        <ele>1960</ele>
        <time>2018-01-13T14:20:52Z</time>
      </trkpt>
      <trkpt lat="42.68718" lon="1.73127">
        <ele>1959</ele>
        <time>2018-01-13T14:21:11Z</time>
      </trkpt>
      <trkpt lat="42.68724" lon="1.73108">
        <ele>1957</ele>
        <time>2018-01-13T14:21:29Z</time>
      </trkpt>
      <trkpt lat="42.68728" lon="1.73093">
        <ele>1956</ele>
        <time>2018-01-13T14:21:42Z</time>
      </trkpt>
      <trkpt lat="42.68733" lon="1.73079">
        <ele>1951</ele>
        <time>2018-01-13T14:21:54Z</time>
      </trkpt>
      <trkpt lat="42.68739" lon="1.73064">
        <ele>1950</ele>
        <time>2018-01-13T14:22:09Z</time>
      </trkpt>
      <trkpt lat="42.68746" lon="1.73047">
        <ele>1949</ele>
        <time>2018-01-13T14:22:26Z</time>
      </trkpt>
      <trkpt lat="42.68752" lon="1.73032">
        <ele>1938</ele>
        <time>2018-01-13T14:22:44Z</time>
      </trkpt>
      <trkpt lat="42.68754" lon="1.73026">
        <ele>1937</ele>
        <time>2018-01-13T14:22:50Z</time>
      </trkpt>
      <trkpt lat="42.68756" lon="1.73007">
        <ele>1936</ele>
        <time>2018-01-13T14:23:09Z</time>
      </trkpt>
      <trkpt lat="42.68758" lon="1.72986">
        <ele>1930</ele>
        <time>2018-01-13T14:23:29Z</time>
      </trkpt>
      <trkpt lat="42.68761" lon="1.72966">
        <ele>1927</ele>
        <time>2018-01-13T14:23:48Z</time>
      </trkpt>
      <trkpt lat="42.68763" lon="1.7295">
        <ele>1926</ele>
        <time>2018-01-13T14:24:04Z</time>
      </trkpt>
      <trkpt lat="42.68767" lon="1.72936">
        <ele>1925</ele>
        <time>2018-01-13T14:24:19Z</time>
      </trkpt>
      <trkpt lat="42.6877" lon="1.7292">
        <ele>1925</ele>
        <time>2018-01-13T14:24:37Z</time>
      </trkpt>
      <trkpt lat="42.68774" lon="1.72912">
        <ele>1918</ele>
        <time>2018-01-13T14:24:53Z</time>
      </trkpt>
      <trkpt lat="42.68778" lon="1.72906">
        <ele>1916</ele>
        <time>2018-01-13T14:25:11Z</time>
      </trkpt>
      <trkpt lat="42.68782" lon="1.72897">
        <ele>1915</ele>
        <time>2018-01-13T14:25:22Z</time>
      </trkpt>
      <trkpt lat="42.68786" lon="1.72885">
        <ele>1913</ele>
        <time>2018-01-13T14:25:38Z</time>
      </trkpt>
      <trkpt lat="42.68788" lon="1.72879">
        <ele>1912</ele>
        <time>2018-01-13T14:25:47Z</time>
      </trkpt>
      <trkpt lat="42.68787" lon="1.72878">
        <ele>1912</ele>
        <time>2018-01-13T14:26:03Z</time>
      </trkpt>
      <trkpt lat="42.68789" lon="1.72872">
        <ele>1912</ele>
        <time>2018-01-13T14:26:23Z</time>
      </trkpt>
      <trkpt lat="42.6879" lon="1.72869">
        <ele>1911</ele>
        <time>2018-01-13T14:26:26Z</time>
      </trkpt>
      <trkpt lat="42.68795" lon="1.72858">
        <ele>1909</ele>
        <time>2018-01-13T14:26:36Z</time>
      </trkpt>
      <trkpt lat="42.68796" lon="1.72857">
        <ele>1909</ele>
        <time>2018-01-13T14:26:38Z</time>
      </trkpt>
      <trkpt lat="42.68798" lon="1.72854">
        <ele>1908</ele>
        <time>2018-01-13T14:26:40Z</time>
      </trkpt>
      <trkpt lat="42.68802" lon="1.72845">
        <ele>1906</ele>
        <time>2018-01-13T14:26:48Z</time>
      </trkpt>
      <trkpt lat="42.68808" lon="1.72836">
        <ele>1904</ele>
        <time>2018-01-13T14:26:58Z</time>
      </trkpt>
      <trkpt lat="42.68815" lon="1.72828">
        <ele>1894</ele>
        <time>2018-01-13T14:27:11Z</time>
      </trkpt>
      <trkpt lat="42.68819" lon="1.7282">
        <ele>1893</ele>
        <time>2018-01-13T14:27:23Z</time>
      </trkpt>
      <trkpt lat="42.6882" lon="1.72809">
        <ele>1894</ele>
        <time>2018-01-13T14:27:41Z</time>
      </trkpt>
      <trkpt lat="42.68822" lon="1.72809">
        <ele>1893</ele>
        <time>2018-01-13T14:28:17Z</time>
      </trkpt>
      <trkpt lat="42.68823" lon="1.72798">
        <ele>1893</ele>
        <time>2018-01-13T14:28:44Z</time>
      </trkpt>
      <trkpt lat="42.68829" lon="1.72791">
        <ele>1891</ele>
        <time>2018-01-13T14:28:57Z</time>
      </trkpt>
      <trkpt lat="42.68832" lon="1.72788">
        <ele>1891</ele>
        <time>2018-01-13T14:29:07Z</time>
      </trkpt>
      <trkpt lat="42.68836" lon="1.72784">
        <ele>1879</ele>
        <time>2018-01-13T14:29:14Z</time>
      </trkpt>
      <trkpt lat="42.6884" lon="1.72781">
        <ele>1879</ele>
        <time>2018-01-13T14:29:19Z</time>
      </trkpt>
      <trkpt lat="42.68847" lon="1.72776">
        <ele>1878</ele>
        <time>2018-01-13T14:29:30Z</time>
      </trkpt>
      <trkpt lat="42.68852" lon="1.72769">
        <ele>1877</ele>
        <time>2018-01-13T14:29:45Z</time>
      </trkpt>
      <trkpt lat="42.68861" lon="1.72763">
        <ele>1877</ele>
        <time>2018-01-13T14:30:01Z</time>
      </trkpt>
      <trkpt lat="42.68866" lon="1.72755">
        <ele>1876</ele>
        <time>2018-01-13T14:30:15Z</time>
      </trkpt>
      <trkpt lat="42.68869" lon="1.72744">
        <ele>1865</ele>
        <time>2018-01-13T14:30:30Z</time>
      </trkpt>
      <trkpt lat="42.68868" lon="1.72738">
        <ele>1864</ele>
        <time>2018-01-13T14:30:42Z</time>
      </trkpt>
      <trkpt lat="42.68872" lon="1.72721">
        <ele>1863</ele>
        <time>2018-01-13T14:31:01Z</time>
      </trkpt>
      <trkpt lat="42.6888" lon="1.72714">
        <ele>1862</ele>
        <time>2018-01-13T14:31:17Z</time>
      </trkpt>
      <trkpt lat="42.68887" lon="1.72702">
        <ele>1860</ele>
        <time>2018-01-13T14:31:32Z</time>
      </trkpt>
      <trkpt lat="42.68888" lon="1.72701">
        <ele>1860</ele>
        <time>2018-01-13T14:31:33Z</time>
      </trkpt>
      <trkpt lat="42.68895" lon="1.72685">
        <ele>1857</ele>
        <time>2018-01-13T14:31:46Z</time>
      </trkpt>
      <trkpt lat="42.68896" lon="1.72671">
        <ele>1855</ele>
        <time>2018-01-13T14:32:01Z</time>
      </trkpt>
      <trkpt lat="42.689" lon="1.72654">
        <ele>1846</ele>
        <time>2018-01-13T14:32:18Z</time>
      </trkpt>
      <trkpt lat="42.68905" lon="1.72645">
        <ele>1846</ele>
        <time>2018-01-13T14:32:28Z</time>
      </trkpt>
      <trkpt lat="42.68909" lon="1.72634">
        <ele>1844</ele>
        <time>2018-01-13T14:32:41Z</time>
      </trkpt>
      <trkpt lat="42.68917" lon="1.72611">
        <ele>1840</ele>
        <time>2018-01-13T14:33:00Z</time>
      </trkpt>
      <trkpt lat="42.68921" lon="1.72593">
        <ele>1834</ele>
        <time>2018-01-13T14:33:18Z</time>
      </trkpt>
      <trkpt lat="42.68921" lon="1.7259">
        <ele>1833</ele>
        <time>2018-01-13T14:33:21Z</time>
      </trkpt>
      <trkpt lat="42.68922" lon="1.72586">
        <ele>1832</ele>
        <time>2018-01-13T14:33:24Z</time>
      </trkpt>
      <trkpt lat="42.68922" lon="1.72582">
        <ele>1829</ele>
        <time>2018-01-13T14:33:27Z</time>
      </trkpt>
      <trkpt lat="42.68922" lon="1.72573">
        <ele>1829</ele>
        <time>2018-01-13T14:33:33Z</time>
      </trkpt>
      <trkpt lat="42.68922" lon="1.72561">
        <ele>1829</ele>
        <time>2018-01-13T14:33:49Z</time>
      </trkpt>
      <trkpt lat="42.68924" lon="1.72553">
        <ele>1828</ele>
        <time>2018-01-13T14:33:58Z</time>
      </trkpt>
      <trkpt lat="42.68928" lon="1.72541">
        <ele>1828</ele>
        <time>2018-01-13T14:34:15Z</time>
      </trkpt>
      <trkpt lat="42.6893" lon="1.72529">
        <ele>1827</ele>
        <time>2018-01-13T14:34:26Z</time>
      </trkpt>
      <trkpt lat="42.68931" lon="1.72517">
        <ele>1827</ele>
        <time>2018-01-13T14:34:43Z</time>
      </trkpt>
      <trkpt lat="42.68932" lon="1.72513">
        <ele>1827</ele>
        <time>2018-01-13T14:34:47Z</time>
      </trkpt>
      <trkpt lat="42.68934" lon="1.72501">
        <ele>1826</ele>
        <time>2018-01-13T14:35:00Z</time>
      </trkpt>
      <trkpt lat="42.68935" lon="1.72488">
        <ele>1822</ele>
        <time>2018-01-13T14:35:14Z</time>
      </trkpt>
      <trkpt lat="42.68937" lon="1.72471">
        <ele>1821</ele>
        <time>2018-01-13T14:35:28Z</time>
      </trkpt>
      <trkpt lat="42.68938" lon="1.72468">
        <ele>1820</ele>
        <time>2018-01-13T14:35:31Z</time>
      </trkpt>
      <trkpt lat="42.6894" lon="1.72446">
        <ele>1819</ele>
        <time>2018-01-13T14:35:48Z</time>
      </trkpt>
      <trkpt lat="42.68941" lon="1.72426">
        <ele>1819</ele>
        <time>2018-01-13T14:36:04Z</time>
      </trkpt>
      <trkpt lat="42.68941" lon="1.72405">
        <ele>1813</ele>
        <time>2018-01-13T14:36:20Z</time>
      </trkpt>
      <trkpt lat="42.68943" lon="1.72388">
        <ele>1811</ele>
        <time>2018-01-13T14:36:35Z</time>
      </trkpt>
      <trkpt lat="42.68945" lon="1.7237">
        <ele>1809</ele>
        <time>2018-01-13T14:36:52Z</time>
      </trkpt>
      <trkpt lat="42.6895" lon="1.72351">
        <ele>1808</ele>
        <time>2018-01-13T14:37:09Z</time>
      </trkpt>
      <trkpt lat="42.68954" lon="1.72336">
        <ele>1807</ele>
        <time>2018-01-13T14:37:20Z</time>
      </trkpt>
      <trkpt lat="42.68958" lon="1.72316">
        <ele>1801</ele>
        <time>2018-01-13T14:37:38Z</time>
      </trkpt>
      <trkpt lat="42.6896" lon="1.72302">
        <ele>1800</ele>
        <time>2018-01-13T14:37:54Z</time>
      </trkpt>
      <trkpt lat="42.68963" lon="1.72292">
        <ele>1800</ele>
        <time>2018-01-13T14:38:10Z</time>
      </trkpt>
      <trkpt lat="42.68968" lon="1.72278">
        <ele>1798</ele>
        <time>2018-01-13T14:38:27Z</time>
      </trkpt>
      <trkpt lat="42.6897" lon="1.7226">
        <ele>1797</ele>
        <time>2018-01-13T14:38:46Z</time>
      </trkpt>
      <trkpt lat="42.68978" lon="1.72244">
        <ele>1791</ele>
        <time>2018-01-13T14:39:04Z</time>
      </trkpt>
      <trkpt lat="42.68979" lon="1.72238">
        <ele>1791</ele>
        <time>2018-01-13T14:39:09Z</time>
      </trkpt>
      <trkpt lat="42.68983" lon="1.72218">
        <ele>1790</ele>
        <time>2018-01-13T14:39:26Z</time>
      </trkpt>
      <trkpt lat="42.68988" lon="1.722">
        <ele>1788</ele>
        <time>2018-01-13T14:39:43Z</time>
      </trkpt>
      <trkpt lat="42.68994" lon="1.72185">
        <ele>1785</ele>
        <time>2018-01-13T14:40:00Z</time>
      </trkpt>
      <trkpt lat="42.68995" lon="1.72171">
        <ele>1780</ele>
        <time>2018-01-13T14:40:14Z</time>
      </trkpt>
      <trkpt lat="42.68996" lon="1.72158">
        <ele>1779</ele>
        <time>2018-01-13T14:40:30Z</time>
      </trkpt>
      <trkpt lat="42.68997" lon="1.72146">
        <ele>1780</ele>
        <time>2018-01-13T14:40:45Z</time>
      </trkpt>
      <trkpt lat="42.69004" lon="1.72129">
        <ele>1774</ele>
        <time>2018-01-13T14:41:02Z</time>
      </trkpt>
      <trkpt lat="42.69006" lon="1.72119">
        <ele>1773</ele>
        <time>2018-01-13T14:41:18Z</time>
      </trkpt>
      <trkpt lat="42.69003" lon="1.72111">
        <ele>1772</ele>
        <time>2018-01-13T14:41:34Z</time>
      </trkpt>
      <trkpt lat="42.69004" lon="1.72106">
        <ele>1772</ele>
        <time>2018-01-13T14:41:51Z</time>
      </trkpt>
      <trkpt lat="42.69008" lon="1.72092">
        <ele>1770</ele>
        <time>2018-01-13T14:42:07Z</time>
      </trkpt>
      <trkpt lat="42.69009" lon="1.72077">
        <ele>1766</ele>
        <time>2018-01-13T14:42:24Z</time>
      </trkpt>
      <trkpt lat="42.69011" lon="1.72065">
        <ele>1764</ele>
        <time>2018-01-13T14:42:41Z</time>
      </trkpt>
      <trkpt lat="42.69014" lon="1.72044">
        <ele>1762</ele>
        <time>2018-01-13T14:43:01Z</time>
      </trkpt>
      <trkpt lat="42.69014" lon="1.72042">
        <ele>1762</ele>
        <time>2018-01-13T14:43:03Z</time>
      </trkpt>
      <trkpt lat="42.69017" lon="1.72033">
        <ele>1762</ele>
        <time>2018-01-13T14:43:19Z</time>
      </trkpt>
      <trkpt lat="42.69019" lon="1.7203">
        <ele>1762</ele>
        <time>2018-01-13T14:43:22Z</time>
      </trkpt>
      <trkpt lat="42.69026" lon="1.72014">
        <ele>1761</ele>
        <time>2018-01-13T14:43:39Z</time>
      </trkpt>
      <trkpt lat="42.69027" lon="1.72013">
        <ele>1761</ele>
        <time>2018-01-13T14:43:40Z</time>
      </trkpt>
      <trkpt lat="42.69029" lon="1.7201">
        <ele>1760</ele>
        <time>2018-01-13T14:44:03Z</time>
      </trkpt>
      <trkpt lat="42.69029" lon="1.7201">
        <ele>1760</ele>
        <time>2018-01-13T14:44:43Z</time>
      </trkpt>
      <trkpt lat="42.69036" lon="1.72003">
        <ele>1760</ele>
        <time>2018-01-13T14:44:59Z</time>
      </trkpt>
      <trkpt lat="42.69044" lon="1.71997">
        <ele>1753</ele>
        <time>2018-01-13T14:45:15Z</time>
      </trkpt>
      <trkpt lat="42.69054" lon="1.71993">
        <ele>1752</ele>
        <time>2018-01-13T14:45:33Z</time>
      </trkpt>
      <trkpt lat="42.69056" lon="1.71987">
        <ele>1751</ele>
        <time>2018-01-13T14:45:51Z</time>
      </trkpt>
      <trkpt lat="42.69057" lon="1.71983">
        <ele>1751</ele>
        <time>2018-01-13T14:45:59Z</time>
      </trkpt>
      <trkpt lat="42.69062" lon="1.71963">
        <ele>1751</ele>
        <time>2018-01-13T14:46:15Z</time>
      </trkpt>
      <trkpt lat="42.69071" lon="1.71941">
        <ele>1748</ele>
        <time>2018-01-13T14:46:34Z</time>
      </trkpt>
      <trkpt lat="42.69075" lon="1.71921">
        <ele>1745</ele>
        <time>2018-01-13T14:46:51Z</time>
      </trkpt>
      <trkpt lat="42.69079" lon="1.71901">
        <ele>1745</ele>
        <time>2018-01-13T14:47:08Z</time>
      </trkpt>
      <trkpt lat="42.69087" lon="1.71894">
        <ele>1741</ele>
        <time>2018-01-13T14:47:25Z</time>
      </trkpt>
      <trkpt lat="42.69086" lon="1.71888">
        <ele>1741</ele>
        <time>2018-01-13T14:47:43Z</time>
      </trkpt>
      <trkpt lat="42.69089" lon="1.71885">
        <ele>1741</ele>
        <time>2018-01-13T14:47:59Z</time>
      </trkpt>
      <trkpt lat="42.69094" lon="1.7188">
        <ele>1741</ele>
        <time>2018-01-13T14:48:17Z</time>
      </trkpt>
      <trkpt lat="42.69098" lon="1.71879">
        <ele>1741</ele>
        <time>2018-01-13T14:48:23Z</time>
      </trkpt>
      <trkpt lat="42.69104" lon="1.71874">
        <ele>1741</ele>
        <time>2018-01-13T14:48:32Z</time>
      </trkpt>
      <trkpt lat="42.69112" lon="1.71867">
        <ele>1741</ele>
        <time>2018-01-13T14:48:44Z</time>
      </trkpt>
      <trkpt lat="42.69118" lon="1.71849">
        <ele>1740</ele>
        <time>2018-01-13T14:49:03Z</time>
      </trkpt>
      <trkpt lat="42.69119" lon="1.71839">
        <ele>1740</ele>
        <time>2018-01-13T14:49:20Z</time>
      </trkpt>
      <trkpt lat="42.69123" lon="1.71836">
        <ele>1740</ele>
        <time>2018-01-13T14:49:38Z</time>
      </trkpt>
      <trkpt lat="42.69132" lon="1.71832">
        <ele>1739</ele>
        <time>2018-01-13T14:49:54Z</time>
      </trkpt>
      <trkpt lat="42.69144" lon="1.71825">
        <ele>1739</ele>
        <time>2018-01-13T14:50:15Z</time>
      </trkpt>
      <trkpt lat="42.69153" lon="1.71818">
        <ele>1739</ele>
        <time>2018-01-13T14:50:33Z</time>
      </trkpt>
      <trkpt lat="42.69163" lon="1.71808">
        <ele>1739</ele>
        <time>2018-01-13T14:50:49Z</time>
      </trkpt>
      <trkpt lat="42.69169" lon="1.71797">
        <ele>1745</ele>
        <time>2018-01-13T14:51:08Z</time>
      </trkpt>
      <trkpt lat="42.69175" lon="1.71785">
        <ele>1746</ele>
        <time>2018-01-13T14:51:28Z</time>
      </trkpt>
      <trkpt lat="42.69178" lon="1.71778">
        <ele>1746</ele>
        <time>2018-01-13T14:51:40Z</time>
      </trkpt>
      <trkpt lat="42.69182" lon="1.71769">
        <ele>1745</ele>
        <time>2018-01-13T14:51:53Z</time>
      </trkpt>
      <trkpt lat="42.69187" lon="1.71762">
        <ele>1745</ele>
        <time>2018-01-13T14:52:12Z</time>
      </trkpt>
      <trkpt lat="42.69188" lon="1.71746">
        <ele>1742</ele>
        <time>2018-01-14T07:12:26Z</time>
      </trkpt>
      <trkpt lat="42.69188" lon="1.71744">
        <ele>1743</ele>
        <time>2018-01-14T07:15:59Z</time>
      </trkpt>
      <trkpt lat="42.69187" lon="1.71744">
        <ele>1742</ele>
        <time>2018-01-14T07:16:26Z</time>
      </trkpt>
      <trkpt lat="42.69186" lon="1.71744">
        <ele>1742</ele>
        <time>2018-01-14T07:16:50Z</time>
      </trkpt>
      <trkpt lat="42.69186" lon="1.71745">
        <ele>1742</ele>
        <time>2018-01-14T07:17:14Z</time>
      </trkpt>
      <trkpt lat="42.69185" lon="1.7176">
        <ele>1745</ele>
        <time>2018-01-14T07:18:21Z</time>
      </trkpt>
      <trkpt lat="42.69185" lon="1.71764">
        <ele>1745</ele>
        <time>2018-01-14T07:20:25Z</time>
      </trkpt>
      <trkpt lat="42.69175" lon="1.71778">
        <ele>1745</ele>
        <time>2018-01-14T07:20:41Z</time>
      </trkpt>
      <trkpt lat="42.69172" lon="1.71785">
        <ele>1745</ele>
        <time>2018-01-14T07:20:47Z</time>
      </trkpt>
      <trkpt lat="42.69158" lon="1.71806">
        <ele>1739</ele>
        <time>2018-01-14T07:21:07Z</time>
      </trkpt>
      <trkpt lat="42.69145" lon="1.71819">
        <ele>1739</ele>
        <time>2018-01-14T07:21:22Z</time>
      </trkpt>
      <trkpt lat="42.69138" lon="1.71825">
        <ele>1739</ele>
        <time>2018-01-14T07:21:29Z</time>
      </trkpt>
      <trkpt lat="42.69126" lon="1.71832">
        <ele>1739</ele>
        <time>2018-01-14T07:21:46Z</time>
      </trkpt>
      <trkpt lat="42.69126" lon="1.71833">
        <ele>1739</ele>
        <time>2018-01-14T07:22:10Z</time>
      </trkpt>
      <trkpt lat="42.69125" lon="1.7183">
        <ele>1739</ele>
        <time>2018-01-14T07:22:46Z</time>
      </trkpt>
      <trkpt lat="42.69123" lon="1.7183">
        <ele>1739</ele>
        <time>2018-01-14T07:22:48Z</time>
      </trkpt>
      <trkpt lat="42.69119" lon="1.71845">
        <ele>1740</ele>
        <time>2018-01-14T07:23:04Z</time>
      </trkpt>
      <trkpt lat="42.69117" lon="1.71853">
        <ele>1741</ele>
        <time>2018-01-14T07:23:12Z</time>
      </trkpt>
      <trkpt lat="42.69114" lon="1.7186">
        <ele>1741</ele>
        <time>2018-01-14T07:23:19Z</time>
      </trkpt>
      <trkpt lat="42.69112" lon="1.71862">
        <ele>1741</ele>
        <time>2018-01-14T07:23:22Z</time>
      </trkpt>
      <trkpt lat="42.6911" lon="1.71865">
        <ele>1741</ele>
        <time>2018-01-14T07:23:26Z</time>
      </trkpt>
      <trkpt lat="42.69098" lon="1.71875">
        <ele>1741</ele>
        <time>2018-01-14T07:23:42Z</time>
      </trkpt>
      <trkpt lat="42.69092" lon="1.7188">
        <ele>1741</ele>
        <time>2018-01-14T07:23:57Z</time>
      </trkpt>
      <trkpt lat="42.6909" lon="1.71882">
        <ele>1741</ele>
        <time>2018-01-14T07:24:16Z</time>
      </trkpt>
      <trkpt lat="42.69088" lon="1.71884">
        <ele>1741</ele>
        <time>2018-01-14T07:24:42Z</time>
      </trkpt>
      <trkpt lat="42.69086" lon="1.71891">
        <ele>1741</ele>
        <time>2018-01-14T07:24:58Z</time>
      </trkpt>
      <trkpt lat="42.6908" lon="1.71899">
        <ele>1745</ele>
        <time>2018-01-14T07:25:15Z</time>
      </trkpt>
      <trkpt lat="42.69083" lon="1.71898">
        <ele>1745</ele>
        <time>2018-01-14T07:25:44Z</time>
      </trkpt>
      <trkpt lat="42.69084" lon="1.71901">
        <ele>1741</ele>
        <time>2018-01-14T07:26:18Z</time>
      </trkpt>
      <trkpt lat="42.69083" lon="1.71899">
        <ele>1741</ele>
        <time>2018-01-14T07:26:30Z</time>
      </trkpt>
      <trkpt lat="42.69083" lon="1.71898">
        <ele>1745</ele>
        <time>2018-01-14T07:26:56Z</time>
      </trkpt>
      <trkpt lat="42.69082" lon="1.71897">
        <ele>1746</ele>
        <time>2018-01-14T07:27:24Z</time>
      </trkpt>
      <trkpt lat="42.69079" lon="1.71901">
        <ele>1745</ele>
        <time>2018-01-14T07:27:39Z</time>
      </trkpt>
      <trkpt lat="42.69079" lon="1.71897">
        <ele>1746</ele>
        <time>2018-01-14T07:28:09Z</time>
      </trkpt>
      <trkpt lat="42.69079" lon="1.71905">
        <ele>1745</ele>
        <time>2018-01-14T07:28:16Z</time>
      </trkpt>
      <trkpt lat="42.69078" lon="1.7191">
        <ele>1744</ele>
        <time>2018-01-14T07:28:20Z</time>
      </trkpt>
      <trkpt lat="42.69074" lon="1.7193">
        <ele>1746</ele>
        <time>2018-01-14T07:28:37Z</time>
      </trkpt>
      <trkpt lat="42.69069" lon="1.71944">
        <ele>1749</ele>
        <time>2018-01-14T07:28:52Z</time>
      </trkpt>
      <trkpt lat="42.69068" lon="1.71949">
        <ele>1749</ele>
        <time>2018-01-14T07:28:57Z</time>
      </trkpt>
      <trkpt lat="42.69063" lon="1.71963">
        <ele>1751</ele>
        <time>2018-01-14T07:29:13Z</time>
      </trkpt>
      <trkpt lat="42.6906" lon="1.71978">
        <ele>1751</ele>
        <time>2018-01-14T07:29:28Z</time>
      </trkpt>
      <trkpt lat="42.69054" lon="1.71991">
        <ele>1752</ele>
        <time>2018-01-14T07:29:45Z</time>
      </trkpt>
      <trkpt lat="42.69048" lon="1.71995">
        <ele>1752</ele>
        <time>2018-01-14T07:30:00Z</time>
      </trkpt>
      <trkpt lat="42.69041" lon="1.71996">
        <ele>1753</ele>
        <time>2018-01-14T07:30:18Z</time>
      </trkpt>
      <trkpt lat="42.69032" lon="1.72003">
        <ele>1760</ele>
        <time>2018-01-14T07:30:38Z</time>
      </trkpt>
      <trkpt lat="42.69026" lon="1.72015">
        <ele>1761</ele>
        <time>2018-01-14T07:30:56Z</time>
      </trkpt>
      <trkpt lat="42.6902" lon="1.72027">
        <ele>1761</ele>
        <time>2018-01-14T07:31:12Z</time>
      </trkpt>
      <trkpt lat="42.69015" lon="1.72039">
        <ele>1762</ele>
        <time>2018-01-14T07:31:31Z</time>
      </trkpt>
      <trkpt lat="42.69014" lon="1.72053">
        <ele>1763</ele>
        <time>2018-01-14T07:31:48Z</time>
      </trkpt>
      <trkpt lat="42.69009" lon="1.72064">
        <ele>1764</ele>
        <time>2018-01-14T07:32:10Z</time>
      </trkpt>
      <trkpt lat="42.69008" lon="1.72078">
        <ele>1766</ele>
        <time>2018-01-14T07:32:30Z</time>
      </trkpt>
      <trkpt lat="42.69008" lon="1.72089">
        <ele>1770</ele>
        <time>2018-01-14T07:32:48Z</time>
      </trkpt>
      <trkpt lat="42.69006" lon="1.72104">
        <ele>1772</ele>
        <time>2018-01-14T07:33:07Z</time>
      </trkpt>
      <trkpt lat="42.69003" lon="1.72112">
        <ele>1772</ele>
        <time>2018-01-14T07:33:21Z</time>
      </trkpt>
      <trkpt lat="42.69003" lon="1.72113">
        <ele>1772</ele>
        <time>2018-01-14T07:33:22Z</time>
      </trkpt>
      <trkpt lat="42.69004" lon="1.72122">
        <ele>1773</ele>
        <time>2018-01-14T07:33:36Z</time>
      </trkpt>
      <trkpt lat="42.69001" lon="1.72133">
        <ele>1774</ele>
        <time>2018-01-14T07:33:53Z</time>
      </trkpt>
      <trkpt lat="42.68996" lon="1.72145">
        <ele>1780</ele>
        <time>2018-01-14T07:34:12Z</time>
      </trkpt>
      <trkpt lat="42.68995" lon="1.72153">
        <ele>1780</ele>
        <time>2018-01-14T07:34:30Z</time>
      </trkpt>
      <trkpt lat="42.68995" lon="1.72166">
        <ele>1778</ele>
        <time>2018-01-14T07:34:48Z</time>
      </trkpt>
      <trkpt lat="42.68995" lon="1.7218">
        <ele>1783</ele>
        <time>2018-01-14T07:35:05Z</time>
      </trkpt>
      <trkpt lat="42.6899" lon="1.72193">
        <ele>1787</ele>
        <time>2018-01-14T07:35:26Z</time>
      </trkpt>
      <trkpt lat="42.68986" lon="1.72201">
        <ele>1788</ele>
        <time>2018-01-14T07:35:43Z</time>
      </trkpt>
      <trkpt lat="42.68983" lon="1.72215">
        <ele>1790</ele>
        <time>2018-01-14T07:36:02Z</time>
      </trkpt>
      <trkpt lat="42.68979" lon="1.72227">
        <ele>1791</ele>
        <time>2018-01-14T07:36:17Z</time>
      </trkpt>
      <trkpt lat="42.68979" lon="1.72241">
        <ele>1791</ele>
        <time>2018-01-14T07:36:34Z</time>
      </trkpt>
      <trkpt lat="42.68974" lon="1.72249">
        <ele>1791</ele>
        <time>2018-01-14T07:36:50Z</time>
      </trkpt>
      <trkpt lat="42.68969" lon="1.7226">
        <ele>1797</ele>
        <time>2018-01-14T07:37:08Z</time>
      </trkpt>
      <trkpt lat="42.68967" lon="1.72274">
        <ele>1798</ele>
        <time>2018-01-14T07:37:25Z</time>
      </trkpt>
      <trkpt lat="42.68965" lon="1.72286">
        <ele>1799</ele>
        <time>2018-01-14T07:37:42Z</time>
      </trkpt>
      <trkpt lat="42.68962" lon="1.72296">
        <ele>1800</ele>
        <time>2018-01-14T07:38:00Z</time>
      </trkpt>
      <trkpt lat="42.6896" lon="1.72305">
        <ele>1800</ele>
        <time>2018-01-14T07:38:17Z</time>
      </trkpt>
      <trkpt lat="42.68957" lon="1.72313">
        <ele>1801</ele>
        <time>2018-01-14T07:38:35Z</time>
      </trkpt>
      <trkpt lat="42.68958" lon="1.72319">
        <ele>1801</ele>
        <time>2018-01-14T07:38:54Z</time>
      </trkpt>
      <trkpt lat="42.68959" lon="1.72323">
        <ele>1801</ele>
        <time>2018-01-14T07:42:51Z</time>
      </trkpt>
      <trkpt lat="42.68956" lon="1.72325">
        <ele>1801</ele>
        <time>2018-01-14T07:43:21Z</time>
      </trkpt>
      <trkpt lat="42.68953" lon="1.72341">
        <ele>1808</ele>
        <time>2018-01-14T07:43:38Z</time>
      </trkpt>
      <trkpt lat="42.6895" lon="1.72353">
        <ele>1808</ele>
        <time>2018-01-14T07:43:54Z</time>
      </trkpt>
      <trkpt lat="42.68945" lon="1.7237">
        <ele>1809</ele>
        <time>2018-01-14T07:44:13Z</time>
      </trkpt>
      <trkpt lat="42.68942" lon="1.72382">
        <ele>1811</ele>
        <time>2018-01-14T07:44:27Z</time>
      </trkpt>
      <trkpt lat="42.68941" lon="1.72398">
        <ele>1812</ele>
        <time>2018-01-14T07:44:45Z</time>
      </trkpt>
      <trkpt lat="42.68941" lon="1.72415">
        <ele>1813</ele>
        <time>2018-01-14T07:45:02Z</time>
      </trkpt>
      <trkpt lat="42.6894" lon="1.72431">
        <ele>1819</ele>
        <time>2018-01-14T07:45:19Z</time>
      </trkpt>
      <trkpt lat="42.68941" lon="1.72444">
        <ele>1819</ele>
        <time>2018-01-14T07:45:36Z</time>
      </trkpt>
      <trkpt lat="42.68939" lon="1.72457">
        <ele>1820</ele>
        <time>2018-01-14T07:45:54Z</time>
      </trkpt>
      <trkpt lat="42.68938" lon="1.72471">
        <ele>1821</ele>
        <time>2018-01-14T07:46:11Z</time>
      </trkpt>
      <trkpt lat="42.68937" lon="1.72473">
        <ele>1821</ele>
        <time>2018-01-14T07:46:32Z</time>
      </trkpt>
      <trkpt lat="42.68936" lon="1.72487">
        <ele>1822</ele>
        <time>2018-01-14T07:46:54Z</time>
      </trkpt>
      <trkpt lat="42.68936" lon="1.72492">
        <ele>1822</ele>
        <time>2018-01-14T07:46:58Z</time>
      </trkpt>
      <trkpt lat="42.68933" lon="1.72506">
        <ele>1826</ele>
        <time>2018-01-14T07:47:15Z</time>
      </trkpt>
      <trkpt lat="42.68931" lon="1.72516">
        <ele>1827</ele>
        <time>2018-01-14T07:47:33Z</time>
      </trkpt>
      <trkpt lat="42.68928" lon="1.72527">
        <ele>1827</ele>
        <time>2018-01-14T07:47:52Z</time>
      </trkpt>
      <trkpt lat="42.68926" lon="1.72538">
        <ele>1828</ele>
        <time>2018-01-14T07:48:10Z</time>
      </trkpt>
      <trkpt lat="42.68922" lon="1.72553">
        <ele>1828</ele>
        <time>2018-01-14T07:48:29Z</time>
      </trkpt>
      <trkpt lat="42.6892" lon="1.72566">
        <ele>1829</ele>
        <time>2018-01-14T07:48:47Z</time>
      </trkpt>
      <trkpt lat="42.68921" lon="1.7258">
        <ele>1829</ele>
        <time>2018-01-14T07:49:05Z</time>
      </trkpt>
      <trkpt lat="42.6892" lon="1.7259">
        <ele>1833</ele>
        <time>2018-01-14T07:49:25Z</time>
      </trkpt>
      <trkpt lat="42.68918" lon="1.72606">
        <ele>1838</ele>
        <time>2018-01-14T07:49:44Z</time>
      </trkpt>
      <trkpt lat="42.68911" lon="1.72621">
        <ele>1843</ele>
        <time>2018-01-14T07:50:04Z</time>
      </trkpt>
      <trkpt lat="42.68907" lon="1.72633">
        <ele>1844</ele>
        <time>2018-01-14T07:50:21Z</time>
      </trkpt>
      <trkpt lat="42.68903" lon="1.72645">
        <ele>1846</ele>
        <time>2018-01-14T07:50:43Z</time>
      </trkpt>
      <trkpt lat="42.68899" lon="1.72652">
        <ele>1846</ele>
        <time>2018-01-14T07:51:02Z</time>
      </trkpt>
      <trkpt lat="42.68896" lon="1.7266">
        <ele>1847</ele>
        <time>2018-01-14T07:51:17Z</time>
      </trkpt>
      <trkpt lat="42.68896" lon="1.72668">
        <ele>1854</ele>
        <time>2018-01-14T07:51:36Z</time>
      </trkpt>
      <trkpt lat="42.68894" lon="1.72678">
        <ele>1856</ele>
        <time>2018-01-14T07:51:54Z</time>
      </trkpt>
      <trkpt lat="42.68892" lon="1.72689">
        <ele>1858</ele>
        <time>2018-01-14T07:52:17Z</time>
      </trkpt>
      <trkpt lat="42.68888" lon="1.72696">
        <ele>1859</ele>
        <time>2018-01-14T07:52:34Z</time>
      </trkpt>
      <trkpt lat="42.68883" lon="1.72704">
        <ele>1860</ele>
        <time>2018-01-14T07:52:56Z</time>
      </trkpt>
      <trkpt lat="42.68879" lon="1.72711">
        <ele>1861</ele>
        <time>2018-01-14T07:53:12Z</time>
      </trkpt>
      <trkpt lat="42.68876" lon="1.72716">
        <ele>1862</ele>
        <time>2018-01-14T07:53:31Z</time>
      </trkpt>
      <trkpt lat="42.6887" lon="1.72718">
        <ele>1862</ele>
        <time>2018-01-14T07:53:49Z</time>
      </trkpt>
      <trkpt lat="42.68867" lon="1.72722">
        <ele>1863</ele>
        <time>2018-01-14T07:54:08Z</time>
      </trkpt>
      <trkpt lat="42.68866" lon="1.72723">
        <ele>1863</ele>
        <time>2018-01-14T07:59:05Z</time>
      </trkpt>
      <trkpt lat="42.68867" lon="1.72731">
        <ele>1864</ele>
        <time>2018-01-14T07:59:27Z</time>
      </trkpt>
      <trkpt lat="42.68868" lon="1.72747">
        <ele>1865</ele>
        <time>2018-01-14T07:59:46Z</time>
      </trkpt>
      <trkpt lat="42.68866" lon="1.72753">
        <ele>1876</ele>
        <time>2018-01-14T08:00:07Z</time>
      </trkpt>
      <trkpt lat="42.68861" lon="1.72759">
        <ele>1877</ele>
        <time>2018-01-14T08:00:26Z</time>
      </trkpt>
      <trkpt lat="42.68856" lon="1.72764">
        <ele>1877</ele>
        <time>2018-01-14T08:00:46Z</time>
      </trkpt>
      <trkpt lat="42.68851" lon="1.72768">
        <ele>1877</ele>
        <time>2018-01-14T08:01:06Z</time>
      </trkpt>
      <trkpt lat="42.68846" lon="1.72772">
        <ele>1877</ele>
        <time>2018-01-14T08:01:28Z</time>
      </trkpt>
      <trkpt lat="42.68841" lon="1.72776">
        <ele>1878</ele>
        <time>2018-01-14T08:01:49Z</time>
      </trkpt>
      <trkpt lat="42.68836" lon="1.72778">
        <ele>1878</ele>
        <time>2018-01-14T08:02:08Z</time>
      </trkpt>
      <trkpt lat="42.68831" lon="1.7278">
        <ele>1889</ele>
        <time>2018-01-14T08:02:25Z</time>
      </trkpt>
      <trkpt lat="42.68828" lon="1.72782">
        <ele>1890</ele>
        <time>2018-01-14T08:02:43Z</time>
      </trkpt>
      <trkpt lat="42.68824" lon="1.72787">
        <ele>1891</ele>
        <time>2018-01-14T08:03:00Z</time>
      </trkpt>
      <trkpt lat="42.68823" lon="1.72792">
        <ele>1892</ele>
        <time>2018-01-14T08:03:16Z</time>
      </trkpt>
      <trkpt lat="42.6882" lon="1.72801">
        <ele>1893</ele>
        <time>2018-01-14T08:03:34Z</time>
      </trkpt>
      <trkpt lat="42.6882" lon="1.72813">
        <ele>1894</ele>
        <time>2018-01-14T08:03:51Z</time>
      </trkpt>
      <trkpt lat="42.68816" lon="1.72822">
        <ele>1894</ele>
        <time>2018-01-14T08:04:13Z</time>
      </trkpt>
      <trkpt lat="42.6881" lon="1.72827">
        <ele>1895</ele>
        <time>2018-01-14T08:04:34Z</time>
      </trkpt>
      <trkpt lat="42.68806" lon="1.72831">
        <ele>1896</ele>
        <time>2018-01-14T08:04:55Z</time>
      </trkpt>
      <trkpt lat="42.68803" lon="1.72839">
        <ele>1906</ele>
        <time>2018-01-14T08:05:15Z</time>
      </trkpt>
      <trkpt lat="42.68798" lon="1.72848">
        <ele>1908</ele>
        <time>2018-01-14T08:05:35Z</time>
      </trkpt>
      <trkpt lat="42.68795" lon="1.72854">
        <ele>1909</ele>
        <time>2018-01-14T08:05:52Z</time>
      </trkpt>
      <trkpt lat="42.68794" lon="1.72863">
        <ele>1910</ele>
        <time>2018-01-14T08:06:10Z</time>
      </trkpt>
      <trkpt lat="42.6879" lon="1.72867">
        <ele>1911</ele>
        <time>2018-01-14T08:06:27Z</time>
      </trkpt>
      <trkpt lat="42.68787" lon="1.72875">
        <ele>1912</ele>
        <time>2018-01-14T08:06:46Z</time>
      </trkpt>
      <trkpt lat="42.68785" lon="1.72882">
        <ele>1913</ele>
        <time>2018-01-14T08:07:04Z</time>
      </trkpt>
      <trkpt lat="42.68781" lon="1.72892">
        <ele>1914</ele>
        <time>2018-01-14T08:07:26Z</time>
      </trkpt>
      <trkpt lat="42.68777" lon="1.72898">
        <ele>1916</ele>
        <time>2018-01-14T08:07:46Z</time>
      </trkpt>
      <trkpt lat="42.68775" lon="1.72909">
        <ele>1917</ele>
        <time>2018-01-14T08:08:10Z</time>
      </trkpt>
      <trkpt lat="42.68775" lon="1.72909">
        <ele>1917</ele>
        <time>2018-01-14T08:08:11Z</time>
      </trkpt>
      <trkpt lat="42.68771" lon="1.72917">
        <ele>1925</ele>
        <time>2018-01-14T08:08:32Z</time>
      </trkpt>
      <trkpt lat="42.68769" lon="1.72927">
        <ele>1925</ele>
        <time>2018-01-14T08:08:48Z</time>
      </trkpt>
      <trkpt lat="42.68768" lon="1.72936">
        <ele>1925</ele>
        <time>2018-01-14T08:09:08Z</time>
      </trkpt>
      <trkpt lat="42.68768" lon="1.72936">
        <ele>1925</ele>
        <time>2018-01-14T08:09:31Z</time>
      </trkpt>
      <trkpt lat="42.68766" lon="1.72939">
        <ele>1925</ele>
        <time>2018-01-14T08:09:57Z</time>
      </trkpt>
      <trkpt lat="42.68765" lon="1.72942">
        <ele>1925</ele>
        <time>2018-01-14T08:13:41Z</time>
      </trkpt>
      <trkpt lat="42.68764" lon="1.72945">
        <ele>1925</ele>
        <time>2018-01-14T08:14:07Z</time>
      </trkpt>
      <trkpt lat="42.68762" lon="1.72956">
        <ele>1926</ele>
        <time>2018-01-14T08:14:27Z</time>
      </trkpt>
      <trkpt lat="42.68761" lon="1.72969">
        <ele>1927</ele>
        <time>2018-01-14T08:14:46Z</time>
      </trkpt>
      <trkpt lat="42.68759" lon="1.72981">
        <ele>1929</ele>
        <time>2018-01-14T08:15:06Z</time>
      </trkpt>
      <trkpt lat="42.68755" lon="1.72991">
        <ele>1931</ele>
        <time>2018-01-14T08:15:26Z</time>
      </trkpt>
      <trkpt lat="42.68752" lon="1.73002">
        <ele>1935</ele>
        <time>2018-01-14T08:15:46Z</time>
      </trkpt>
      <trkpt lat="42.6875" lon="1.73013">
        <ele>1942</ele>
        <time>2018-01-14T08:16:05Z</time>
      </trkpt>
      <trkpt lat="42.68747" lon="1.73022">
        <ele>1945</ele>
        <time>2018-01-14T08:16:25Z</time>
      </trkpt>
      <trkpt lat="42.68745" lon="1.73033">
        <ele>1948</ele>
        <time>2018-01-14T08:16:44Z</time>
      </trkpt>
      <trkpt lat="42.68742" lon="1.73044">
        <ele>1949</ele>
        <time>2018-01-14T08:17:01Z</time>
      </trkpt>
      <trkpt lat="42.68739" lon="1.73059">
        <ele>1950</ele>
        <time>2018-01-14T08:17:19Z</time>
      </trkpt>
      <trkpt lat="42.68737" lon="1.73073">
        <ele>1950</ele>
        <time>2018-01-14T08:17:41Z</time>
      </trkpt>
      <trkpt lat="42.68735" lon="1.73086">
        <ele>1954</ele>
        <time>2018-01-14T08:18:02Z</time>
      </trkpt>
      <trkpt lat="42.68733" lon="1.73098">
        <ele>1955</ele>
        <time>2018-01-14T08:18:22Z</time>
      </trkpt>
      <trkpt lat="42.68729" lon="1.7311">
        <ele>1957</ele>
        <time>2018-01-14T08:18:43Z</time>
      </trkpt>
      <trkpt lat="42.68727" lon="1.73123">
        <ele>1958</ele>
        <time>2018-01-14T08:19:03Z</time>
      </trkpt>
      <trkpt lat="42.68723" lon="1.73136">
        <ele>1959</ele>
        <time>2018-01-14T08:19:22Z</time>
      </trkpt>
      <trkpt lat="42.68721" lon="1.73149">
        <ele>1960</ele>
        <time>2018-01-14T08:19:40Z</time>
      </trkpt>
      <trkpt lat="42.68719" lon="1.73161">
        <ele>1960</ele>
        <time>2018-01-14T08:19:55Z</time>
      </trkpt>
      <trkpt lat="42.68718" lon="1.73176">
        <ele>1963</ele>
        <time>2018-01-14T08:20:13Z</time>
      </trkpt>
      <trkpt lat="42.68717" lon="1.73189">
        <ele>1963</ele>
        <time>2018-01-14T08:20:30Z</time>
      </trkpt>
      <trkpt lat="42.68718" lon="1.732">
        <ele>1964</ele>
        <time>2018-01-14T08:20:50Z</time>
      </trkpt>
      <trkpt lat="42.68719" lon="1.73204">
        <ele>1964</ele>
        <time>2018-01-14T08:21:08Z</time>
      </trkpt>
      <trkpt lat="42.6872" lon="1.73208">
        <ele>1964</ele>
        <time>2018-01-14T08:25:49Z</time>
      </trkpt>
      <trkpt lat="42.68722" lon="1.73207">
        <ele>1963</ele>
        <time>2018-01-14T08:26:07Z</time>
      </trkpt>
      <trkpt lat="42.68724" lon="1.73207">
        <ele>1963</ele>
        <time>2018-01-14T08:26:10Z</time>
      </trkpt>
      <trkpt lat="42.68746" lon="1.73213">
        <ele>1962</ele>
        <time>2018-01-14T08:26:32Z</time>
      </trkpt>
      <trkpt lat="42.68763" lon="1.73217">
        <ele>1960</ele>
        <time>2018-01-14T08:26:50Z</time>
      </trkpt>
      <trkpt lat="42.68768" lon="1.73218">
        <ele>1960</ele>
        <time>2018-01-14T08:26:55Z</time>
      </trkpt>
      <trkpt lat="42.68784" lon="1.73222">
        <ele>1961</ele>
        <time>2018-01-14T08:27:11Z</time>
      </trkpt>
      <trkpt lat="42.68803" lon="1.73223">
        <ele>1961</ele>
        <time>2018-01-14T08:27:31Z</time>
      </trkpt>
      <trkpt lat="42.68812" lon="1.73224">
        <ele>1961</ele>
        <time>2018-01-14T08:27:40Z</time>
      </trkpt>
      <trkpt lat="42.68828" lon="1.7322">
        <ele>1962</ele>
        <time>2018-01-14T08:27:59Z</time>
      </trkpt>
      <trkpt lat="42.68839" lon="1.73219">
        <ele>1964</ele>
        <time>2018-01-14T08:28:14Z</time>
      </trkpt>
      <trkpt lat="42.6885" lon="1.73216">
        <ele>1964</ele>
        <time>2018-01-14T08:28:30Z</time>
      </trkpt>
      <trkpt lat="42.68862" lon="1.73215">
        <ele>1964</ele>
        <time>2018-01-14T08:28:49Z</time>
      </trkpt>
      <trkpt lat="42.68879" lon="1.73209">
        <ele>1964</ele>
        <time>2018-01-14T08:29:07Z</time>
      </trkpt>
      <trkpt lat="42.68889" lon="1.7321">
        <ele>1965</ele>
        <time>2018-01-14T08:29:24Z</time>
      </trkpt>
      <trkpt lat="42.68902" lon="1.73207">
        <ele>1965</ele>
        <time>2018-01-14T08:29:39Z</time>
      </trkpt>
      <trkpt lat="42.68919" lon="1.73204">
        <ele>1965</ele>
        <time>2018-01-14T08:29:56Z</time>
      </trkpt>
      <trkpt lat="42.68931" lon="1.73196">
        <ele>1965</ele>
        <time>2018-01-14T08:30:12Z</time>
      </trkpt>
      <trkpt lat="42.68932" lon="1.73195">
        <ele>1965</ele>
        <time>2018-01-14T08:30:13Z</time>
      </trkpt>
      <trkpt lat="42.68948" lon="1.73186">
        <ele>1965</ele>
        <time>2018-01-14T08:30:30Z</time>
      </trkpt>
      <trkpt lat="42.68962" lon="1.73175">
        <ele>1965</ele>
        <time>2018-01-14T08:30:47Z</time>
      </trkpt>
      <trkpt lat="42.6897" lon="1.73163">
        <ele>1964</ele>
        <time>2018-01-14T08:31:06Z</time>
      </trkpt>
      <trkpt lat="42.68972" lon="1.73162">
        <ele>1964</ele>
        <time>2018-01-14T08:31:19Z</time>
      </trkpt>
      <trkpt lat="42.68982" lon="1.73139">
        <ele>1964</ele>
        <time>2018-01-14T08:31:36Z</time>
      </trkpt>
      <trkpt lat="42.68996" lon="1.73116">
        <ele>1962</ele>
        <time>2018-01-14T08:31:53Z</time>
      </trkpt>
      <trkpt lat="42.69015" lon="1.73104">
        <ele>1962</ele>
        <time>2018-01-14T08:32:10Z</time>
      </trkpt>
      <trkpt lat="42.69025" lon="1.73096">
        <ele>1962</ele>
        <time>2018-01-14T08:32:19Z</time>
      </trkpt>
      <trkpt lat="42.69032" lon="1.73091">
        <ele>1962</ele>
        <time>2018-01-14T08:32:26Z</time>
      </trkpt>
      <trkpt lat="42.69041" lon="1.73083">
        <ele>1960</ele>
        <time>2018-01-14T08:32:38Z</time>
      </trkpt>
      <trkpt lat="42.69048" lon="1.73065">
        <ele>1960</ele>
        <time>2018-01-14T08:32:53Z</time>
      </trkpt>
      <trkpt lat="42.69051" lon="1.73057">
        <ele>1960</ele>
        <time>2018-01-14T08:33:00Z</time>
      </trkpt>
      <trkpt lat="42.69065" lon="1.73037">
        <ele>1959</ele>
        <time>2018-01-14T08:33:19Z</time>
      </trkpt>
      <trkpt lat="42.69081" lon="1.73022">
        <ele>1959</ele>
        <time>2018-01-14T08:33:37Z</time>
      </trkpt>
      <trkpt lat="42.69084" lon="1.7302">
        <ele>1961</ele>
        <time>2018-01-14T08:33:40Z</time>
      </trkpt>
      <trkpt lat="42.69089" lon="1.73017">
        <ele>1961</ele>
        <time>2018-01-14T08:33:45Z</time>
      </trkpt>
      <trkpt lat="42.69105" lon="1.73003">
        <ele>1961</ele>
        <time>2018-01-14T08:34:03Z</time>
      </trkpt>
      <trkpt lat="42.6912" lon="1.72988">
        <ele>1959</ele>
        <time>2018-01-14T08:34:22Z</time>
      </trkpt>
      <trkpt lat="42.69131" lon="1.72971">
        <ele>1959</ele>
        <time>2018-01-14T08:34:38Z</time>
      </trkpt>
      <trkpt lat="42.6914" lon="1.7295">
        <ele>1958</ele>
        <time>2018-01-14T08:34:55Z</time>
      </trkpt>
      <trkpt lat="42.69149" lon="1.72929">
        <ele>1959</ele>
        <time>2018-01-14T08:35:13Z</time>
      </trkpt>
      <trkpt lat="42.69157" lon="1.72915">
        <ele>1957</ele>
        <time>2018-01-14T08:35:26Z</time>
      </trkpt>
      <trkpt lat="42.69167" lon="1.72898">
        <ele>1958</ele>
        <time>2018-01-14T08:35:42Z</time>
      </trkpt>
      <trkpt lat="42.69181" lon="1.72885">
        <ele>1956</ele>
        <time>2018-01-14T08:35:58Z</time>
      </trkpt>
      <trkpt lat="42.69183" lon="1.72882">
        <ele>1956</ele>
        <time>2018-01-14T08:36:01Z</time>
      </trkpt>
      <trkpt lat="42.69196" lon="1.72869">
        <ele>1955</ele>
        <time>2018-01-14T08:36:17Z</time>
      </trkpt>
      <trkpt lat="42.69197" lon="1.72868">
        <ele>1955</ele>
        <time>2018-01-14T08:36:18Z</time>
      </trkpt>
      <trkpt lat="42.69213" lon="1.72855">
        <ele>1955</ele>
        <time>2018-01-14T08:36:36Z</time>
      </trkpt>
      <trkpt lat="42.69229" lon="1.72845">
        <ele>1955</ele>
        <time>2018-01-14T08:36:53Z</time>
      </trkpt>
      <trkpt lat="42.69232" lon="1.72843">
        <ele>1955</ele>
        <time>2018-01-14T08:36:56Z</time>
      </trkpt>
      <trkpt lat="42.69252" lon="1.72836">
        <ele>1954</ele>
        <time>2018-01-14T08:37:15Z</time>
      </trkpt>
      <trkpt lat="42.69266" lon="1.72833">
        <ele>1955</ele>
        <time>2018-01-14T08:37:30Z</time>
      </trkpt>
      <trkpt lat="42.6928" lon="1.72832">
        <ele>1955</ele>
        <time>2018-01-14T08:37:44Z</time>
      </trkpt>
      <trkpt lat="42.69298" lon="1.72824">
        <ele>1956</ele>
        <time>2018-01-14T08:38:02Z</time>
      </trkpt>
      <trkpt lat="42.6931" lon="1.72809">
        <ele>1957</ele>
        <time>2018-01-14T08:38:17Z</time>
      </trkpt>
      <trkpt lat="42.6932" lon="1.72792">
        <ele>1957</ele>
        <time>2018-01-14T08:38:34Z</time>
      </trkpt>
      <trkpt lat="42.69323" lon="1.72789">
        <ele>1957</ele>
        <time>2018-01-14T08:38:38Z</time>
      </trkpt>
      <trkpt lat="42.69332" lon="1.72777">
        <ele>1958</ele>
        <time>2018-01-14T08:38:54Z</time>
      </trkpt>
      <trkpt lat="42.69334" lon="1.72776">
        <ele>1962</ele>
        <time>2018-01-14T08:38:56Z</time>
      </trkpt>
      <trkpt lat="42.69344" lon="1.72764">
        <ele>1962</ele>
        <time>2018-01-14T08:39:13Z</time>
      </trkpt>
      <trkpt lat="42.69355" lon="1.72752">
        <ele>1963</ele>
        <time>2018-01-14T08:39:31Z</time>
      </trkpt>
      <trkpt lat="42.69364" lon="1.72741">
        <ele>1966</ele>
        <time>2018-01-14T08:39:48Z</time>
      </trkpt>
      <trkpt lat="42.69377" lon="1.72729">
        <ele>1967</ele>
        <time>2018-01-14T08:40:07Z</time>
      </trkpt>
      <trkpt lat="42.69386" lon="1.72717">
        <ele>1968</ele>
        <time>2018-01-14T08:40:24Z</time>
      </trkpt>
      <trkpt lat="42.6939" lon="1.72712">
        <ele>1968</ele>
        <time>2018-01-14T08:40:31Z</time>
      </trkpt>
      <trkpt lat="42.69398" lon="1.72695">
        <ele>1969</ele>
        <time>2018-01-14T08:40:48Z</time>
      </trkpt>
      <trkpt lat="42.69404" lon="1.7268">
        <ele>1971</ele>
        <time>2018-01-14T08:41:05Z</time>
      </trkpt>
      <trkpt lat="42.69413" lon="1.72662">
        <ele>1974</ele>
        <time>2018-01-14T08:41:23Z</time>
      </trkpt>
      <trkpt lat="42.69421" lon="1.72647">
        <ele>1979</ele>
        <time>2018-01-14T08:41:39Z</time>
      </trkpt>
      <trkpt lat="42.6943" lon="1.72636">
        <ele>1980</ele>
        <time>2018-01-14T08:41:56Z</time>
      </trkpt>
      <trkpt lat="42.69436" lon="1.72632">
        <ele>1980</ele>
        <time>2018-01-14T08:42:05Z</time>
      </trkpt>
      <trkpt lat="42.6945" lon="1.72637">
        <ele>1981</ele>
        <time>2018-01-14T08:42:24Z</time>
      </trkpt>
      <trkpt lat="42.69452" lon="1.72637">
        <ele>1981</ele>
        <time>2018-01-14T08:42:27Z</time>
      </trkpt>
      <trkpt lat="42.69466" lon="1.7264">
        <ele>1982</ele>
        <time>2018-01-14T08:42:46Z</time>
      </trkpt>
      <trkpt lat="42.69467" lon="1.7264">
        <ele>1982</ele>
        <time>2018-01-14T08:42:47Z</time>
      </trkpt>
      <trkpt lat="42.69481" lon="1.72628">
        <ele>1983</ele>
        <time>2018-01-14T08:43:06Z</time>
      </trkpt>
      <trkpt lat="42.69487" lon="1.72619">
        <ele>1983</ele>
        <time>2018-01-14T08:43:21Z</time>
      </trkpt>
      <trkpt lat="42.695" lon="1.72605">
        <ele>1985</ele>
        <time>2018-01-14T08:43:36Z</time>
      </trkpt>
      <trkpt lat="42.69506" lon="1.72596">
        <ele>1986</ele>
        <time>2018-01-14T08:43:52Z</time>
      </trkpt>
      <trkpt lat="42.69518" lon="1.72581">
        <ele>1987</ele>
        <time>2018-01-14T08:44:08Z</time>
      </trkpt>
      <trkpt lat="42.69523" lon="1.72572">
        <ele>1987</ele>
        <time>2018-01-14T08:44:16Z</time>
      </trkpt>
      <trkpt lat="42.69529" lon="1.72563">
        <ele>1987</ele>
        <time>2018-01-14T08:44:24Z</time>
      </trkpt>
      <trkpt lat="42.69532" lon="1.72558">
        <ele>1987</ele>
        <time>2018-01-14T08:44:28Z</time>
      </trkpt>
      <trkpt lat="42.69534" lon="1.72554">
        <ele>1987</ele>
        <time>2018-01-14T08:44:32Z</time>
      </trkpt>
      <trkpt lat="42.69536" lon="1.72548">
        <ele>1987</ele>
        <time>2018-01-14T08:44:36Z</time>
      </trkpt>
      <trkpt lat="42.69541" lon="1.72536">
        <ele>1987</ele>
        <time>2018-01-14T08:44:46Z</time>
      </trkpt>
      <trkpt lat="42.69545" lon="1.72529">
        <ele>1988</ele>
        <time>2018-01-14T08:44:53Z</time>
      </trkpt>
      <trkpt lat="42.69552" lon="1.72515">
        <ele>1988</ele>
        <time>2018-01-14T08:45:04Z</time>
      </trkpt>
      <trkpt lat="42.69553" lon="1.72513">
        <ele>1988</ele>
        <time>2018-01-14T08:45:06Z</time>
      </trkpt>
      <trkpt lat="42.69557" lon="1.72504">
        <ele>1988</ele>
        <time>2018-01-14T08:45:15Z</time>
      </trkpt>
      <trkpt lat="42.69561" lon="1.72497">
        <ele>1990</ele>
        <time>2018-01-14T08:45:22Z</time>
      </trkpt>
      <trkpt lat="42.69572" lon="1.72481">
        <ele>1990</ele>
        <time>2018-01-14T08:45:40Z</time>
      </trkpt>
      <trkpt lat="42.69578" lon="1.72473">
        <ele>1990</ele>
        <time>2018-01-14T08:45:55Z</time>
      </trkpt>
      <trkpt lat="42.69587" lon="1.7246">
        <ele>1992</ele>
        <time>2018-01-14T08:46:11Z</time>
      </trkpt>
      <trkpt lat="42.69597" lon="1.72449">
        <ele>1992</ele>
        <time>2018-01-14T08:46:26Z</time>
      </trkpt>
      <trkpt lat="42.69611" lon="1.72438">
        <ele>1992</ele>
        <time>2018-01-14T08:46:43Z</time>
      </trkpt>
      <trkpt lat="42.69621" lon="1.72432">
        <ele>1993</ele>
        <time>2018-01-14T08:46:59Z</time>
      </trkpt>
      <trkpt lat="42.69633" lon="1.72424">
        <ele>1993</ele>
        <time>2018-01-14T08:47:15Z</time>
      </trkpt>
      <trkpt lat="42.69637" lon="1.7242">
        <ele>1993</ele>
        <time>2018-01-14T08:47:20Z</time>
      </trkpt>
      <trkpt lat="42.69649" lon="1.72403">
        <ele>1994</ele>
        <time>2018-01-14T08:47:36Z</time>
      </trkpt>
      <trkpt lat="42.6966" lon="1.72383">
        <ele>1994</ele>
        <time>2018-01-14T08:47:54Z</time>
      </trkpt>
      <trkpt lat="42.69675" lon="1.7237">
        <ele>1993</ele>
        <time>2018-01-14T08:48:11Z</time>
      </trkpt>
      <trkpt lat="42.69697" lon="1.72364">
        <ele>1993</ele>
        <time>2018-01-14T08:48:31Z</time>
      </trkpt>
      <trkpt lat="42.69701" lon="1.72364">
        <ele>1993</ele>
        <time>2018-01-14T08:48:35Z</time>
      </trkpt>
      <trkpt lat="42.69706" lon="1.72364">
        <ele>1993</ele>
        <time>2018-01-14T08:48:39Z</time>
      </trkpt>
      <trkpt lat="42.69714" lon="1.7236">
        <ele>1992</ele>
        <time>2018-01-14T08:48:48Z</time>
      </trkpt>
      <trkpt lat="42.69718" lon="1.72355">
        <ele>1992</ele>
        <time>2018-01-14T08:49:09Z</time>
      </trkpt>
      <trkpt lat="42.69721" lon="1.72357">
        <ele>1992</ele>
        <time>2018-01-14T08:49:42Z</time>
      </trkpt>
      <trkpt lat="42.69723" lon="1.72359">
        <ele>1992</ele>
        <time>2018-01-14T08:50:02Z</time>
      </trkpt>
      <trkpt lat="42.69724" lon="1.72359">
        <ele>1992</ele>
        <time>2018-01-14T08:50:38Z</time>
      </trkpt>
      <trkpt lat="42.69725" lon="1.72359">
        <ele>1992</ele>
        <time>2018-01-14T08:51:03Z</time>
      </trkpt>
      <trkpt lat="42.69723" lon="1.7236">
        <ele>1992</ele>
        <time>2018-01-14T08:51:29Z</time>
      </trkpt>
      <trkpt lat="42.69725" lon="1.72359">
        <ele>1992</ele>
        <time>2018-01-14T08:52:02Z</time>
      </trkpt>
      <trkpt lat="42.69727" lon="1.7236">
        <ele>1992</ele>
        <time>2018-01-14T08:52:37Z</time>
      </trkpt>
      <trkpt lat="42.69727" lon="1.72361">
        <ele>1992</ele>
        <time>2018-01-14T08:53:15Z</time>
      </trkpt>
      <trkpt lat="42.69727" lon="1.7236">
        <ele>1992</ele>
        <time>2018-01-14T08:53:54Z</time>
      </trkpt>
      <trkpt lat="42.69727" lon="1.7236">
        <ele>1992</ele>
        <time>2018-01-14T08:54:26Z</time>
      </trkpt>
      <trkpt lat="42.69726" lon="1.7236">
        <ele>1992</ele>
        <time>2018-01-14T08:55:01Z</time>
      </trkpt>
      <trkpt lat="42.69725" lon="1.72361">
        <ele>1992</ele>
        <time>2018-01-14T08:55:33Z</time>
      </trkpt>
      <trkpt lat="42.69726" lon="1.7236">
        <ele>1992</ele>
        <time>2018-01-14T08:56:09Z</time>
      </trkpt>
      <trkpt lat="42.69725" lon="1.72361">
        <ele>1992</ele>
        <time>2018-01-14T08:56:47Z</time>
      </trkpt>
      <trkpt lat="42.69726" lon="1.7236">
        <ele>1992</ele>
        <time>2018-01-14T08:57:16Z</time>
      </trkpt>
      <trkpt lat="42.69734" lon="1.72346">
        <ele>1991</ele>
        <time>2018-01-14T08:57:31Z</time>
      </trkpt>
      <trkpt lat="42.69743" lon="1.7233">
        <ele>1990</ele>
        <time>2018-01-14T08:57:47Z</time>
      </trkpt>
      <trkpt lat="42.69749" lon="1.72309">
        <ele>1989</ele>
        <time>2018-01-14T08:58:04Z</time>
      </trkpt>
      <trkpt lat="42.69755" lon="1.72288">
        <ele>1984</ele>
        <time>2018-01-14T08:58:20Z</time>
      </trkpt>
      <trkpt lat="42.6976" lon="1.72269">
        <ele>1984</ele>
        <time>2018-01-14T08:58:35Z</time>
      </trkpt>
      <trkpt lat="42.69766" lon="1.72243">
        <ele>1980</ele>
        <time>2018-01-14T08:58:54Z</time>
      </trkpt>
      <trkpt lat="42.69772" lon="1.72218">
        <ele>1978</ele>
        <time>2018-01-14T08:59:12Z</time>
      </trkpt>
      <trkpt lat="42.69773" lon="1.7221">
        <ele>1977</ele>
        <time>2018-01-14T08:59:18Z</time>
      </trkpt>
      <trkpt lat="42.69779" lon="1.72187">
        <ele>1976</ele>
        <time>2018-01-14T08:59:36Z</time>
      </trkpt>
      <trkpt lat="42.69783" lon="1.72169">
        <ele>1975</ele>
        <time>2018-01-14T08:59:50Z</time>
      </trkpt>
      <trkpt lat="42.69789" lon="1.72145">
        <ele>1967</ele>
        <time>2018-01-14T09:00:09Z</time>
      </trkpt>
      <trkpt lat="42.69794" lon="1.72126">
        <ele>1966</ele>
        <time>2018-01-14T09:00:24Z</time>
      </trkpt>
      <trkpt lat="42.698" lon="1.72103">
        <ele>1964</ele>
        <time>2018-01-14T09:00:41Z</time>
      </trkpt>
      <trkpt lat="42.69805" lon="1.7208">
        <ele>1957</ele>
        <time>2018-01-14T09:00:58Z</time>
      </trkpt>
      <trkpt lat="42.69814" lon="1.72062">
        <ele>1957</ele>
        <time>2018-01-14T09:01:13Z</time>
      </trkpt>
      <trkpt lat="42.69825" lon="1.72041">
        <ele>1956</ele>
        <time>2018-01-14T09:01:31Z</time>
      </trkpt>
      <trkpt lat="42.69834" lon="1.7202">
        <ele>1950</ele>
        <time>2018-01-14T09:01:49Z</time>
      </trkpt>
      <trkpt lat="42.69844" lon="1.71998">
        <ele>1950</ele>
        <time>2018-01-14T09:02:07Z</time>
      </trkpt>
      <trkpt lat="42.69854" lon="1.71977">
        <ele>1946</ele>
        <time>2018-01-14T09:02:24Z</time>
      </trkpt>
      <trkpt lat="42.69864" lon="1.71959">
        <ele>1944</ele>
        <time>2018-01-14T09:02:40Z</time>
      </trkpt>
      <trkpt lat="42.69874" lon="1.71938">
        <ele>1943</ele>
        <time>2018-01-14T09:02:57Z</time>
      </trkpt>
      <trkpt lat="42.69875" lon="1.71937">
        <ele>1943</ele>
        <time>2018-01-14T09:02:59Z</time>
      </trkpt>
      <trkpt lat="42.69876" lon="1.71935">
        <ele>1943</ele>
        <time>2018-01-14T09:03:01Z</time>
      </trkpt>
      <trkpt lat="42.69885" lon="1.71919">
        <ele>1942</ele>
        <time>2018-01-14T09:03:18Z</time>
      </trkpt>
      <trkpt lat="42.69893" lon="1.71902">
        <ele>1940</ele>
        <time>2018-01-14T09:03:33Z</time>
      </trkpt>
      <trkpt lat="42.69905" lon="1.7188">
        <ele>1940</ele>
        <time>2018-01-14T09:03:53Z</time>
      </trkpt>
      <trkpt lat="42.69912" lon="1.71862">
        <ele>1939</ele>
        <time>2018-01-14T09:04:09Z</time>
      </trkpt>
      <trkpt lat="42.6992" lon="1.71841">
        <ele>1935</ele>
        <time>2018-01-14T09:04:26Z</time>
      </trkpt>
      <trkpt lat="42.69928" lon="1.71821">
        <ele>1936</ele>
        <time>2018-01-14T09:04:43Z</time>
      </trkpt>
      <trkpt lat="42.69936" lon="1.71805">
        <ele>1936</ele>
        <time>2018-01-14T09:04:58Z</time>
      </trkpt>
      <trkpt lat="42.69942" lon="1.71789">
        <ele>1936</ele>
        <time>2018-01-14T09:05:13Z</time>
      </trkpt>
      <trkpt lat="42.69941" lon="1.71787">
        <ele>1936</ele>
        <time>2018-01-14T09:05:29Z</time>
      </trkpt>
      <trkpt lat="42.69942" lon="1.71788">
        <ele>1936</ele>
        <time>2018-01-14T09:05:54Z</time>
      </trkpt>
      <trkpt lat="42.69941" lon="1.71787">
        <ele>1936</ele>
        <time>2018-01-14T09:06:31Z</time>
      </trkpt>
      <trkpt lat="42.69942" lon="1.71787">
        <ele>1936</ele>
        <time>2018-01-14T09:06:52Z</time>
      </trkpt>
      <trkpt lat="42.69942" lon="1.71787">
        <ele>1936</ele>
        <time>2018-01-14T09:07:13Z</time>
      </trkpt>
      <trkpt lat="42.69942" lon="1.71787">
        <ele>1936</ele>
        <time>2018-01-14T09:07:41Z</time>
      </trkpt>
      <trkpt lat="42.69941" lon="1.71788">
        <ele>1936</ele>
        <time>2018-01-14T09:08:06Z</time>
      </trkpt>
      <trkpt lat="42.6994" lon="1.71785">
        <ele>1936</ele>
        <time>2018-01-14T09:08:37Z</time>
      </trkpt>
      <trkpt lat="42.69941" lon="1.71781">
        <ele>1936</ele>
        <time>2018-01-14T09:08:41Z</time>
      </trkpt>
      <trkpt lat="42.69941" lon="1.71779">
        <ele>1936</ele>
        <time>2018-01-14T09:08:43Z</time>
      </trkpt>
      <trkpt lat="42.69946" lon="1.7176">
        <ele>1936</ele>
        <time>2018-01-14T09:08:59Z</time>
      </trkpt>
      <trkpt lat="42.69951" lon="1.71742">
        <ele>1941</ele>
        <time>2018-01-14T09:09:14Z</time>
      </trkpt>
      <trkpt lat="42.69954" lon="1.71727">
        <ele>1942</ele>
        <time>2018-01-14T09:09:29Z</time>
      </trkpt>
      <trkpt lat="42.69956" lon="1.71714">
        <ele>1943</ele>
        <time>2018-01-14T09:09:48Z</time>
      </trkpt>
      <trkpt lat="42.69958" lon="1.71703">
        <ele>1943</ele>
        <time>2018-01-14T09:10:04Z</time>
      </trkpt>
      <trkpt lat="42.69959" lon="1.71694">
        <ele>1944</ele>
        <time>2018-01-14T09:10:21Z</time>
      </trkpt>
      <trkpt lat="42.69961" lon="1.71687">
        <ele>1944</ele>
        <time>2018-01-14T09:10:39Z</time>
      </trkpt>
      <trkpt lat="42.69963" lon="1.7168">
        <ele>1945</ele>
        <time>2018-01-14T09:10:56Z</time>
      </trkpt>
      <trkpt lat="42.69966" lon="1.71673">
        <ele>1945</ele>
        <time>2018-01-14T09:11:14Z</time>
      </trkpt>
      <trkpt lat="42.69968" lon="1.71666">
        <ele>1955</ele>
        <time>2018-01-14T09:11:30Z</time>
      </trkpt>
      <trkpt lat="42.69969" lon="1.71662">
        <ele>1955</ele>
        <time>2018-01-14T09:11:45Z</time>
      </trkpt>
      <trkpt lat="42.69971" lon="1.71656">
        <ele>1956</ele>
        <time>2018-01-14T09:12:01Z</time>
      </trkpt>
      <trkpt lat="42.69973" lon="1.71649">
        <ele>1956</ele>
        <time>2018-01-14T09:12:17Z</time>
      </trkpt>
      <trkpt lat="42.69976" lon="1.71642">
        <ele>1957</ele>
        <time>2018-01-14T09:12:36Z</time>
      </trkpt>
      <trkpt lat="42.6998" lon="1.71636">
        <ele>1958</ele>
        <time>2018-01-14T09:12:53Z</time>
      </trkpt>
      <trkpt lat="42.69982" lon="1.71632">
        <ele>1958</ele>
        <time>2018-01-14T09:13:10Z</time>
      </trkpt>
      <trkpt lat="42.69984" lon="1.71629">
        <ele>1959</ele>
        <time>2018-01-14T09:13:26Z</time>
      </trkpt>
      <trkpt lat="42.69989" lon="1.71621">
        <ele>1960</ele>
        <time>2018-01-14T09:13:44Z</time>
      </trkpt>
      <trkpt lat="42.69996" lon="1.71611">
        <ele>1963</ele>
        <time>2018-01-14T09:14:05Z</time>
      </trkpt>
      <trkpt lat="42.70003" lon="1.71601">
        <ele>1967</ele>
        <time>2018-01-14T09:14:24Z</time>
      </trkpt>
      <trkpt lat="42.7001" lon="1.71591">
        <ele>1969</ele>
        <time>2018-01-14T09:14:39Z</time>
      </trkpt>
      <trkpt lat="42.70018" lon="1.71584">
        <ele>1968</ele>
        <time>2018-01-14T09:14:54Z</time>
      </trkpt>
      <trkpt lat="42.70026" lon="1.71577">
        <ele>1976</ele>
        <time>2018-01-14T09:15:13Z</time>
      </trkpt>
      <trkpt lat="42.70036" lon="1.7157">
        <ele>1976</ele>
        <time>2018-01-14T09:15:29Z</time>
      </trkpt>
      <trkpt lat="42.70043" lon="1.71562">
        <ele>1977</ele>
        <time>2018-01-14T09:15:44Z</time>
      </trkpt>
      <trkpt lat="42.70051" lon="1.71553">
        <ele>1977</ele>
        <time>2018-01-14T09:15:59Z</time>
      </trkpt>
      <trkpt lat="42.70055" lon="1.7155">
        <ele>1977</ele>
        <time>2018-01-14T09:16:04Z</time>
      </trkpt>
      <trkpt lat="42.70062" lon="1.71538">
        <ele>1978</ele>
        <time>2018-01-14T09:16:22Z</time>
      </trkpt>
      <trkpt lat="42.70066" lon="1.71528">
        <ele>1979</ele>
        <time>2018-01-14T09:16:37Z</time>
      </trkpt>
      <trkpt lat="42.70072" lon="1.71515">
        <ele>1980</ele>
        <time>2018-01-14T09:16:53Z</time>
      </trkpt>
      <trkpt lat="42.70077" lon="1.71501">
        <ele>1982</ele>
        <time>2018-01-14T09:17:08Z</time>
      </trkpt>
      <trkpt lat="42.70077" lon="1.715">
        <ele>1982</ele>
        <time>2018-01-14T09:17:31Z</time>
      </trkpt>
      <trkpt lat="42.70076" lon="1.715">
        <ele>1982</ele>
        <time>2018-01-14T09:17:54Z</time>
      </trkpt>
      <trkpt lat="42.70076" lon="1.715">
        <ele>1982</ele>
        <time>2018-01-14T09:18:17Z</time>
      </trkpt>
      <trkpt lat="42.70076" lon="1.715">
        <ele>1982</ele>
        <time>2018-01-14T09:18:37Z</time>
      </trkpt>
      <trkpt lat="42.70075" lon="1.71498">
        <ele>1982</ele>
        <time>2018-01-14T09:18:51Z</time>
      </trkpt>
      <trkpt lat="42.70075" lon="1.71498">
        <ele>1982</ele>
        <time>2018-01-14T09:19:12Z</time>
      </trkpt>
      <trkpt lat="42.70076" lon="1.71497">
        <ele>1982</ele>
        <time>2018-01-14T09:19:39Z</time>
      </trkpt>
      <trkpt lat="42.70077" lon="1.71498">
        <ele>1982</ele>
        <time>2018-01-14T09:20:02Z</time>
      </trkpt>
      <trkpt lat="42.70077" lon="1.71497">
        <ele>1982</ele>
        <time>2018-01-14T09:20:36Z</time>
      </trkpt>
      <trkpt lat="42.70076" lon="1.715">
        <ele>1982</ele>
        <time>2018-01-14T09:20:55Z</time>
      </trkpt>
      <trkpt lat="42.70076" lon="1.715">
        <ele>1982</ele>
        <time>2018-01-14T09:21:18Z</time>
      </trkpt>
      <trkpt lat="42.70076" lon="1.715">
        <ele>1983</ele>
        <time>2018-01-14T09:21:37Z</time>
      </trkpt>
      <trkpt lat="42.70076" lon="1.715">
        <ele>1982</ele>
        <time>2018-01-14T09:21:44Z</time>
      </trkpt>
      <trkpt lat="42.70076" lon="1.715">
        <ele>1982</ele>
        <time>2018-01-14T09:21:48Z</time>
      </trkpt>
      <trkpt lat="42.70076" lon="1.715">
        <ele>1983</ele>
        <time>2018-01-14T09:22:08Z</time>
      </trkpt>
      <trkpt lat="42.70076" lon="1.715">
        <ele>1982</ele>
        <time>2018-01-14T09:22:11Z</time>
      </trkpt>
      <trkpt lat="42.70076" lon="1.71501">
        <ele>1982</ele>
        <time>2018-01-14T09:22:39Z</time>
      </trkpt>
      <trkpt lat="42.70077" lon="1.71502">
        <ele>1982</ele>
        <time>2018-01-14T09:23:01Z</time>
      </trkpt>
      <trkpt lat="42.70076" lon="1.71502">
        <ele>1982</ele>
        <time>2018-01-14T09:23:23Z</time>
      </trkpt>
      <trkpt lat="42.70079" lon="1.71498">
        <ele>1982</ele>
        <time>2018-01-14T09:23:46Z</time>
      </trkpt>
      <trkpt lat="42.70082" lon="1.71494">
        <ele>1982</ele>
        <time>2018-01-14T09:23:51Z</time>
      </trkpt>
      <trkpt lat="42.70092" lon="1.71473">
        <ele>1979</ele>
        <time>2018-01-14T09:24:08Z</time>
      </trkpt>
      <trkpt lat="42.70105" lon="1.71452">
        <ele>1978</ele>
        <time>2018-01-14T09:24:27Z</time>
      </trkpt>
      <trkpt lat="42.70119" lon="1.7144">
        <ele>1977</ele>
        <time>2018-01-14T09:24:45Z</time>
      </trkpt>
      <trkpt lat="42.70137" lon="1.71429">
        <ele>1976</ele>
        <time>2018-01-14T09:25:04Z</time>
      </trkpt>
      <trkpt lat="42.70142" lon="1.71425">
        <ele>1976</ele>
        <time>2018-01-14T09:25:21Z</time>
      </trkpt>
      <trkpt lat="42.70147" lon="1.71411">
        <ele>1972</ele>
        <time>2018-01-14T09:25:38Z</time>
      </trkpt>
      <trkpt lat="42.70155" lon="1.7139">
        <ele>1971</ele>
        <time>2018-01-14T09:25:55Z</time>
      </trkpt>
      <trkpt lat="42.70163" lon="1.71371">
        <ele>1970</ele>
        <time>2018-01-14T09:26:11Z</time>
      </trkpt>
      <trkpt lat="42.70171" lon="1.71347">
        <ele>1963</ele>
        <time>2018-01-14T09:26:29Z</time>
      </trkpt>
      <trkpt lat="42.7018" lon="1.71325">
        <ele>1961</ele>
        <time>2018-01-14T09:26:47Z</time>
      </trkpt>
      <trkpt lat="42.70188" lon="1.71297">
        <ele>1959</ele>
        <time>2018-01-14T09:27:07Z</time>
      </trkpt>
      <trkpt lat="42.70198" lon="1.71274">
        <ele>1959</ele>
        <time>2018-01-14T09:27:25Z</time>
      </trkpt>
      <trkpt lat="42.70208" lon="1.71255">
        <ele>1959</ele>
        <time>2018-01-14T09:27:43Z</time>
      </trkpt>
      <trkpt lat="42.70218" lon="1.71236">
        <ele>1956</ele>
        <time>2018-01-14T09:28:00Z</time>
      </trkpt>
      <trkpt lat="42.70225" lon="1.71219">
        <ele>1956</ele>
        <time>2018-01-14T09:28:16Z</time>
      </trkpt>
      <trkpt lat="42.70234" lon="1.71206">
        <ele>1956</ele>
        <time>2018-01-14T09:28:34Z</time>
      </trkpt>
      <trkpt lat="42.70237" lon="1.71201">
        <ele>1956</ele>
        <time>2018-01-14T09:28:50Z</time>
      </trkpt>
      <trkpt lat="42.70238" lon="1.71195">
        <ele>1956</ele>
        <time>2018-01-14T09:29:06Z</time>
      </trkpt>
      <trkpt lat="42.70238" lon="1.71193">
        <ele>1956</ele>
        <time>2018-01-14T09:29:08Z</time>
      </trkpt>
      <trkpt lat="42.70238" lon="1.71188">
        <ele>1956</ele>
        <time>2018-01-14T09:29:12Z</time>
      </trkpt>
      <trkpt lat="42.70239" lon="1.7118">
        <ele>1956</ele>
        <time>2018-01-14T09:29:19Z</time>
      </trkpt>
      <trkpt lat="42.70239" lon="1.71175">
        <ele>1957</ele>
        <time>2018-01-14T09:29:22Z</time>
      </trkpt>
      <trkpt lat="42.7024" lon="1.71171">
        <ele>1957</ele>
        <time>2018-01-14T09:29:26Z</time>
      </trkpt>
      <trkpt lat="42.70246" lon="1.71151">
        <ele>1954</ele>
        <time>2018-01-14T09:29:43Z</time>
      </trkpt>
      <trkpt lat="42.70254" lon="1.71135">
        <ele>1960</ele>
        <time>2018-01-14T09:29:56Z</time>
      </trkpt>
      <trkpt lat="42.70259" lon="1.71127">
        <ele>1960</ele>
        <time>2018-01-14T09:30:04Z</time>
      </trkpt>
      <trkpt lat="42.70267" lon="1.71115">
        <ele>1960</ele>
        <time>2018-01-14T09:30:15Z</time>
      </trkpt>
      <trkpt lat="42.70278" lon="1.71099">
        <ele>1960</ele>
        <time>2018-01-14T09:30:31Z</time>
      </trkpt>
      <trkpt lat="42.70281" lon="1.71094">
        <ele>1960</ele>
        <time>2018-01-14T09:30:36Z</time>
      </trkpt>
      <trkpt lat="42.70283" lon="1.71089">
        <ele>1960</ele>
        <time>2018-01-14T09:30:40Z</time>
      </trkpt>
      <trkpt lat="42.70298" lon="1.71068">
        <ele>1959</ele>
        <time>2018-01-14T09:30:59Z</time>
      </trkpt>
      <trkpt lat="42.70309" lon="1.7105">
        <ele>1959</ele>
        <time>2018-01-14T09:31:15Z</time>
      </trkpt>
      <trkpt lat="42.70321" lon="1.71034">
        <ele>1959</ele>
        <time>2018-01-14T09:31:29Z</time>
      </trkpt>
      <trkpt lat="42.70324" lon="1.71027">
        <ele>1958</ele>
        <time>2018-01-14T09:31:34Z</time>
      </trkpt>
      <trkpt lat="42.70327" lon="1.71025">
        <ele>1958</ele>
        <time>2018-01-14T09:31:37Z</time>
      </trkpt>
      <trkpt lat="42.70328" lon="1.71021">
        <ele>1958</ele>
        <time>2018-01-14T09:31:40Z</time>
      </trkpt>
      <trkpt lat="42.70332" lon="1.71015">
        <ele>1959</ele>
        <time>2018-01-14T09:31:45Z</time>
      </trkpt>
      <trkpt lat="42.70349" lon="1.70994">
        <ele>1956</ele>
        <time>2018-01-14T09:32:04Z</time>
      </trkpt>
      <trkpt lat="42.70362" lon="1.70984">
        <ele>1955</ele>
        <time>2018-01-14T09:32:16Z</time>
      </trkpt>
      <trkpt lat="42.70384" lon="1.70975">
        <ele>1954</ele>
        <time>2018-01-14T09:32:35Z</time>
      </trkpt>
      <trkpt lat="42.70408" lon="1.70969">
        <ele>1954</ele>
        <time>2018-01-14T09:32:55Z</time>
      </trkpt>
      <trkpt lat="42.70428" lon="1.70966">
        <ele>1948</ele>
        <time>2018-01-14T09:33:12Z</time>
      </trkpt>
      <trkpt lat="42.70452" lon="1.70964">
        <ele>1946</ele>
        <time>2018-01-14T09:33:31Z</time>
      </trkpt>
      <trkpt lat="42.70459" lon="1.70964">
        <ele>1946</ele>
        <time>2018-01-14T09:33:37Z</time>
      </trkpt>
      <trkpt lat="42.7048" lon="1.70966">
        <ele>1944</ele>
        <time>2018-01-14T09:33:55Z</time>
      </trkpt>
      <trkpt lat="42.70495" lon="1.70966">
        <ele>1944</ele>
        <time>2018-01-14T09:34:08Z</time>
      </trkpt>
      <trkpt lat="42.7051" lon="1.70966">
        <ele>1936</ele>
        <time>2018-01-14T09:34:21Z</time>
      </trkpt>
      <trkpt lat="42.7053" lon="1.7097">
        <ele>1936</ele>
        <time>2018-01-14T09:34:39Z</time>
      </trkpt>
      <trkpt lat="42.70552" lon="1.70976">
        <ele>1934</ele>
        <time>2018-01-14T09:34:58Z</time>
      </trkpt>
      <trkpt lat="42.70572" lon="1.7098">
        <ele>1934</ele>
        <time>2018-01-14T09:35:15Z</time>
      </trkpt>
      <trkpt lat="42.70592" lon="1.70981">
        <ele>1931</ele>
        <time>2018-01-14T09:35:33Z</time>
      </trkpt>
      <trkpt lat="42.70598" lon="1.70979">
        <ele>1931</ele>
        <time>2018-01-14T09:35:38Z</time>
      </trkpt>
      <trkpt lat="42.70609" lon="1.70972">
        <ele>1930</ele>
        <time>2018-01-14T09:35:49Z</time>
      </trkpt>
      <trkpt lat="42.70625" lon="1.7096">
        <ele>1930</ele>
        <time>2018-01-14T09:36:06Z</time>
      </trkpt>
      <trkpt lat="42.70635" lon="1.7095">
        <ele>1930</ele>
        <time>2018-01-14T09:36:18Z</time>
      </trkpt>
      <trkpt lat="42.70649" lon="1.7094">
        <ele>1930</ele>
        <time>2018-01-14T09:36:34Z</time>
      </trkpt>
      <trkpt lat="42.7065" lon="1.70938">
        <ele>1931</ele>
        <time>2018-01-14T09:36:36Z</time>
      </trkpt>
      <trkpt lat="42.70655" lon="1.70935">
        <ele>1931</ele>
        <time>2018-01-14T09:36:41Z</time>
      </trkpt>
      <trkpt lat="42.70657" lon="1.70933">
        <ele>1931</ele>
        <time>2018-01-14T09:36:43Z</time>
      </trkpt>
      <trkpt lat="42.7067" lon="1.70924">
        <ele>1932</ele>
        <time>2018-01-14T09:36:58Z</time>
      </trkpt>
      <trkpt lat="42.70685" lon="1.70913">
        <ele>1932</ele>
        <time>2018-01-14T09:37:13Z</time>
      </trkpt>
      <trkpt lat="42.707" lon="1.70902">
        <ele>1932</ele>
        <time>2018-01-14T09:37:31Z</time>
      </trkpt>
      <trkpt lat="42.70707" lon="1.70897">
        <ele>1932</ele>
        <time>2018-01-14T09:37:40Z</time>
      </trkpt>
      <trkpt lat="42.70709" lon="1.70895">
        <ele>1932</ele>
        <time>2018-01-14T09:37:42Z</time>
      </trkpt>
      <trkpt lat="42.70718" lon="1.70888">
        <ele>1932</ele>
        <time>2018-01-14T09:37:52Z</time>
      </trkpt>
      <trkpt lat="42.70719" lon="1.70886">
        <ele>1932</ele>
        <time>2018-01-14T09:37:54Z</time>
      </trkpt>
      <trkpt lat="42.70739" lon="1.70877">
        <ele>1932</ele>
        <time>2018-01-14T09:38:13Z</time>
      </trkpt>
      <trkpt lat="42.70761" lon="1.70871">
        <ele>1933</ele>
        <time>2018-01-14T09:38:32Z</time>
      </trkpt>
      <trkpt lat="42.70781" lon="1.70873">
        <ele>1933</ele>
        <time>2018-01-14T09:38:49Z</time>
      </trkpt>
      <trkpt lat="42.70799" lon="1.70877">
        <ele>1933</ele>
        <time>2018-01-14T09:39:06Z</time>
      </trkpt>
      <trkpt lat="42.70815" lon="1.7088">
        <ele>1933</ele>
        <time>2018-01-14T09:39:21Z</time>
      </trkpt>
      <trkpt lat="42.70816" lon="1.7088">
        <ele>1933</ele>
        <time>2018-01-14T09:39:22Z</time>
      </trkpt>
      <trkpt lat="42.70834" lon="1.70885">
        <ele>1935</ele>
        <time>2018-01-14T09:39:38Z</time>
      </trkpt>
      <trkpt lat="42.70852" lon="1.7089">
        <ele>1935</ele>
        <time>2018-01-14T09:39:56Z</time>
      </trkpt>
      <trkpt lat="42.70868" lon="1.70894">
        <ele>1935</ele>
        <time>2018-01-14T09:40:12Z</time>
      </trkpt>
      <trkpt lat="42.70874" lon="1.70896">
        <ele>1936</ele>
        <time>2018-01-14T09:40:19Z</time>
      </trkpt>
      <trkpt lat="42.70891" lon="1.70901">
        <ele>1936</ele>
        <time>2018-01-14T09:40:36Z</time>
      </trkpt>
      <trkpt lat="42.70901" lon="1.709">
        <ele>1937</ele>
        <time>2018-01-14T09:40:47Z</time>
      </trkpt>
      <trkpt lat="42.70906" lon="1.70899">
        <ele>1937</ele>
        <time>2018-01-14T09:40:51Z</time>
      </trkpt>
      <trkpt lat="42.70908" lon="1.70898">
        <ele>1937</ele>
        <time>2018-01-14T09:40:53Z</time>
      </trkpt>
      <trkpt lat="42.70913" lon="1.70896">
        <ele>1937</ele>
        <time>2018-01-14T09:40:59Z</time>
      </trkpt>
      <trkpt lat="42.70922" lon="1.70889">
        <ele>1940</ele>
        <time>2018-01-14T09:41:09Z</time>
      </trkpt>
      <trkpt lat="42.70936" lon="1.70876">
        <ele>1941</ele>
        <time>2018-01-14T09:41:26Z</time>
      </trkpt>
      <trkpt lat="42.70939" lon="1.70872">
        <ele>1941</ele>
        <time>2018-01-14T09:41:42Z</time>
      </trkpt>
      <trkpt lat="42.70949" lon="1.70861">
        <ele>1941</ele>
        <time>2018-01-14T09:41:56Z</time>
      </trkpt>
      <trkpt lat="42.70956" lon="1.70853">
        <ele>1942</ele>
        <time>2018-01-14T09:42:04Z</time>
      </trkpt>
      <trkpt lat="42.7097" lon="1.70836">
        <ele>1942</ele>
        <time>2018-01-14T09:42:20Z</time>
      </trkpt>
      <trkpt lat="42.70976" lon="1.70827">
        <ele>1943</ele>
        <time>2018-01-14T09:42:28Z</time>
      </trkpt>
      <trkpt lat="42.70987" lon="1.70808">
        <ele>1943</ele>
        <time>2018-01-14T09:42:44Z</time>
      </trkpt>
      <trkpt lat="42.70992" lon="1.70801">
        <ele>1943</ele>
        <time>2018-01-14T09:42:50Z</time>
      </trkpt>
      <trkpt lat="42.71003" lon="1.70782">
        <ele>1947</ele>
        <time>2018-01-14T09:43:05Z</time>
      </trkpt>
      <trkpt lat="42.71012" lon="1.70761">
        <ele>1947</ele>
        <time>2018-01-14T09:43:20Z</time>
      </trkpt>
      <trkpt lat="42.71014" lon="1.70758">
        <ele>1947</ele>
        <time>2018-01-14T09:43:22Z</time>
      </trkpt>
      <trkpt lat="42.71017" lon="1.70749">
        <ele>1948</ele>
        <time>2018-01-14T09:43:28Z</time>
      </trkpt>
      <trkpt lat="42.71024" lon="1.70734">
        <ele>1949</ele>
        <time>2018-01-14T09:43:40Z</time>
      </trkpt>
      <trkpt lat="42.7103" lon="1.70718">
        <ele>1950</ele>
        <time>2018-01-14T09:43:56Z</time>
      </trkpt>
      <trkpt lat="42.71035" lon="1.70703">
        <ele>1950</ele>
        <time>2018-01-14T09:44:11Z</time>
      </trkpt>
      <trkpt lat="42.7104" lon="1.70689">
        <ele>1951</ele>
        <time>2018-01-14T09:44:25Z</time>
      </trkpt>
      <trkpt lat="42.71042" lon="1.70685">
        <ele>1951</ele>
        <time>2018-01-14T09:44:29Z</time>
      </trkpt>
      <trkpt lat="42.7105" lon="1.70668">
        <ele>1952</ele>
        <time>2018-01-14T09:44:45Z</time>
      </trkpt>
      <trkpt lat="42.71051" lon="1.70665">
        <ele>1954</ele>
        <time>2018-01-14T09:44:48Z</time>
      </trkpt>
      <trkpt lat="42.71061" lon="1.70657">
        <ele>1954</ele>
        <time>2018-01-14T09:45:05Z</time>
      </trkpt>
      <trkpt lat="42.71062" lon="1.70657">
        <ele>1954</ele>
        <time>2018-01-14T09:45:06Z</time>
      </trkpt>
      <trkpt lat="42.71071" lon="1.70655">
        <ele>1954</ele>
        <time>2018-01-14T09:45:15Z</time>
      </trkpt>
      <trkpt lat="42.71073" lon="1.70654">
        <ele>1954</ele>
        <time>2018-01-14T09:45:18Z</time>
      </trkpt>
      <trkpt lat="42.71084" lon="1.70656">
        <ele>1955</ele>
        <time>2018-01-14T09:45:28Z</time>
      </trkpt>
      <trkpt lat="42.71086" lon="1.70656">
        <ele>1955</ele>
        <time>2018-01-14T09:45:30Z</time>
      </trkpt>
      <trkpt lat="42.71098" lon="1.70666">
        <ele>1954</ele>
        <time>2018-01-14T09:45:43Z</time>
      </trkpt>
      <trkpt lat="42.71099" lon="1.70668">
        <ele>1955</ele>
        <time>2018-01-14T09:45:45Z</time>
      </trkpt>
      <trkpt lat="42.71109" lon="1.70671">
        <ele>1955</ele>
        <time>2018-01-14T09:45:56Z</time>
      </trkpt>
      <trkpt lat="42.71118" lon="1.7067">
        <ele>1955</ele>
        <time>2018-01-14T09:46:05Z</time>
      </trkpt>
      <trkpt lat="42.7112" lon="1.70671">
        <ele>1955</ele>
        <time>2018-01-14T09:46:07Z</time>
      </trkpt>
      <trkpt lat="42.71128" lon="1.7067">
        <ele>1954</ele>
        <time>2018-01-14T09:46:15Z</time>
      </trkpt>
      <trkpt lat="42.71144" lon="1.70667">
        <ele>1954</ele>
        <time>2018-01-14T09:46:31Z</time>
      </trkpt>
      <trkpt lat="42.71157" lon="1.70665">
        <ele>1954</ele>
        <time>2018-01-14T09:46:45Z</time>
      </trkpt>
      <trkpt lat="42.71159" lon="1.70665">
        <ele>1954</ele>
        <time>2018-01-14T09:46:47Z</time>
      </trkpt>
      <trkpt lat="42.71175" lon="1.70666">
        <ele>1953</ele>
        <time>2018-01-14T09:47:02Z</time>
      </trkpt>
      <trkpt lat="42.71194" lon="1.70666">
        <ele>1952</ele>
        <time>2018-01-14T09:47:19Z</time>
      </trkpt>
      <trkpt lat="42.71211" lon="1.70666">
        <ele>1952</ele>
        <time>2018-01-14T09:47:35Z</time>
      </trkpt>
      <trkpt lat="42.71227" lon="1.70665">
        <ele>1951</ele>
        <time>2018-01-14T09:47:50Z</time>
      </trkpt>
      <trkpt lat="42.71245" lon="1.70663">
        <ele>1952</ele>
        <time>2018-01-14T09:48:05Z</time>
      </trkpt>
      <trkpt lat="42.7126" lon="1.70661">
        <ele>1950</ele>
        <time>2018-01-14T09:48:19Z</time>
      </trkpt>
      <trkpt lat="42.71263" lon="1.70661">
        <ele>1950</ele>
        <time>2018-01-14T09:48:22Z</time>
      </trkpt>
      <trkpt lat="42.71265" lon="1.7066">
        <ele>1950</ele>
        <time>2018-01-14T09:48:24Z</time>
      </trkpt>
      <trkpt lat="42.71281" lon="1.70657">
        <ele>1949</ele>
        <time>2018-01-14T09:48:39Z</time>
      </trkpt>
      <trkpt lat="42.71286" lon="1.70655">
        <ele>1949</ele>
        <time>2018-01-14T09:48:44Z</time>
      </trkpt>
      <trkpt lat="42.71299" lon="1.7065">
        <ele>1948</ele>
        <time>2018-01-14T09:48:56Z</time>
      </trkpt>
      <trkpt lat="42.71304" lon="1.70648">
        <ele>1948</ele>
        <time>2018-01-14T09:49:01Z</time>
      </trkpt>
      <trkpt lat="42.71318" lon="1.70644">
        <ele>1948</ele>
        <time>2018-01-14T09:49:14Z</time>
      </trkpt>
      <trkpt lat="42.71329" lon="1.70639">
        <ele>1947</ele>
        <time>2018-01-14T09:49:24Z</time>
      </trkpt>
      <trkpt lat="42.71345" lon="1.70632">
        <ele>1944</ele>
        <time>2018-01-14T09:49:40Z</time>
      </trkpt>
      <trkpt lat="42.71363" lon="1.70623">
        <ele>1943</ele>
        <time>2018-01-14T09:49:57Z</time>
      </trkpt>
      <trkpt lat="42.7138" lon="1.70614">
        <ele>1942</ele>
        <time>2018-01-14T09:50:13Z</time>
      </trkpt>
      <trkpt lat="42.71382" lon="1.70613">
        <ele>1942</ele>
        <time>2018-01-14T09:50:16Z</time>
      </trkpt>
      <trkpt lat="42.71399" lon="1.70604">
        <ele>1941</ele>
        <time>2018-01-14T09:50:33Z</time>
      </trkpt>
      <trkpt lat="42.714" lon="1.70604">
        <ele>1941</ele>
        <time>2018-01-14T09:50:37Z</time>
      </trkpt>
      <trkpt lat="42.71404" lon="1.70601">
        <ele>1941</ele>
        <time>2018-01-14T09:50:42Z</time>
      </trkpt>
      <trkpt lat="42.71406" lon="1.706">
        <ele>1941</ele>
        <time>2018-01-14T09:50:44Z</time>
      </trkpt>
      <trkpt lat="42.71424" lon="1.70594">
        <ele>1938</ele>
        <time>2018-01-14T09:51:03Z</time>
      </trkpt>
      <trkpt lat="42.71441" lon="1.7059">
        <ele>1937</ele>
        <time>2018-01-14T09:51:19Z</time>
      </trkpt>
      <trkpt lat="42.71442" lon="1.70589">
        <ele>1937</ele>
        <time>2018-01-14T09:51:20Z</time>
      </trkpt>
      <trkpt lat="42.71447" lon="1.70588">
        <ele>1936</ele>
        <time>2018-01-14T09:51:25Z</time>
      </trkpt>
      <trkpt lat="42.71466" lon="1.70587">
        <ele>1935</ele>
        <time>2018-01-14T09:51:42Z</time>
      </trkpt>
      <trkpt lat="42.71483" lon="1.70589">
        <ele>1935</ele>
        <time>2018-01-14T09:51:57Z</time>
      </trkpt>
      <trkpt lat="42.71486" lon="1.70591">
        <ele>1935</ele>
        <time>2018-01-14T09:52:00Z</time>
      </trkpt>
      <trkpt lat="42.71491" lon="1.70592">
        <ele>1934</ele>
        <time>2018-01-14T09:52:05Z</time>
      </trkpt>
      <trkpt lat="42.71493" lon="1.70591">
        <ele>1934</ele>
        <time>2018-01-14T09:52:07Z</time>
      </trkpt>
      <trkpt lat="42.71511" lon="1.70595">
        <ele>1930</ele>
        <time>2018-01-14T09:52:24Z</time>
      </trkpt>
      <trkpt lat="42.71528" lon="1.70599">
        <ele>1928</ele>
        <time>2018-01-14T09:52:40Z</time>
      </trkpt>
      <trkpt lat="42.71545" lon="1.70602">
        <ele>1927</ele>
        <time>2018-01-14T09:52:56Z</time>
      </trkpt>
      <trkpt lat="42.71562" lon="1.70604">
        <ele>1926</ele>
        <time>2018-01-14T09:53:13Z</time>
      </trkpt>
      <trkpt lat="42.71576" lon="1.70601">
        <ele>1925</ele>
        <time>2018-01-14T09:53:28Z</time>
      </trkpt>
      <trkpt lat="42.71579" lon="1.706">
        <ele>1925</ele>
        <time>2018-01-14T09:53:30Z</time>
      </trkpt>
      <trkpt lat="42.71594" lon="1.7059">
        <ele>1920</ele>
        <time>2018-01-14T09:53:45Z</time>
      </trkpt>
      <trkpt lat="42.71609" lon="1.70577">
        <ele>1923</ele>
        <time>2018-01-14T09:54:01Z</time>
      </trkpt>
      <trkpt lat="42.71615" lon="1.70567">
        <ele>1922</ele>
        <time>2018-01-14T09:54:09Z</time>
      </trkpt>
      <trkpt lat="42.71617" lon="1.70565">
        <ele>1922</ele>
        <time>2018-01-14T09:54:11Z</time>
      </trkpt>
      <trkpt lat="42.7163" lon="1.7055">
        <ele>1922</ele>
        <time>2018-01-14T09:54:27Z</time>
      </trkpt>
      <trkpt lat="42.71641" lon="1.70536">
        <ele>1922</ele>
        <time>2018-01-14T09:54:41Z</time>
      </trkpt>
      <trkpt lat="42.71655" lon="1.7052">
        <ele>1922</ele>
        <time>2018-01-14T09:54:57Z</time>
      </trkpt>
      <trkpt lat="42.7167" lon="1.705">
        <ele>1921</ele>
        <time>2018-01-14T09:55:16Z</time>
      </trkpt>
      <trkpt lat="42.7168" lon="1.70482">
        <ele>1919</ele>
        <time>2018-01-14T09:55:32Z</time>
      </trkpt>
      <trkpt lat="42.7169" lon="1.70464">
        <ele>1919</ele>
        <time>2018-01-14T09:55:47Z</time>
      </trkpt>
      <trkpt lat="42.71702" lon="1.70445">
        <ele>1918</ele>
        <time>2018-01-14T09:56:04Z</time>
      </trkpt>
      <trkpt lat="42.71717" lon="1.70429">
        <ele>1917</ele>
        <time>2018-01-14T09:56:20Z</time>
      </trkpt>
      <trkpt lat="42.71733" lon="1.70418">
        <ele>1916</ele>
        <time>2018-01-14T09:56:37Z</time>
      </trkpt>
      <trkpt lat="42.7175" lon="1.70411">
        <ele>1913</ele>
        <time>2018-01-14T09:56:53Z</time>
      </trkpt>
      <trkpt lat="42.71763" lon="1.70406">
        <ele>1912</ele>
        <time>2018-01-14T09:57:04Z</time>
      </trkpt>
      <trkpt lat="42.71775" lon="1.70403">
        <ele>1910</ele>
        <time>2018-01-14T09:57:15Z</time>
      </trkpt>
      <trkpt lat="42.71778" lon="1.70402">
        <ele>1910</ele>
        <time>2018-01-14T09:57:17Z</time>
      </trkpt>
      <trkpt lat="42.71781" lon="1.70401">
        <ele>1910</ele>
        <time>2018-01-14T09:57:20Z</time>
      </trkpt>
      <trkpt lat="42.71786" lon="1.704">
        <ele>1909</ele>
        <time>2018-01-14T09:57:25Z</time>
      </trkpt>
      <trkpt lat="42.71803" lon="1.70395">
        <ele>1907</ele>
        <time>2018-01-14T09:57:42Z</time>
      </trkpt>
      <trkpt lat="42.71809" lon="1.70393">
        <ele>1907</ele>
        <time>2018-01-14T09:57:49Z</time>
      </trkpt>
      <trkpt lat="42.71829" lon="1.70388">
        <ele>1906</ele>
        <time>2018-01-14T09:58:08Z</time>
      </trkpt>
      <trkpt lat="42.71837" lon="1.70384">
        <ele>1896</ele>
        <time>2018-01-14T09:58:15Z</time>
      </trkpt>
      <trkpt lat="42.71853" lon="1.70371">
        <ele>1896</ele>
        <time>2018-01-14T09:58:33Z</time>
      </trkpt>
      <trkpt lat="42.71858" lon="1.70365">
        <ele>1896</ele>
        <time>2018-01-14T09:58:39Z</time>
      </trkpt>
      <trkpt lat="42.71865" lon="1.70342">
        <ele>1896</ele>
        <time>2018-01-14T09:58:56Z</time>
      </trkpt>
      <trkpt lat="42.71866" lon="1.70327">
        <ele>1896</ele>
        <time>2018-01-14T09:59:06Z</time>
      </trkpt>
      <trkpt lat="42.71866" lon="1.70325">
        <ele>1896</ele>
        <time>2018-01-14T09:59:08Z</time>
      </trkpt>
      <trkpt lat="42.71865" lon="1.70322">
        <ele>1896</ele>
        <time>2018-01-14T09:59:10Z</time>
      </trkpt>
      <trkpt lat="42.71865" lon="1.70316">
        <ele>1896</ele>
        <time>2018-01-14T09:59:14Z</time>
      </trkpt>
      <trkpt lat="42.71865" lon="1.70313">
        <ele>1896</ele>
        <time>2018-01-14T09:59:17Z</time>
      </trkpt>
      <trkpt lat="42.71863" lon="1.70291">
        <ele>1895</ele>
        <time>2018-01-14T09:59:32Z</time>
      </trkpt>
      <trkpt lat="42.71852" lon="1.70271">
        <ele>1896</ele>
        <time>2018-01-14T09:59:49Z</time>
      </trkpt>
      <trkpt lat="42.71842" lon="1.70256">
        <ele>1897</ele>
        <time>2018-01-14T10:00:05Z</time>
      </trkpt>
      <trkpt lat="42.71834" lon="1.70244">
        <ele>1896</ele>
        <time>2018-01-14T10:00:17Z</time>
      </trkpt>
      <trkpt lat="42.71823" lon="1.70226">
        <ele>1900</ele>
        <time>2018-01-14T10:00:33Z</time>
      </trkpt>
      <trkpt lat="42.71822" lon="1.70223">
        <ele>1900</ele>
        <time>2018-01-14T10:00:35Z</time>
      </trkpt>
      <trkpt lat="42.71813" lon="1.70209">
        <ele>1900</ele>
        <time>2018-01-14T10:00:50Z</time>
      </trkpt>
      <trkpt lat="42.71804" lon="1.70186">
        <ele>1899</ele>
        <time>2018-01-14T10:01:09Z</time>
      </trkpt>
      <trkpt lat="42.71796" lon="1.70167">
        <ele>1899</ele>
        <time>2018-01-14T10:01:24Z</time>
      </trkpt>
      <trkpt lat="42.71794" lon="1.70156">
        <ele>1898</ele>
        <time>2018-01-14T10:01:35Z</time>
      </trkpt>
      <trkpt lat="42.71793" lon="1.7015">
        <ele>1898</ele>
        <time>2018-01-14T10:01:40Z</time>
      </trkpt>
      <trkpt lat="42.71794" lon="1.70129">
        <ele>1898</ele>
        <time>2018-01-14T10:01:58Z</time>
      </trkpt>
      <trkpt lat="42.71797" lon="1.7012">
        <ele>1898</ele>
        <time>2018-01-14T10:02:07Z</time>
      </trkpt>
      <trkpt lat="42.71806" lon="1.70102">
        <ele>1897</ele>
        <time>2018-01-14T10:02:22Z</time>
      </trkpt>
      <trkpt lat="42.71817" lon="1.70084">
        <ele>1894</ele>
        <time>2018-01-14T10:02:38Z</time>
      </trkpt>
      <trkpt lat="42.71827" lon="1.70064">
        <ele>1894</ele>
        <time>2018-01-14T10:02:54Z</time>
      </trkpt>
      <trkpt lat="42.71835" lon="1.70036">
        <ele>1882</ele>
        <time>2018-01-14T10:03:13Z</time>
      </trkpt>
      <trkpt lat="42.71837" lon="1.70018">
        <ele>1884</ele>
        <time>2018-01-14T10:03:25Z</time>
      </trkpt>
      <trkpt lat="42.71838" lon="1.7">
        <ele>1887</ele>
        <time>2018-01-14T10:03:36Z</time>
      </trkpt>
      <trkpt lat="42.71834" lon="1.69974">
        <ele>1881</ele>
        <time>2018-01-14T10:03:53Z</time>
      </trkpt>
      <trkpt lat="42.7183" lon="1.69949">
        <ele>1890</ele>
        <time>2018-01-14T10:04:10Z</time>
      </trkpt>
      <trkpt lat="42.71824" lon="1.69926">
        <ele>1887</ele>
        <time>2018-01-14T10:04:26Z</time>
      </trkpt>
      <trkpt lat="42.7182" lon="1.69911">
        <ele>1884</ele>
        <time>2018-01-14T10:04:37Z</time>
      </trkpt>
      <trkpt lat="42.71816" lon="1.69897">
        <ele>1885</ele>
        <time>2018-01-14T10:04:47Z</time>
      </trkpt>
      <trkpt lat="42.71812" lon="1.69874">
        <ele>1885</ele>
        <time>2018-01-14T10:05:03Z</time>
      </trkpt>
      <trkpt lat="42.71811" lon="1.6986">
        <ele>1884</ele>
        <time>2018-01-14T10:05:12Z</time>
      </trkpt>
      <trkpt lat="42.71812" lon="1.69835">
        <ele>1882</ele>
        <time>2018-01-14T10:05:29Z</time>
      </trkpt>
      <trkpt lat="42.71815" lon="1.6981">
        <ele>1879</ele>
        <time>2018-01-14T10:05:45Z</time>
      </trkpt>
      <trkpt lat="42.71816" lon="1.69805">
        <ele>1879</ele>
        <time>2018-01-14T10:05:49Z</time>
      </trkpt>
      <trkpt lat="42.71822" lon="1.6978">
        <ele>1879</ele>
        <time>2018-01-14T10:06:06Z</time>
      </trkpt>
      <trkpt lat="42.71828" lon="1.69759">
        <ele>1877</ele>
        <time>2018-01-14T10:06:22Z</time>
      </trkpt>
      <trkpt lat="42.71831" lon="1.69749">
        <ele>1876</ele>
        <time>2018-01-14T10:06:30Z</time>
      </trkpt>
      <trkpt lat="42.71832" lon="1.69746">
        <ele>1876</ele>
        <time>2018-01-14T10:06:32Z</time>
      </trkpt>
      <trkpt lat="42.71833" lon="1.69744">
        <ele>1877</ele>
        <time>2018-01-14T10:06:34Z</time>
      </trkpt>
      <trkpt lat="42.71835" lon="1.69731">
        <ele>1877</ele>
        <time>2018-01-14T10:06:44Z</time>
      </trkpt>
      <trkpt lat="42.71835" lon="1.69728">
        <ele>1877</ele>
        <time>2018-01-14T10:06:46Z</time>
      </trkpt>
      <trkpt lat="42.71837" lon="1.69723">
        <ele>1877</ele>
        <time>2018-01-14T10:06:50Z</time>
      </trkpt>
      <trkpt lat="42.71839" lon="1.69705">
        <ele>1878</ele>
        <time>2018-01-14T10:07:03Z</time>
      </trkpt>
      <trkpt lat="42.71841" lon="1.69704">
        <ele>1878</ele>
        <time>2018-01-14T10:07:17Z</time>
      </trkpt>
      <trkpt lat="42.71843" lon="1.69688">
        <ele>1879</ele>
        <time>2018-01-14T10:07:33Z</time>
      </trkpt>
      <trkpt lat="42.71841" lon="1.69688">
        <ele>1879</ele>
        <time>2018-01-14T10:07:56Z</time>
      </trkpt>
      <trkpt lat="42.71841" lon="1.69685">
        <ele>1879</ele>
        <time>2018-01-14T10:08:33Z</time>
      </trkpt>
      <trkpt lat="42.7184" lon="1.69685">
        <ele>1879</ele>
        <time>2018-01-14T10:08:56Z</time>
      </trkpt>
      <trkpt lat="42.7184" lon="1.69686">
        <ele>1879</ele>
        <time>2018-01-14T10:09:20Z</time>
      </trkpt>
      <trkpt lat="42.71838" lon="1.69686">
        <ele>1879</ele>
        <time>2018-01-14T10:09:46Z</time>
      </trkpt>
      <trkpt lat="42.71839" lon="1.69687">
        <ele>1879</ele>
        <time>2018-01-14T10:10:18Z</time>
      </trkpt>
      <trkpt lat="42.7184" lon="1.69687">
        <ele>1879</ele>
        <time>2018-01-14T10:10:34Z</time>
      </trkpt>
      <trkpt lat="42.7184" lon="1.69688">
        <ele>1879</ele>
        <time>2018-01-14T10:11:01Z</time>
      </trkpt>
      <trkpt lat="42.71839" lon="1.69687">
        <ele>1879</ele>
        <time>2018-01-14T10:11:27Z</time>
      </trkpt>
      <trkpt lat="42.71843" lon="1.69676">
        <ele>1879</ele>
        <time>2018-01-14T10:11:41Z</time>
      </trkpt>
      <trkpt lat="42.71847" lon="1.69652">
        <ele>1880</ele>
        <time>2018-01-14T10:11:58Z</time>
      </trkpt>
      <trkpt lat="42.71849" lon="1.69631">
        <ele>1880</ele>
        <time>2018-01-14T10:12:13Z</time>
      </trkpt>
      <trkpt lat="42.7185" lon="1.69626">
        <ele>1880</ele>
        <time>2018-01-14T10:12:17Z</time>
      </trkpt>
      <trkpt lat="42.7185" lon="1.69623">
        <ele>1880</ele>
        <time>2018-01-14T10:12:19Z</time>
      </trkpt>
      <trkpt lat="42.7185" lon="1.6962">
        <ele>1880</ele>
        <time>2018-01-14T10:12:21Z</time>
      </trkpt>
      <trkpt lat="42.7185" lon="1.69614">
        <ele>1880</ele>
        <time>2018-01-14T10:12:25Z</time>
      </trkpt>
      <trkpt lat="42.7185" lon="1.69592">
        <ele>1880</ele>
        <time>2018-01-14T10:12:40Z</time>
      </trkpt>
      <trkpt lat="42.7185" lon="1.69584">
        <ele>1880</ele>
        <time>2018-01-14T10:12:45Z</time>
      </trkpt>
      <trkpt lat="42.71848" lon="1.69559">
        <ele>1878</ele>
        <time>2018-01-14T10:13:01Z</time>
      </trkpt>
      <trkpt lat="42.71847" lon="1.69545">
        <ele>1878</ele>
        <time>2018-01-14T10:13:10Z</time>
      </trkpt>
      <trkpt lat="42.71846" lon="1.69539">
        <ele>1877</ele>
        <time>2018-01-14T10:13:14Z</time>
      </trkpt>
      <trkpt lat="42.71843" lon="1.69513">
        <ele>1875</ele>
        <time>2018-01-14T10:13:31Z</time>
      </trkpt>
      <trkpt lat="42.71843" lon="1.6951">
        <ele>1875</ele>
        <time>2018-01-14T10:13:33Z</time>
      </trkpt>
      <trkpt lat="42.7184" lon="1.69492">
        <ele>1873</ele>
        <time>2018-01-14T10:13:44Z</time>
      </trkpt>
      <trkpt lat="42.71839" lon="1.69489">
        <ele>1873</ele>
        <time>2018-01-14T10:13:46Z</time>
      </trkpt>
      <trkpt lat="42.71836" lon="1.69469">
        <ele>1874</ele>
        <time>2018-01-14T10:13:59Z</time>
      </trkpt>
      <trkpt lat="42.71835" lon="1.69464">
        <ele>1874</ele>
        <time>2018-01-14T10:14:02Z</time>
      </trkpt>
      <trkpt lat="42.71833" lon="1.69456">
        <ele>1870</ele>
        <time>2018-01-14T10:14:07Z</time>
      </trkpt>
      <trkpt lat="42.71824" lon="1.69434">
        <ele>1870</ele>
        <time>2018-01-14T10:14:24Z</time>
      </trkpt>
      <trkpt lat="42.7182" lon="1.69428">
        <ele>1870</ele>
        <time>2018-01-14T10:14:29Z</time>
      </trkpt>
      <trkpt lat="42.71811" lon="1.69412">
        <ele>1868</ele>
        <time>2018-01-14T10:14:44Z</time>
      </trkpt>
      <trkpt lat="42.71803" lon="1.69384">
        <ele>1866</ele>
        <time>2018-01-14T10:15:02Z</time>
      </trkpt>
      <trkpt lat="42.71803" lon="1.69372">
        <ele>1866</ele>
        <time>2018-01-14T10:15:09Z</time>
      </trkpt>
      <trkpt lat="42.71804" lon="1.69359">
        <ele>1866</ele>
        <time>2018-01-14T10:15:28Z</time>
      </trkpt>
      <trkpt lat="42.71803" lon="1.69354">
        <ele>1866</ele>
        <time>2018-01-14T10:15:33Z</time>
      </trkpt>
      <trkpt lat="42.71802" lon="1.69345">
        <ele>1865</ele>
        <time>2018-01-14T10:15:40Z</time>
      </trkpt>
      <trkpt lat="42.71801" lon="1.6934">
        <ele>1865</ele>
        <time>2018-01-14T10:15:44Z</time>
      </trkpt>
      <trkpt lat="42.718" lon="1.69336">
        <ele>1865</ele>
        <time>2018-01-14T10:15:47Z</time>
      </trkpt>
      <trkpt lat="42.71798" lon="1.69319">
        <ele>1860</ele>
        <time>2018-01-14T10:15:57Z</time>
      </trkpt>
      <trkpt lat="42.71794" lon="1.69294">
        <ele>1858</ele>
        <time>2018-01-14T10:16:13Z</time>
      </trkpt>
      <trkpt lat="42.71794" lon="1.69272">
        <ele>1856</ele>
        <time>2018-01-14T10:16:29Z</time>
      </trkpt>
      <trkpt lat="42.71794" lon="1.69271">
        <ele>1856</ele>
        <time>2018-01-14T10:16:30Z</time>
      </trkpt>
      <trkpt lat="42.71795" lon="1.69258">
        <ele>1856</ele>
        <time>2018-01-14T10:16:39Z</time>
      </trkpt>
      <trkpt lat="42.71798" lon="1.69254">
        <ele>1856</ele>
        <time>2018-01-14T10:16:43Z</time>
      </trkpt>
      <trkpt lat="42.71804" lon="1.6925">
        <ele>1847</ele>
        <time>2018-01-14T10:16:49Z</time>
      </trkpt>
      <trkpt lat="42.71825" lon="1.69249">
        <ele>1850</ele>
        <time>2018-01-14T10:17:05Z</time>
      </trkpt>
      <trkpt lat="42.7183" lon="1.69249">
        <ele>1851</ele>
        <time>2018-01-14T10:17:09Z</time>
      </trkpt>
      <trkpt lat="42.71837" lon="1.69244">
        <ele>1850</ele>
        <time>2018-01-14T10:17:16Z</time>
      </trkpt>
      <trkpt lat="42.71843" lon="1.69237">
        <ele>1848</ele>
        <time>2018-01-14T10:17:21Z</time>
      </trkpt>
      <trkpt lat="42.71859" lon="1.69222">
        <ele>1845</ele>
        <time>2018-01-14T10:17:38Z</time>
      </trkpt>
      <trkpt lat="42.71868" lon="1.69212">
        <ele>1844</ele>
        <time>2018-01-14T10:17:48Z</time>
      </trkpt>
      <trkpt lat="42.71871" lon="1.69208">
        <ele>1844</ele>
        <time>2018-01-14T10:17:51Z</time>
      </trkpt>
      <trkpt lat="42.71881" lon="1.69194">
        <ele>1842</ele>
        <time>2018-01-14T10:18:03Z</time>
      </trkpt>
      <trkpt lat="42.71885" lon="1.69192">
        <ele>1842</ele>
        <time>2018-01-14T10:18:07Z</time>
      </trkpt>
      <trkpt lat="42.71889" lon="1.6919">
        <ele>1842</ele>
        <time>2018-01-14T10:18:11Z</time>
      </trkpt>
      <trkpt lat="42.71908" lon="1.69185">
        <ele>1840</ele>
        <time>2018-01-14T10:18:27Z</time>
      </trkpt>
      <trkpt lat="42.71914" lon="1.69182">
        <ele>1839</ele>
        <time>2018-01-14T10:18:32Z</time>
      </trkpt>
      <trkpt lat="42.71926" lon="1.69179">
        <ele>1838</ele>
        <time>2018-01-14T10:18:44Z</time>
      </trkpt>
      <trkpt lat="42.71949" lon="1.69177">
        <ele>1838</ele>
        <time>2018-01-14T10:19:03Z</time>
      </trkpt>
      <trkpt lat="42.71951" lon="1.69178">
        <ele>1838</ele>
        <time>2018-01-14T10:19:05Z</time>
      </trkpt>
      <trkpt lat="42.71969" lon="1.69178">
        <ele>1837</ele>
        <time>2018-01-14T10:19:18Z</time>
      </trkpt>
      <trkpt lat="42.71987" lon="1.69183">
        <ele>1836</ele>
        <time>2018-01-14T10:19:33Z</time>
      </trkpt>
      <trkpt lat="42.71991" lon="1.69183">
        <ele>1835</ele>
        <time>2018-01-14T10:19:37Z</time>
      </trkpt>
      <trkpt lat="42.72007" lon="1.69186">
        <ele>1832</ele>
        <time>2018-01-14T10:19:50Z</time>
      </trkpt>
      <trkpt lat="42.72014" lon="1.69186">
        <ele>1832</ele>
        <time>2018-01-14T10:19:57Z</time>
      </trkpt>
      <trkpt lat="42.72029" lon="1.69185">
        <ele>1831</ele>
        <time>2018-01-14T10:20:12Z</time>
      </trkpt>
      <trkpt lat="42.72034" lon="1.69183">
        <ele>1831</ele>
        <time>2018-01-14T10:20:17Z</time>
      </trkpt>
      <trkpt lat="42.72054" lon="1.69177">
        <ele>1829</ele>
        <time>2018-01-14T10:20:34Z</time>
      </trkpt>
      <trkpt lat="42.72062" lon="1.69179">
        <ele>1828</ele>
        <time>2018-01-14T10:20:40Z</time>
      </trkpt>
      <trkpt lat="42.72066" lon="1.69182">
        <ele>1828</ele>
        <time>2018-01-14T10:20:44Z</time>
      </trkpt>
      <trkpt lat="42.72068" lon="1.69185">
        <ele>1828</ele>
        <time>2018-01-14T10:20:47Z</time>
      </trkpt>
      <trkpt lat="42.72085" lon="1.69194">
        <ele>1822</ele>
        <time>2018-01-14T10:21:02Z</time>
      </trkpt>
      <trkpt lat="42.72089" lon="1.69197">
        <ele>1822</ele>
        <time>2018-01-14T10:21:05Z</time>
      </trkpt>
      <trkpt lat="42.72094" lon="1.69199">
        <ele>1822</ele>
        <time>2018-01-14T10:21:10Z</time>
      </trkpt>
      <trkpt lat="42.72114" lon="1.6921">
        <ele>1822</ele>
        <time>2018-01-14T10:21:27Z</time>
      </trkpt>
      <trkpt lat="42.72122" lon="1.69215">
        <ele>1822</ele>
        <time>2018-01-14T10:21:36Z</time>
      </trkpt>
      <trkpt lat="42.72137" lon="1.69223">
        <ele>1821</ele>
        <time>2018-01-14T10:21:50Z</time>
      </trkpt>
      <trkpt lat="42.72158" lon="1.6923">
        <ele>1821</ele>
        <time>2018-01-14T10:22:09Z</time>
      </trkpt>
      <trkpt lat="42.72176" lon="1.69234">
        <ele>1816</ele>
        <time>2018-01-14T10:22:25Z</time>
      </trkpt>
      <trkpt lat="42.72193" lon="1.69231">
        <ele>1814</ele>
        <time>2018-01-14T10:22:41Z</time>
      </trkpt>
      <trkpt lat="42.722" lon="1.69227">
        <ele>1813</ele>
        <time>2018-01-14T10:22:48Z</time>
      </trkpt>
      <trkpt lat="42.72222" lon="1.69219">
        <ele>1812</ele>
        <time>2018-01-14T10:23:06Z</time>
      </trkpt>
      <trkpt lat="42.72225" lon="1.69217">
        <ele>1812</ele>
        <time>2018-01-14T10:23:09Z</time>
      </trkpt>
      <trkpt lat="42.7224" lon="1.69212">
        <ele>1811</ele>
        <time>2018-01-14T10:23:21Z</time>
      </trkpt>
      <trkpt lat="42.72258" lon="1.69204">
        <ele>1807</ele>
        <time>2018-01-14T10:23:36Z</time>
      </trkpt>
      <trkpt lat="42.72274" lon="1.69198">
        <ele>1806</ele>
        <time>2018-01-14T10:23:50Z</time>
      </trkpt>
      <trkpt lat="42.72294" lon="1.6919">
        <ele>1806</ele>
        <time>2018-01-14T10:24:07Z</time>
      </trkpt>
      <trkpt lat="42.72313" lon="1.69184">
        <ele>1805</ele>
        <time>2018-01-14T10:24:23Z</time>
      </trkpt>
      <trkpt lat="42.72336" lon="1.6918">
        <ele>1802</ele>
        <time>2018-01-14T10:24:42Z</time>
      </trkpt>
      <trkpt lat="42.7235" lon="1.69182">
        <ele>1802</ele>
        <time>2018-01-14T10:24:53Z</time>
      </trkpt>
      <trkpt lat="42.72368" lon="1.69179">
        <ele>1801</ele>
        <time>2018-01-14T10:25:10Z</time>
      </trkpt>
      <trkpt lat="42.72379" lon="1.69173">
        <ele>1801</ele>
        <time>2018-01-14T10:25:21Z</time>
      </trkpt>
      <trkpt lat="42.72383" lon="1.69172">
        <ele>1800</ele>
        <time>2018-01-14T10:25:25Z</time>
      </trkpt>
      <trkpt lat="42.72393" lon="1.69163">
        <ele>1795</ele>
        <time>2018-01-14T10:25:34Z</time>
      </trkpt>
      <trkpt lat="42.72407" lon="1.69145">
        <ele>1794</ele>
        <time>2018-01-14T10:25:50Z</time>
      </trkpt>
      <trkpt lat="42.72416" lon="1.69134">
        <ele>1794</ele>
        <time>2018-01-14T10:26:01Z</time>
      </trkpt>
      <trkpt lat="42.72418" lon="1.69133">
        <ele>1792</ele>
        <time>2018-01-14T10:26:04Z</time>
      </trkpt>
      <trkpt lat="42.72429" lon="1.69122">
        <ele>1791</ele>
        <time>2018-01-14T10:26:16Z</time>
      </trkpt>
      <trkpt lat="42.72443" lon="1.69106">
        <ele>1790</ele>
        <time>2018-01-14T10:26:32Z</time>
      </trkpt>
      <trkpt lat="42.72456" lon="1.6909">
        <ele>1790</ele>
        <time>2018-01-14T10:26:47Z</time>
      </trkpt>
      <trkpt lat="42.72466" lon="1.69082">
        <ele>1786</ele>
        <time>2018-01-14T10:26:57Z</time>
      </trkpt>
      <trkpt lat="42.72469" lon="1.69079">
        <ele>1786</ele>
        <time>2018-01-14T10:27:00Z</time>
      </trkpt>
      <trkpt lat="42.72474" lon="1.69077">
        <ele>1786</ele>
        <time>2018-01-14T10:27:05Z</time>
      </trkpt>
      <trkpt lat="42.72484" lon="1.69079">
        <ele>1786</ele>
        <time>2018-01-14T10:27:21Z</time>
      </trkpt>
      <trkpt lat="42.72497" lon="1.69084">
        <ele>1787</ele>
        <time>2018-01-14T10:27:36Z</time>
      </trkpt>
      <trkpt lat="42.72498" lon="1.69085">
        <ele>1787</ele>
        <time>2018-01-14T10:27:37Z</time>
      </trkpt>
      <trkpt lat="42.72499" lon="1.69087">
        <ele>1787</ele>
        <time>2018-01-14T10:27:39Z</time>
      </trkpt>
      <trkpt lat="42.72511" lon="1.69097">
        <ele>1786</ele>
        <time>2018-01-14T10:27:54Z</time>
      </trkpt>
      <trkpt lat="42.72512" lon="1.69097">
        <ele>1786</ele>
        <time>2018-01-14T10:27:55Z</time>
      </trkpt>
      <trkpt lat="42.72523" lon="1.69094">
        <ele>1786</ele>
        <time>2018-01-14T10:28:09Z</time>
      </trkpt>
      <trkpt lat="42.72532" lon="1.69087">
        <ele>1785</ele>
        <time>2018-01-14T10:28:22Z</time>
      </trkpt>
      <trkpt lat="42.7254" lon="1.69072">
        <ele>1784</ele>
        <time>2018-01-14T10:28:39Z</time>
      </trkpt>
      <trkpt lat="42.72541" lon="1.69072">
        <ele>1784</ele>
        <time>2018-01-14T10:29:09Z</time>
      </trkpt>
      <trkpt lat="42.72544" lon="1.69073">
        <ele>1784</ele>
        <time>2018-01-14T10:29:29Z</time>
      </trkpt>
      <trkpt lat="42.72544" lon="1.69071">
        <ele>1784</ele>
        <time>2018-01-14T10:29:54Z</time>
      </trkpt>
      <trkpt lat="42.72543" lon="1.69071">
        <ele>1784</ele>
        <time>2018-01-14T10:30:12Z</time>
      </trkpt>
      <trkpt lat="42.7254" lon="1.69069">
        <ele>1784</ele>
        <time>2018-01-14T10:30:38Z</time>
      </trkpt>
      <trkpt lat="42.72541" lon="1.6907">
        <ele>1784</ele>
        <time>2018-01-14T10:30:55Z</time>
      </trkpt>
    </trkseg>
  </trk>
</gpx>